Wetterdaten: Samstag, 20.08.2016
Datum Zeit Temp. A. Temp. A. max Feuchte A. Luftdruck Regen Wind Richtung Richtung Sonnenschein ET UV Solar Taupunkt Windben
20.08.2016 00:00 15,4 C 15,4 C 92 % 1013,0 hPa 0,0 mm 0,7 km/h (0 Bft) S 179 0 min 0,000 mm 0,0 UV-I 0 W/m 14,1 C 1,6 km/h (1 Bft)
20.08.2016 00:01 15,4 C 15,5 C 92 % 1012,9 hPa 0,0 mm 0,3 km/h (0 Bft) S 179 0 min 0,000 mm 0,0 UV-I 0 W/m 14,1 C 1,6 km/h (1 Bft)
20.08.2016 00:02 15,5 C 15,5 C 91 % 1012,9 hPa 0,0 mm 0,3 km/h (0 Bft) S 179 0 min 0,000 mm 0,0 UV-I 0 W/m 14,0 C 1,6 km/h (1 Bft)
20.08.2016 00:03 15,5 C 15,5 C 91 % 1012,9 hPa 0,0 mm 0,5 km/h (0 Bft) S 179 0 min 0,000 mm 0,0 UV-I 0 W/m 14,0 C 1,6 km/h (1 Bft)
20.08.2016 00:04 15,6 C 15,6 C 92 % 1012,8 hPa 0,0 mm 0,0 km/h (0 Bft) S 179 0 min 0,000 mm 0,0 UV-I 0 W/m 14,3 C 0,0 km/h (0 Bft)
20.08.2016 00:05 15,6 C 15,6 C 91 % 1012,8 hPa 0,0 mm 0,0 km/h (0 Bft) S 179 0 min 0,000 mm 0,0 UV-I 0 W/m 14,1 C 0,0 km/h (0 Bft)
20.08.2016 00:06 15,6 C 15,6 C 91 % 1012,8 hPa 0,0 mm 0,0 km/h (0 Bft) S 179 0 min 0,000 mm 0,0 UV-I 0 W/m 14,1 C 0,0 km/h (0 Bft)
20.08.2016 00:07 15,7 C 15,7 C 91 % 1012,9 hPa 0,0 mm 0,3 km/h (0 Bft) S 179 0 min 0,000 mm 0,0 UV-I 0 W/m 14,2 C 1,6 km/h (1 Bft)
20.08.2016 00:08 15,7 C 15,7 C 91 % 1012,9 hPa 0,0 mm 2,1 km/h (1 Bft) SW 229 0 min 0,000 mm 0,0 UV-I 0 W/m 14,2 C 3,2 km/h (1 Bft)
20.08.2016 00:09 15,8 C 15,8 C 90 % 1012,9 hPa 0,0 mm 0,9 km/h (0 Bft) S 183 0 min 0,000 mm 0,0 UV-I 0 W/m 14,2 C 3,2 km/h (1 Bft)
20.08.2016 00:10 15,8 C 15,8 C 90 % 1012,9 hPa 0,0 mm 1,7 km/h (1 Bft) S 184 0 min 0,000 mm 0,0 UV-I 0 W/m 14,2 C 3,2 km/h (1 Bft)
20.08.2016 00:11 15,8 C 15,8 C 90 % 1012,9 hPa 0,0 mm 1,1 km/h (1 Bft) S 184 0 min 0,000 mm 0,0 UV-I 0 W/m 14,2 C 1,6 km/h (1 Bft)
20.08.2016 00:12 15,8 C 15,8 C 90 % 1013,0 hPa 0,0 mm 1,1 km/h (1 Bft) S 184 0 min 0,000 mm 0,0 UV-I 0 W/m 14,2 C 3,2 km/h (1 Bft)
20.08.2016 00:13 15,8 C 15,8 C 90 % 1013,0 hPa 0,0 mm 0,4 km/h (0 Bft) S 184 0 min 0,000 mm 0,0 UV-I 0 W/m 14,2 C 1,6 km/h (1 Bft)
20.08.2016 00:14 15,8 C 15,8 C 90 % 1012,9 hPa 0,0 mm 1,4 km/h (1 Bft) S 184 0 min 0,000 mm 0,0 UV-I 0 W/m 14,2 C 3,2 km/h (1 Bft)
20.08.2016 00:15 15,7 C 15,8 C 91 % 1012,9 hPa 0,0 mm 0,3 km/h (0 Bft) S 184 0 min 0,000 mm 0,0 UV-I 0 W/m 14,2 C 1,6 km/h (1 Bft)
20.08.2016 00:16 15,7 C 15,7 C 91 % 1013,0 hPa 0,0 mm 0,2 km/h (0 Bft) S 184 0 min 0,000 mm 0,0 UV-I 0 W/m 14,2 C 1,6 km/h (1 Bft)
20.08.2016 00:17 15,7 C 15,8 C 90 % 1013,0 hPa 0,0 mm 1,1 km/h (1 Bft) S 184 0 min 0,000 mm 0,0 UV-I 0 W/m 14,1 C 1,6 km/h (1 Bft)
20.08.2016 00:18 15,8 C 15,8 C 90 % 1013,0 hPa 0,0 mm 0,1 km/h (0 Bft) S 184 0 min 0,000 mm 0,0 UV-I 0 W/m 14,2 C 1,6 km/h (1 Bft)
20.08.2016 00:19 15,8 C 15,8 C 90 % 1013,0 hPa 0,0 mm 0,0 km/h (0 Bft) S 184 0 min 0,000 mm 0,0 UV-I 0 W/m 14,2 C 0,0 km/h (0 Bft)
20.08.2016 00:20 15,8 C 15,8 C 91 % 1012,9 hPa 0,0 mm 1,3 km/h (1 Bft) S 183 0 min 0,000 mm 0,0 UV-I 0 W/m 14,3 C 3,2 km/h (1 Bft)
20.08.2016 00:21 15,7 C 15,8 C 91 % 1012,9 hPa 0,0 mm 0,7 km/h (0 Bft) S 183 0 min 0,000 mm 0,0 UV-I 0 W/m 14,2 C 1,6 km/h (1 Bft)
20.08.2016 00:22 15,7 C 15,8 C 91 % 1012,9 hPa 0,0 mm 1,3 km/h (1 Bft) S 183 0 min 0,000 mm 0,0 UV-I 0 W/m 14,2 C 3,2 km/h (1 Bft)
20.08.2016 00:23 15,7 C 15,7 C 91 % 1012,9 hPa 0,0 mm 1,1 km/h (1 Bft) S 183 0 min 0,000 mm 0,0 UV-I 0 W/m 14,2 C 1,6 km/h (1 Bft)
20.08.2016 00:24 15,7 C 15,7 C 91 % 1012,9 hPa 0,0 mm 1,6 km/h (1 Bft) SO 130 0 min 0,000 mm 0,0 UV-I 0 W/m 14,2 C 3,2 km/h (1 Bft)
20.08.2016 00:25 15,7 C 15,7 C 91 % 1012,9 hPa 0,0 mm 2,2 km/h (1 Bft) SO 130 0 min 0,000 mm 0,0 UV-I 0 W/m 14,2 C 3,2 km/h (1 Bft)
20.08.2016 00:26 15,7 C 15,7 C 91 % 1012,8 hPa 0,0 mm 2,2 km/h (1 Bft) O 97 0 min 0,000 mm 0,0 UV-I 0 W/m 14,2 C 3,2 km/h (1 Bft)
20.08.2016 00:27 15,7 C 15,7 C 91 % 1012,8 hPa 0,0 mm 1,5 km/h (1 Bft) O 97 0 min 0,000 mm 0,0 UV-I 0 W/m 14,2 C 3,2 km/h (1 Bft)
20.08.2016 00:28 15,7 C 15,7 C 91 % 1012,8 hPa 0,0 mm 3,8 km/h (1 Bft) SO 140 0 min 0,000 mm 0,0 UV-I 0 W/m 14,2 C 6,4 km/h (2 Bft)
20.08.2016 00:29 15,7 C 15,7 C 91 % 1012,7 hPa 0,0 mm 2,8 km/h (1 Bft) SO 132 0 min 0,000 mm 0,0 UV-I 0 W/m 14,2 C 4,8 km/h (1 Bft)
20.08.2016 00:30 15,7 C 15,7 C 91 % 1012,7 hPa 0,0 mm 0,5 km/h (0 Bft) SO 132 0 min 0,000 mm 0,0 UV-I 0 W/m 14,2 C 1,6 km/h (1 Bft)
20.08.2016 00:31 15,7 C 15,7 C 92 % 1012,7 hPa 0,0 mm 0,0 km/h (0 Bft) SO 132 0 min 0,000 mm 0,0 UV-I 0 W/m 14,4 C 0,0 km/h (0 Bft)
20.08.2016 00:32 15,6 C 15,7 C 91 % 1012,7 hPa 0,0 mm 0,0 km/h (0 Bft) SO 132 0 min 0,000 mm 0,0 UV-I 0 W/m 14,1 C 0,0 km/h (0 Bft)
20.08.2016 00:33 15,7 C 15,7 C 91 % 1012,7 hPa 0,0 mm 1,8 km/h (1 Bft) O-SO 102 0 min 0,000 mm 0,0 UV-I 0 W/m 14,2 C 3,2 km/h (1 Bft)
20.08.2016 00:34 15,7 C 15,7 C 91 % 1012,7 hPa 0,0 mm 2,4 km/h (1 Bft) O-SO 105 0 min 0,000 mm 0,0 UV-I 0 W/m 14,2 C 4,8 km/h (1 Bft)
20.08.2016 00:35 15,6 C 15,7 C 91 % 1012,7 hPa 0,0 mm 0,7 km/h (0 Bft) O-SO 105 0 min 0,000 mm 0,0 UV-I 0 W/m 14,1 C 1,6 km/h (1 Bft)
20.08.2016 00:36 15,6 C 15,6 C 91 % 1012,7 hPa 0,0 mm 0,0 km/h (0 Bft) O-SO 105 0 min 0,000 mm 0,0 UV-I 0 W/m 14,1 C 0,0 km/h (0 Bft)
20.08.2016 00:37 15,6 C 15,6 C 91 % 1012,7 hPa 0,0 mm 0,1 km/h (0 Bft) O-SO 105 0 min 0,000 mm 0,0 UV-I 0 W/m 14,1 C 1,6 km/h (1 Bft)
20.08.2016 00:38 15,6 C 15,6 C 91 % 1012,7 hPa 0,0 mm 0,2 km/h (0 Bft) O-SO 105 0 min 0,000 mm 0,0 UV-I 0 W/m 14,1 C 1,6 km/h (1 Bft)
20.08.2016 00:39 15,6 C 15,6 C 91 % 1012,6 hPa 0,0 mm 0,3 km/h (0 Bft) O-SO 105 0 min 0,000 mm 0,0 UV-I 0 W/m 14,1 C 1,6 km/h (1 Bft)
20.08.2016 00:40 15,6 C 15,6 C 91 % 1012,6 hPa 0,0 mm 0,2 km/h (0 Bft) O-SO 105 0 min 0,000 mm 0,0 UV-I 0 W/m 14,1 C 1,6 km/h (1 Bft)
20.08.2016 00:41 15,6 C 15,6 C 91 % 1012,7 hPa 0,0 mm 0,1 km/h (0 Bft) O-SO 105 0 min 0,000 mm 0,0 UV-I 0 W/m 14,1 C 1,6 km/h (1 Bft)
20.08.2016 00:42 15,6 C 15,6 C 91 % 1012,7 hPa 0,0 mm 0,1 km/h (0 Bft) O-SO 105 0 min 0,000 mm 0,0 UV-I 0 W/m 14,1 C 1,6 km/h (1 Bft)
20.08.2016 00:43 15,6 C 15,6 C 90 % 1012,7 hPa 0,0 mm 0,2 km/h (0 Bft) O-SO 105 0 min 0,000 mm 0,0 UV-I 0 W/m 14,0 C 1,6 km/h (1 Bft)
20.08.2016 00:44 15,6 C 15,6 C 90 % 1012,7 hPa 0,0 mm 0,1 km/h (0 Bft) O-SO 105 0 min 0,000 mm 0,0 UV-I 0 W/m 14,0 C 1,6 km/h (1 Bft)
20.08.2016 00:45 15,6 C 15,6 C 90 % 1012,7 hPa 0,0 mm 0,0 km/h (0 Bft) O-SO 105 0 min 0,000 mm 0,0 UV-I 0 W/m 14,0 C 0,0 km/h (0 Bft)
20.08.2016 00:46 15,6 C 15,6 C 90 % 1012,6 hPa 0,0 mm 0,0 km/h (0 Bft) O-SO 105 0 min 0,000 mm 0,0 UV-I 0 W/m 14,0 C 0,0 km/h (0 Bft)
20.08.2016 00:47 15,6 C 15,6 C 90 % 1012,7 hPa 0,0 mm 0,0 km/h (0 Bft) O-SO 105 0 min 0,000 mm 0,0 UV-I 0 W/m 14,0 C 0,0 km/h (0 Bft)
20.08.2016 00:48 15,6 C 15,6 C 90 % 1012,7 hPa 0,0 mm 0,2 km/h (0 Bft) O-SO 105 0 min 0,000 mm 0,0 UV-I 0 W/m 14,0 C 1,6 km/h (1 Bft)
20.08.2016 00:49 15,6 C 15,6 C 90 % 1012,7 hPa 0,0 mm 0,9 km/h (0 Bft) O-SO 105 0 min 0,000 mm 0,0 UV-I 0 W/m 14,0 C 1,6 km/h (1 Bft)
20.08.2016 00:50 15,6 C 15,7 C 90 % 1012,7 hPa 0,0 mm 0,0 km/h (0 Bft) O-SO 105 0 min 0,000 mm 0,0 UV-I 0 W/m 14,0 C 0,0 km/h (0 Bft)
20.08.2016 00:51 15,7 C 15,7 C 90 % 1012,7 hPa 0,0 mm 0,0 km/h (0 Bft) O-SO 105 0 min 0,000 mm 0,0 UV-I 0 W/m 14,1 C 0,0 km/h (0 Bft)
20.08.2016 00:52 15,7 C 15,7 C 90 % 1012,7 hPa 0,0 mm 0,0 km/h (0 Bft) O-SO 105 0 min 0,000 mm 0,0 UV-I 0 W/m 14,1 C 0,0 km/h (0 Bft)
20.08.2016 00:53 15,7 C 15,7 C 90 % 1012,7 hPa 0,0 mm 0,0 km/h (0 Bft) O-SO 105 0 min 0,000 mm 0,0 UV-I 0 W/m 14,1 C 0,0 km/h (0 Bft)
20.08.2016 00:54 15,7 C 15,7 C 90 % 1012,7 hPa 0,0 mm 0,0 km/h (0 Bft) O-SO 105 0 min 0,000 mm 0,0 UV-I 0 W/m 14,1 C 0,0 km/h (0 Bft)
20.08.2016 00:55 15,7 C 15,7 C 91 % 1012,6 hPa 0,0 mm 0,0 km/h (0 Bft) O-SO 105 0 min 0,000 mm 0,0 UV-I 0 W/m 14,2 C 0,0 km/h (0 Bft)
20.08.2016 00:56 15,6 C 15,7 C 90 % 1012,7 hPa 0,0 mm 0,0 km/h (0 Bft) O-SO 105 0 min 0,000 mm 0,0 UV-I 0 W/m 14,0 C 0,0 km/h (0 Bft)
20.08.2016 00:57 15,6 C 15,6 C 91 % 1012,6 hPa 0,0 mm 0,0 km/h (0 Bft) O-SO 105 0 min 0,000 mm 0,0 UV-I 0 W/m 14,1 C 0,0 km/h (0 Bft)
20.08.2016 00:58 15,6 C 15,6 C 91 % 1012,6 hPa 0,0 mm 0,6 km/h (0 Bft) O-SO 105 0 min 0,000 mm 0,0 UV-I 0 W/m 14,1 C 1,6 km/h (1 Bft)
20.08.2016 00:59 15,6 C 15,6 C 91 % 1012,7 hPa 0,0 mm 2,4 km/h (1 Bft) O-SO 105 0 min 0,000 mm 0,0 UV-I 0 W/m 14,1 C 3,2 km/h (1 Bft)
20.08.2016 01:00 15,6 C 15,6 C 91 % 1012,6 hPa 0,0 mm 0,7 km/h (0 Bft) O-SO 105 0 min 0,000 mm 0,0 UV-I 0 W/m 14,1 C 1,6 km/h (1 Bft)
20.08.2016 01:01 15,6 C 15,6 C 91 % 1012,6 hPa 0,0 mm 0,0 km/h (0 Bft) O-SO 105 0 min 0,000 mm 0,0 UV-I 0 W/m 14,1 C 0,0 km/h (0 Bft)
20.08.2016 01:03 15,5 C 15,6 C 91 % 1012,5 hPa 0,0 mm 0,1 km/h (0 Bft) O-SO 105 0 min 0,000 mm 0,0 UV-I 0 W/m 14,0 C 1,6 km/h (1 Bft)
20.08.2016 01:04 15,6 C 15,6 C 91 % 1012,5 hPa 0,0 mm 0,3 km/h (0 Bft) O-SO 105 0 min 0,000 mm 0,0 UV-I 0 W/m 14,1 C 1,6 km/h (1 Bft)
20.08.2016 01:05 15,5 C 15,6 C 91 % 1012,5 hPa 0,0 mm 0,0 km/h (0 Bft) O-SO 105 0 min 0,000 mm 0,0 UV-I 0 W/m 14,0 C 0,0 km/h (0 Bft)
20.08.2016 01:06 15,5 C 15,5 C 91 % 1012,5 hPa 0,0 mm 0,3 km/h (0 Bft) O-SO 105 0 min 0,000 mm 0,0 UV-I 0 W/m 14,0 C 1,6 km/h (1 Bft)
20.08.2016 01:07 15,5 C 15,5 C 91 % 1012,5 hPa 0,0 mm 0,3 km/h (0 Bft) O-SO 105 0 min 0,000 mm 0,0 UV-I 0 W/m 14,0 C 1,6 km/h (1 Bft)
20.08.2016 01:08 15,5 C 15,5 C 91 % 1012,5 hPa 0,0 mm 0,0 km/h (0 Bft) O-SO 105 0 min 0,000 mm 0,0 UV-I 0 W/m 14,0 C 0,0 km/h (0 Bft)
20.08.2016 01:09 15,5 C 15,5 C 91 % 1012,5 hPa 0,0 mm 0,1 km/h (0 Bft) O-SO 105 0 min 0,000 mm 0,0 UV-I 0 W/m 14,0 C 1,6 km/h (1 Bft)
20.08.2016 01:10 15,6 C 15,6 C 91 % 1012,5 hPa 0,0 mm 0,0 km/h (0 Bft) O-SO 105 0 min 0,000 mm 0,0 UV-I 0 W/m 14,1 C 0,0 km/h (0 Bft)
20.08.2016 01:11 15,6 C 15,6 C 91 % 1012,5 hPa 0,0 mm 0,0 km/h (0 Bft) O-SO 105 0 min 0,000 mm 0,0 UV-I 0 W/m 14,1 C 0,0 km/h (0 Bft)
20.08.2016 01:12 15,6 C 15,6 C 90 % 1012,5 hPa 0,0 mm 0,5 km/h (0 Bft) O-SO 105 0 min 0,000 mm 0,0 UV-I 0 W/m 14,0 C 1,6 km/h (1 Bft)
20.08.2016 01:13 15,6 C 15,6 C 90 % 1012,5 hPa 0,0 mm 0,2 km/h (0 Bft) O-SO 105 0 min 0,000 mm 0,0 UV-I 0 W/m 14,0 C 1,6 km/h (1 Bft)
20.08.2016 01:14 15,6 C 15,6 C 89 % 1012,5 hPa 0,0 mm 1,6 km/h (1 Bft) O-SO 105 0 min 0,000 mm 0,0 UV-I 0 W/m 13,8 C 3,2 km/h (1 Bft)
20.08.2016 01:15 15,6 C 15,6 C 90 % 1012,5 hPa 0,0 mm 0,6 km/h (0 Bft) O-SO 105 0 min 0,000 mm 0,0 UV-I 0 W/m 14,0 C 3,2 km/h (1 Bft)
20.08.2016 01:16 15,5 C 15,6 C 90 % 1012,6 hPa 0,0 mm 0,0 km/h (0 Bft) O-SO 105 0 min 0,000 mm 0,0 UV-I 0 W/m 13,9 C 0,0 km/h (0 Bft)
20.08.2016 01:17 15,4 C 15,5 C 90 % 1012,6 hPa 0,0 mm 0,0 km/h (0 Bft) O-SO 105 0 min 0,000 mm 0,0 UV-I 0 W/m 13,8 C 0,0 km/h (0 Bft)
20.08.2016 01:18 15,3 C 15,4 C 90 % 1012,5 hPa 0,0 mm 0,0 km/h (0 Bft) O-SO 105 0 min 0,000 mm 0,0 UV-I 0 W/m 13,7 C 0,0 km/h (0 Bft)
20.08.2016 01:19 15,3 C 15,3 C 91 % 1012,6 hPa 0,0 mm 0,3 km/h (0 Bft) O-SO 105 0 min 0,000 mm 0,0 UV-I 0 W/m 13,8 C 1,6 km/h (1 Bft)
20.08.2016 01:20 15,2 C 15,3 C 90 % 1012,5 hPa 0,0 mm 0,9 km/h (0 Bft) O-SO 105 0 min 0,000 mm 0,0 UV-I 0 W/m 13,6 C 1,6 km/h (1 Bft)
20.08.2016 01:21 15,1 C 15,2 C 91 % 1012,6 hPa 0,0 mm 0,3 km/h (0 Bft) O-SO 105 0 min 0,000 mm 0,0 UV-I 0 W/m 13,6 C 1,6 km/h (1 Bft)
20.08.2016 01:22 15,1 C 15,1 C 91 % 1012,6 hPa 0,0 mm 0,4 km/h (0 Bft) O-SO 105 0 min 0,000 mm 0,0 UV-I 0 W/m 13,6 C 1,6 km/h (1 Bft)
20.08.2016 01:23 15,0 C 15,1 C 91 % 1012,6 hPa 0,0 mm 0,1 km/h (0 Bft) O-SO 105 0 min 0,000 mm 0,0 UV-I 0 W/m 13,5 C 1,6 km/h (1 Bft)
20.08.2016 01:24 15,0 C 15,0 C 91 % 1012,6 hPa 0,0 mm 0,0 km/h (0 Bft) O-SO 105 0 min 0,000 mm 0,0 UV-I 0 W/m 13,5 C 0,0 km/h (0 Bft)
20.08.2016 01:25 15,0 C 15,0 C 92 % 1012,6 hPa 0,0 mm 0,0 km/h (0 Bft) O-SO 105 0 min 0,000 mm 0,0 UV-I 0 W/m 13,7 C 0,0 km/h (0 Bft)
20.08.2016 01:26 14,9 C 15,0 C 91 % 1012,5 hPa 0,0 mm 0,0 km/h (0 Bft) O-SO 105 0 min 0,000 mm 0,0 UV-I 0 W/m 13,4 C 0,0 km/h (0 Bft)
20.08.2016 01:27 14,9 C 14,9 C 92 % 1012,5 hPa 0,0 mm 0,0 km/h (0 Bft) O-SO 105 0 min 0,000 mm 0,0 UV-I 0 W/m 13,6 C 0,0 km/h (0 Bft)
20.08.2016 01:28 14,9 C 14,9 C 92 % 1012,6 hPa 0,0 mm 0,0 km/h (0 Bft) O-SO 105 0 min 0,000 mm 0,0 UV-I 0 W/m 13,6 C 0,0 km/h (0 Bft)
20.08.2016 01:29 14,9 C 14,9 C 92 % 1012,6 hPa 0,0 mm 1,3 km/h (1 Bft) O-SO 105 0 min 0,000 mm 0,0 UV-I 0 W/m 13,6 C 1,6 km/h (1 Bft)
20.08.2016 01:30 14,9 C 14,9 C 92 % 1012,6 hPa 0,0 mm 1,1 km/h (1 Bft) O-SO 105 0 min 0,000 mm 0,0 UV-I 0 W/m 13,6 C 1,6 km/h (1 Bft)
20.08.2016 01:31 14,9 C 14,9 C 92 % 1012,6 hPa 0,0 mm 1,4 km/h (1 Bft) O-SO 105 0 min 0,000 mm 0,0 UV-I 0 W/m 13,6 C 3,2 km/h (1 Bft)
20.08.2016 01:32 14,9 C 14,9 C 92 % 1012,6 hPa 0,0 mm 1,5 km/h (1 Bft) O-SO 105 0 min 0,000 mm 0,0 UV-I 0 W/m 13,6 C 1,6 km/h (1 Bft)
20.08.2016 01:33 14,9 C 14,9 C 92 % 1012,6 hPa 0,0 mm 1,5 km/h (1 Bft) O-SO 105 0 min 0,000 mm 0,0 UV-I 0 W/m 13,6 C 1,6 km/h (1 Bft)
20.08.2016 01:34 15,0 C 15,0 C 92 % 1012,6 hPa 0,0 mm 0,7 km/h (0 Bft) O-SO 105 0 min 0,000 mm 0,0 UV-I 0 W/m 13,7 C 1,6 km/h (1 Bft)
20.08.2016 01:35 15,1 C 15,1 C 92 % 1012,6 hPa 0,0 mm 0,1 km/h (0 Bft) O-SO 105 0 min 0,000 mm 0,0 UV-I 0 W/m 13,8 C 1,6 km/h (1 Bft)
20.08.2016 01:36 15,1 C 15,1 C 91 % 1012,6 hPa 0,0 mm 0,0 km/h (0 Bft) O-SO 105 0 min 0,000 mm 0,0 UV-I 0 W/m 13,6 C 0,0 km/h (0 Bft)
20.08.2016 01:37 15,2 C 15,2 C 91 % 1012,6 hPa 0,0 mm 0,0 km/h (0 Bft) O-SO 105 0 min 0,000 mm 0,0 UV-I 0 W/m 13,7 C 0,0 km/h (0 Bft)
20.08.2016 01:38 15,2 C 15,2 C 91 % 1012,6 hPa 0,0 mm 0,0 km/h (0 Bft) O-SO 105 0 min 0,000 mm 0,0 UV-I 0 W/m 13,7 C 0,0 km/h (0 Bft)
20.08.2016 01:39 15,2 C 15,2 C 90 % 1012,6 hPa 0,0 mm 0,0 km/h (0 Bft) O-SO 105 0 min 0,000 mm 0,0 UV-I 0 W/m 13,6 C 0,0 km/h (0 Bft)
20.08.2016 01:40 15,1 C 15,2 C 90 % 1012,6 hPa 0,0 mm 0,0 km/h (0 Bft) O-SO 105 0 min 0,000 mm 0,0 UV-I 0 W/m 13,5 C 0,0 km/h (0 Bft)
20.08.2016 01:41 15,1 C 15,1 C 90 % 1012,5 hPa 0,0 mm 0,0 km/h (0 Bft) O-SO 105 0 min 0,000 mm 0,0 UV-I 0 W/m 13,5 C 0,0 km/h (0 Bft)
20.08.2016 01:42 15,1 C 15,1 C 91 % 1012,5 hPa 0,0 mm 0,1 km/h (0 Bft) O-SO 105 0 min 0,000 mm 0,0 UV-I 0 W/m 13,6 C 1,6 km/h (1 Bft)
20.08.2016 01:43 14,9 C 15,1 C 91 % 1012,6 hPa 0,0 mm 0,1 km/h (0 Bft) O-SO 105 0 min 0,000 mm 0,0 UV-I 0 W/m 13,4 C 1,6 km/h (1 Bft)
20.08.2016 01:44 14,9 C 14,9 C 91 % 1012,6 hPa 0,0 mm 0,0 km/h (0 Bft) O-SO 105 0 min 0,000 mm 0,0 UV-I 0 W/m 13,4 C 0,0 km/h (0 Bft)
20.08.2016 01:45 14,8 C 14,9 C 92 % 1012,5 hPa 0,0 mm 0,0 km/h (0 Bft) O-SO 105 0 min 0,000 mm 0,0 UV-I 0 W/m 13,5 C 0,0 km/h (0 Bft)
20.08.2016 01:46 14,8 C 14,9 C 91 % 1012,6 hPa 0,0 mm 0,0 km/h (0 Bft) O-SO 105 0 min 0,000 mm 0,0 UV-I 0 W/m 13,3 C 0,0 km/h (0 Bft)
20.08.2016 01:47 14,8 C 14,8 C 91 % 1012,6 hPa 0,0 mm 0,0 km/h (0 Bft) O-SO 105 0 min 0,000 mm 0,0 UV-I 0 W/m 13,3 C 0,0 km/h (0 Bft)
20.08.2016 01:48 14,8 C 14,8 C 92 % 1012,6 hPa 0,0 mm 0,0 km/h (0 Bft) O-SO 105 0 min 0,000 mm 0,0 UV-I 0 W/m 13,5 C 0,0 km/h (0 Bft)
20.08.2016 01:49 14,8 C 14,8 C 92 % 1012,6 hPa 0,0 mm 0,0 km/h (0 Bft) O-SO 105 0 min 0,000 mm 0,0 UV-I 0 W/m 13,5 C 0,0 km/h (0 Bft)
20.08.2016 01:50 14,8 C 14,8 C 92 % 1012,6 hPa 0,0 mm 0,0 km/h (0 Bft) O-SO 105 0 min 0,000 mm 0,0 UV-I 0 W/m 13,5 C 0,0 km/h (0 Bft)
20.08.2016 01:51 14,8 C 14,8 C 92 % 1012,6 hPa 0,0 mm 0,0 km/h (0 Bft) O-SO 105 0 min 0,000 mm 0,0 UV-I 0 W/m 13,5 C 0,0 km/h (0 Bft)
20.08.2016 01:52 14,7 C 14,8 C 92 % 1012,7 hPa 0,0 mm 0,0 km/h (0 Bft) O-SO 105 0 min 0,000 mm 0,0 UV-I 0 W/m 13,4 C 0,0 km/h (0 Bft)
20.08.2016 01:53 14,7 C 14,7 C 92 % 1012,7 hPa 0,0 mm 0,0 km/h (0 Bft) O-SO 105 0 min 0,000 mm 0,0 UV-I 0 W/m 13,4 C 0,0 km/h (0 Bft)
20.08.2016 01:54 14,7 C 14,7 C 92 % 1012,7 hPa 0,0 mm 0,7 km/h (0 Bft) O-SO 105 0 min 0,000 mm 0,0 UV-I 0 W/m 13,4 C 1,6 km/h (1 Bft)
20.08.2016 01:55 14,7 C 14,7 C 93 % 1012,6 hPa 0,0 mm 1,2 km/h (1 Bft) O-SO 105 0 min 0,000 mm 0,0 UV-I 0 W/m 13,6 C 1,6 km/h (1 Bft)
20.08.2016 01:56 14,6 C 14,7 C 92 % 1012,6 hPa 0,0 mm 1,6 km/h (1 Bft) O-SO 105 0 min 0,000 mm 0,0 UV-I 0 W/m 13,3 C 3,2 km/h (1 Bft)
20.08.2016 01:57 14,6 C 14,6 C 92 % 1012,6 hPa 0,0 mm 0,8 km/h (0 Bft) O-SO 105 0 min 0,000 mm 0,0 UV-I 0 W/m 13,3 C 1,6 km/h (1 Bft)
20.08.2016 01:58 14,4 C 14,6 C 92 % 1012,5 hPa 0,0 mm 0,1 km/h (0 Bft) O-SO 105 0 min 0,000 mm 0,0 UV-I 0 W/m 13,1 C 1,6 km/h (1 Bft)
20.08.2016 01:59 14,4 C 14,5 C 93 % 1012,5 hPa 0,0 mm 0,7 km/h (0 Bft) O-SO 105 0 min 0,000 mm 0,0 UV-I 0 W/m 13,3 C 3,2 km/h (1 Bft)
20.08.2016 02:00 14,4 C 14,5 C 93 % 1012,5 hPa 0,0 mm 0,6 km/h (0 Bft) O-SO 105 0 min 0,000 mm 0,0 UV-I 0 W/m 13,3 C 1,6 km/h (1 Bft)
20.08.2016 02:01 14,4 C 14,5 C 93 % 1012,5 hPa 0,0 mm 0,2 km/h (0 Bft) O-SO 105 0 min 0,000 mm 0,0 UV-I 0 W/m 13,3 C 1,6 km/h (1 Bft)
20.08.2016 02:02 14,4 C 14,4 C 93 % 1012,5 hPa 0,0 mm 1,6 km/h (1 Bft) O-SO 105 0 min 0,000 mm 0,0 UV-I 0 W/m 13,3 C 3,2 km/h (1 Bft)
20.08.2016 02:03 14,4 C 14,4 C 93 % 1012,5 hPa 0,0 mm 1,7 km/h (1 Bft) NO 38 0 min 0,000 mm 0,0 UV-I 0 W/m 13,3 C 3,2 km/h (1 Bft)
20.08.2016 02:04 14,4 C 14,4 C 93 % 1012,5 hPa 0,0 mm 0,6 km/h (0 Bft) NO 38 0 min 0,000 mm 0,0 UV-I 0 W/m 13,3 C 1,6 km/h (1 Bft)
20.08.2016 02:05 14,4 C 14,4 C 93 % 1012,5 hPa 0,0 mm 0,2 km/h (0 Bft) NO 38 0 min 0,000 mm 0,0 UV-I 0 W/m 13,3 C 1,6 km/h (1 Bft)
20.08.2016 02:06 14,4 C 14,4 C 93 % 1012,6 hPa 0,0 mm 0,0 km/h (0 Bft) NO 38 0 min 0,000 mm 0,0 UV-I 0 W/m 13,3 C 0,0 km/h (0 Bft)
20.08.2016 02:07 14,4 C 14,4 C 93 % 1012,6 hPa 0,0 mm 0,0 km/h (0 Bft) NO 38 0 min 0,000 mm 0,0 UV-I 0 W/m 13,3 C 0,0 km/h (0 Bft)
20.08.2016 02:08 14,4 C 14,4 C 94 % 1012,6 hPa 0,0 mm 0,0 km/h (0 Bft) NO 38 0 min 0,000 mm 0,0 UV-I 0 W/m 13,4 C 0,0 km/h (0 Bft)
20.08.2016 02:09 14,3 C 14,4 C 93 % 1012,6 hPa 0,0 mm 0,0 km/h (0 Bft) NO 38 0 min 0,000 mm 0,0 UV-I 0 W/m 13,2 C 0,0 km/h (0 Bft)
20.08.2016 02:10 14,3 C 14,3 C 93 % 1012,6 hPa 0,0 mm 0,0 km/h (0 Bft) NO 38 0 min 0,000 mm 0,0 UV-I 0 W/m 13,2 C 0,0 km/h (0 Bft)
20.08.2016 02:11 14,3 C 14,3 C 93 % 1012,7 hPa 0,0 mm 0,0 km/h (0 Bft) NO 38 0 min 0,000 mm 0,0 UV-I 0 W/m 13,2 C 0,0 km/h (0 Bft)
20.08.2016 02:12 14,3 C 14,3 C 93 % 1012,7 hPa 0,0 mm 0,0 km/h (0 Bft) NO 38 0 min 0,000 mm 0,0 UV-I 0 W/m 13,2 C 0,0 km/h (0 Bft)
20.08.2016 02:13 14,3 C 14,3 C 93 % 1012,7 hPa 0,0 mm 0,0 km/h (0 Bft) NO 38 0 min 0,000 mm 0,0 UV-I 0 W/m 13,2 C 0,0 km/h (0 Bft)
20.08.2016 02:14 14,4 C 14,4 C 93 % 1012,7 hPa 0,0 mm 0,0 km/h (0 Bft) NO 38 0 min 0,000 mm 0,0 UV-I 0 W/m 13,3 C 0,0 km/h (0 Bft)
20.08.2016 02:15 14,4 C 14,4 C 93 % 1012,7 hPa 0,0 mm 0,0 km/h (0 Bft) NO 38 0 min 0,000 mm 0,0 UV-I 0 W/m 13,3 C 0,0 km/h (0 Bft)
20.08.2016 02:16 14,4 C 14,4 C 93 % 1012,7 hPa 0,0 mm 0,0 km/h (0 Bft) NO 38 0 min 0,000 mm 0,0 UV-I 0 W/m 13,3 C 0,0 km/h (0 Bft)
20.08.2016 02:17 14,3 C 14,4 C 93 % 1012,6 hPa 0,0 mm 0,0 km/h (0 Bft) NO 38 0 min 0,000 mm 0,0 UV-I 0 W/m 13,2 C 0,0 km/h (0 Bft)
20.08.2016 02:18 14,3 C 14,3 C 93 % 1012,7 hPa 0,0 mm 0,0 km/h (0 Bft) NO 38 0 min 0,000 mm 0,0 UV-I 0 W/m 13,2 C 0,0 km/h (0 Bft)
20.08.2016 02:19 14,3 C 14,3 C 93 % 1012,7 hPa 0,0 mm 0,0 km/h (0 Bft) NO 38 0 min 0,000 mm 0,0 UV-I 0 W/m 13,2 C 0,0 km/h (0 Bft)
20.08.2016 02:20 14,3 C 14,3 C 93 % 1012,7 hPa 0,0 mm 0,0 km/h (0 Bft) NO 38 0 min 0,000 mm 0,0 UV-I 0 W/m 13,2 C 0,0 km/h (0 Bft)
20.08.2016 02:21 14,3 C 14,3 C 93 % 1012,6 hPa 0,0 mm 0,0 km/h (0 Bft) NO 38 0 min 0,000 mm 0,0 UV-I 0 W/m 13,2 C 0,0 km/h (0 Bft)
20.08.2016 02:22 14,3 C 14,3 C 93 % 1012,6 hPa 0,0 mm 0,0 km/h (0 Bft) NO 38 0 min 0,000 mm 0,0 UV-I 0 W/m 13,2 C 0,0 km/h (0 Bft)
20.08.2016 02:23 14,3 C 14,3 C 94 % 1012,7 hPa 0,0 mm 0,0 km/h (0 Bft) NO 38 0 min 0,000 mm 0,0 UV-I 0 W/m 13,3 C 0,0 km/h (0 Bft)
20.08.2016 02:24 14,3 C 14,3 C 94 % 1012,6 hPa 0,0 mm 0,0 km/h (0 Bft) NO 38 0 min 0,000 mm 0,0 UV-I 0 W/m 13,3 C 0,0 km/h (0 Bft)
20.08.2016 02:25 14,3 C 14,3 C 94 % 1012,6 hPa 0,0 mm 0,0 km/h (0 Bft) NO 38 0 min 0,000 mm 0,0 UV-I 0 W/m 13,3 C 0,0 km/h (0 Bft)
20.08.2016 02:26 14,3 C 14,3 C 94 % 1012,7 hPa 0,0 mm 0,0 km/h (0 Bft) NO 38 0 min 0,000 mm 0,0 UV-I 0 W/m 13,3 C 0,0 km/h (0 Bft)
20.08.2016 02:27 14,3 C 14,3 C 93 % 1012,7 hPa 0,0 mm 0,0 km/h (0 Bft) NO 38 0 min 0,000 mm 0,0 UV-I 0 W/m 13,2 C 0,0 km/h (0 Bft)
20.08.2016 02:28 14,3 C 14,3 C 93 % 1012,7 hPa 0,0 mm 0,0 km/h (0 Bft) NO 38 0 min 0,000 mm 0,0 UV-I 0 W/m 13,2 C 0,0 km/h (0 Bft)
20.08.2016 02:29 14,3 C 14,3 C 93 % 1012,7 hPa 0,0 mm 0,0 km/h (0 Bft) NO 38 0 min 0,000 mm 0,0 UV-I 0 W/m 13,2 C 0,0 km/h (0 Bft)
20.08.2016 02:30 14,3 C 14,3 C 93 % 1012,7 hPa 0,0 mm 0,0 km/h (0 Bft) NO 38 0 min 0,000 mm 0,0 UV-I 0 W/m 13,2 C 0,0 km/h (0 Bft)
20.08.2016 02:31 14,3 C 14,3 C 93 % 1012,7 hPa 0,0 mm 0,0 km/h (0 Bft) NO 38 0 min 0,000 mm 0,0 UV-I 0 W/m 13,2 C 0,0 km/h (0 Bft)
20.08.2016 02:32 14,3 C 14,3 C 93 % 1012,7 hPa 0,0 mm 0,0 km/h (0 Bft) NO 38 0 min 0,000 mm 0,0 UV-I 0 W/m 13,2 C 0,0 km/h (0 Bft)
20.08.2016 02:33 14,3 C 14,3 C 93 % 1012,7 hPa 0,0 mm 0,0 km/h (0 Bft) NO 38 0 min 0,000 mm 0,0 UV-I 0 W/m 13,2 C 0,0 km/h (0 Bft)
20.08.2016 02:34 14,2 C 14,3 C 93 % 1012,7 hPa 0,0 mm 0,0 km/h (0 Bft) NO 38 0 min 0,000 mm 0,0 UV-I 0 W/m 13,1 C 0,0 km/h (0 Bft)
20.08.2016 02:35 14,2 C 14,3 C 93 % 1012,7 hPa 0,0 mm 0,0 km/h (0 Bft) NO 38 0 min 0,000 mm 0,0 UV-I 0 W/m 13,1 C 0,0 km/h (0 Bft)
20.08.2016 02:36 14,2 C 14,2 C 94 % 1012,8 hPa 0,0 mm 0,0 km/h (0 Bft) NO 38 0 min 0,000 mm 0,0 UV-I 0 W/m 13,2 C 0,0 km/h (0 Bft)
20.08.2016 02:37 14,2 C 14,3 C 94 % 1012,7 hPa 0,0 mm 0,0 km/h (0 Bft) NO 38 0 min 0,000 mm 0,0 UV-I 0 W/m 13,2 C 0,0 km/h (0 Bft)
20.08.2016 02:38 14,2 C 14,2 C 93 % 1012,7 hPa 0,0 mm 0,0 km/h (0 Bft) NO 38 0 min 0,000 mm 0,0 UV-I 0 W/m 13,1 C 0,0 km/h (0 Bft)
20.08.2016 02:39 14,2 C 14,2 C 94 % 1012,7 hPa 0,0 mm 0,0 km/h (0 Bft) NO 38 0 min 0,000 mm 0,0 UV-I 0 W/m 13,2 C 0,0 km/h (0 Bft)
20.08.2016 02:40 14,2 C 14,2 C 94 % 1012,7 hPa 0,0 mm 0,0 km/h (0 Bft) NO 38 0 min 0,000 mm 0,0 UV-I 0 W/m 13,2 C 0,0 km/h (0 Bft)
20.08.2016 02:41 14,2 C 14,2 C 94 % 1012,7 hPa 0,0 mm 0,0 km/h (0 Bft) NO 38 0 min 0,000 mm 0,0 UV-I 0 W/m 13,2 C 0,0 km/h (0 Bft)
20.08.2016 02:42 14,2 C 14,2 C 94 % 1012,7 hPa 0,0 mm 0,0 km/h (0 Bft) NO 38 0 min 0,000 mm 0,0 UV-I 0 W/m 13,2 C 0,0 km/h (0 Bft)
20.08.2016 02:43 14,2 C 14,2 C 94 % 1012,7 hPa 0,0 mm 0,0 km/h (0 Bft) NO 38 0 min 0,000 mm 0,0 UV-I 0 W/m 13,2 C 0,0 km/h (0 Bft)
20.08.2016 02:44 14,2 C 14,2 C 94 % 1012,7 hPa 0,0 mm 0,0 km/h (0 Bft) NO 38 0 min 0,000 mm 0,0 UV-I 0 W/m 13,2 C 0,0 km/h (0 Bft)
20.08.2016 02:45 14,2 C 14,2 C 94 % 1012,7 hPa 0,0 mm 0,0 km/h (0 Bft) NO 38 0 min 0,000 mm 0,0 UV-I 0 W/m 13,2 C 0,0 km/h (0 Bft)
20.08.2016 02:46 14,2 C 14,2 C 94 % 1012,7 hPa 0,0 mm 0,0 km/h (0 Bft) NO 38 0 min 0,000 mm 0,0 UV-I 0 W/m 13,2 C 0,0 km/h (0 Bft)
20.08.2016 02:47 14,2 C 14,2 C 94 % 1012,7 hPa 0,0 mm 0,0 km/h (0 Bft) NO 38 0 min 0,000 mm 0,0 UV-I 0 W/m 13,2 C 0,0 km/h (0 Bft)
20.08.2016 02:48 14,2 C 14,2 C 94 % 1012,7 hPa 0,0 mm 0,0 km/h (0 Bft) NO 38 0 min 0,000 mm 0,0 UV-I 0 W/m 13,2 C 0,0 km/h (0 Bft)
20.08.2016 02:49 14,2 C 14,2 C 94 % 1012,7 hPa 0,0 mm 0,0 km/h (0 Bft) NO 38 0 min 0,000 mm 0,0 UV-I 0 W/m 13,2 C 0,0 km/h (0 Bft)
20.08.2016 02:50 14,2 C 14,2 C 94 % 1012,7 hPa 0,0 mm 0,0 km/h (0 Bft) NO 38 0 min 0,000 mm 0,0 UV-I 0 W/m 13,2 C 0,0 km/h (0 Bft)
20.08.2016 02:51 14,2 C 14,2 C 94 % 1012,7 hPa 0,0 mm 0,0 km/h (0 Bft) NO 38 0 min 0,000 mm 0,0 UV-I 0 W/m 13,2 C 0,0 km/h (0 Bft)
20.08.2016 02:52 14,3 C 14,3 C 94 % 1012,7 hPa 0,0 mm 0,0 km/h (0 Bft) NO 38 0 min 0,000 mm 0,0 UV-I 0 W/m 13,3 C 0,0 km/h (0 Bft)
20.08.2016 02:53 14,3 C 14,3 C 94 % 1012,7 hPa 0,0 mm 0,0 km/h (0 Bft) NO 38 0 min 0,000 mm 0,0 UV-I 0 W/m 13,3 C 0,0 km/h (0 Bft)
20.08.2016 02:54 14,3 C 14,3 C 94 % 1012,7 hPa 0,0 mm 0,0 km/h (0 Bft) NO 38 0 min 0,000 mm 0,0 UV-I 0 W/m 13,3 C 0,0 km/h (0 Bft)
20.08.2016 02:55 14,3 C 14,3 C 93 % 1012,8 hPa 0,0 mm 0,0 km/h (0 Bft) NO 38 0 min 0,000 mm 0,0 UV-I 0 W/m 13,2 C 0,0 km/h (0 Bft)
20.08.2016 02:56 14,3 C 14,3 C 93 % 1012,7 hPa 0,0 mm 0,0 km/h (0 Bft) NO 38 0 min 0,000 mm 0,0 UV-I 0 W/m 13,2 C 0,0 km/h (0 Bft)
20.08.2016 02:57 14,4 C 14,4 C 93 % 1012,7 hPa 0,0 mm 0,0 km/h (0 Bft) NO 38 0 min 0,000 mm 0,0 UV-I 0 W/m 13,3 C 0,0 km/h (0 Bft)
20.08.2016 02:58 14,4 C 14,4 C 94 % 1012,7 hPa 0,0 mm 0,0 km/h (0 Bft) NO 38 0 min 0,000 mm 0,0 UV-I 0 W/m 13,4 C 0,0 km/h (0 Bft)
20.08.2016 02:59 14,4 C 14,4 C 94 % 1012,7 hPa 0,0 mm 0,0 km/h (0 Bft) NO 38 0 min 0,000 mm 0,0 UV-I 0 W/m 13,4 C 0,0 km/h (0 Bft)
20.08.2016 03:00 14,5 C 14,5 C 94 % 1012,7 hPa 0,0 mm 0,0 km/h (0 Bft) NO 38 0 min 0,000 mm 0,0 UV-I 0 W/m 13,5 C 0,0 km/h (0 Bft)
20.08.2016 03:01 14,5 C 14,6 C 94 % 1012,7 hPa 0,0 mm 0,0 km/h (0 Bft) NO 38 0 min 0,000 mm 0,0 UV-I 0 W/m 13,5 C 0,0 km/h (0 Bft)
20.08.2016 03:02 14,6 C 14,6 C 93 % 1012,7 hPa 0,0 mm 0,0 km/h (0 Bft) NO 38 0 min 0,000 mm 0,0 UV-I 0 W/m 13,5 C 0,0 km/h (0 Bft)
20.08.2016 03:03 14,7 C 14,7 C 93 % 1012,8 hPa 0,0 mm 0,0 km/h (0 Bft) NO 38 0 min 0,000 mm 0,0 UV-I 0 W/m 13,6 C 0,0 km/h (0 Bft)
20.08.2016 03:04 14,7 C 14,7 C 93 % 1012,7 hPa 0,0 mm 0,0 km/h (0 Bft) NO 38 0 min 0,000 mm 0,0 UV-I 0 W/m 13,6 C 0,0 km/h (0 Bft)
20.08.2016 03:05 14,7 C 14,7 C 93 % 1012,7 hPa 0,0 mm 0,0 km/h (0 Bft) NO 38 0 min 0,000 mm 0,0 UV-I 0 W/m 13,6 C 0,0 km/h (0 Bft)
20.08.2016 03:06 14,7 C 14,8 C 93 % 1012,7 hPa 0,0 mm 0,1 km/h (0 Bft) W-SW 258 0 min 0,000 mm 0,0 UV-I 0 W/m 13,6 C 3,2 km/h (1 Bft)
20.08.2016 03:07 14,8 C 14,8 C 92 % 1012,8 hPa 0,0 mm 1,1 km/h (1 Bft) W 260 0 min 0,000 mm 0,0 UV-I 0 W/m 13,5 C 3,2 km/h (1 Bft)
20.08.2016 03:08 14,9 C 14,9 C 92 % 1012,7 hPa 0,0 mm 0,0 km/h (0 Bft) W 260 0 min 0,000 mm 0,0 UV-I 0 W/m 13,6 C 0,0 km/h (0 Bft)
20.08.2016 03:09 15,0 C 15,0 C 92 % 1012,9 hPa 0,0 mm 0,8 km/h (0 Bft) W 268 0 min 0,000 mm 0,0 UV-I 0 W/m 13,7 C 3,2 km/h (1 Bft)
20.08.2016 03:10 15,1 C 15,1 C 91 % 1012,9 hPa 0,0 mm 0,8 km/h (0 Bft) W 268 0 min 0,000 mm 0,0 UV-I 0 W/m 13,6 C 1,6 km/h (1 Bft)
20.08.2016 03:11 15,1 C 15,1 C 91 % 1012,9 hPa 0,0 mm 0,1 km/h (0 Bft) W 268 0 min 0,000 mm 0,0 UV-I 0 W/m 13,6 C 1,6 km/h (1 Bft)
20.08.2016 03:12 15,1 C 15,2 C 91 % 1012,8 hPa 0,0 mm 0,0 km/h (0 Bft) W 268 0 min 0,000 mm 0,0 UV-I 0 W/m 13,6 C 0,0 km/h (0 Bft)
20.08.2016 03:13 15,1 C 15,1 C 91 % 1012,9 hPa 0,0 mm 0,1 km/h (0 Bft) W 268 0 min 0,000 mm 0,0 UV-I 0 W/m 13,6 C 1,6 km/h (1 Bft)
20.08.2016 03:14 15,1 C 15,1 C 91 % 1012,9 hPa 0,0 mm 0,1 km/h (0 Bft) W 268 0 min 0,000 mm 0,0 UV-I 0 W/m 13,6 C 1,6 km/h (1 Bft)
20.08.2016 03:15 15,1 C 15,1 C 91 % 1012,8 hPa 0,0 mm 0,0 km/h (0 Bft) W 268 0 min 0,000 mm 0,0 UV-I 0 W/m 13,6 C 0,0 km/h (0 Bft)
20.08.2016 03:16 15,1 C 15,1 C 91 % 1012,9 hPa 0,0 mm 0,9 km/h (0 Bft) W 268 0 min 0,000 mm 0,0 UV-I 0 W/m 13,6 C 1,6 km/h (1 Bft)
20.08.2016 03:17 15,1 C 15,1 C 91 % 1012,9 hPa 0,0 mm 0,7 km/h (0 Bft) W 268 0 min 0,000 mm 0,0 UV-I 0 W/m 13,6 C 1,6 km/h (1 Bft)
20.08.2016 03:18 15,1 C 15,1 C 91 % 1013,0 hPa 0,0 mm 1,2 km/h (1 Bft) W-NW 292 0 min 0,000 mm 0,0 UV-I 0 W/m 13,6 C 3,2 km/h (1 Bft)
20.08.2016 03:19 15,1 C 15,1 C 90 % 1013,0 hPa 0,0 mm 0,4 km/h (0 Bft) W-NW 292 0 min 0,000 mm 0,0 UV-I 0 W/m 13,5 C 1,6 km/h (1 Bft)
20.08.2016 03:20 15,1 C 15,1 C 91 % 1013,0 hPa 0,0 mm 0,6 km/h (0 Bft) W-NW 292 0 min 0,000 mm 0,0 UV-I 0 W/m 13,6 C 1,6 km/h (1 Bft)
20.08.2016 03:21 15,1 C 15,1 C 90 % 1013,0 hPa 0,0 mm 0,6 km/h (0 Bft) W-NW 292 0 min 0,000 mm 0,0 UV-I 0 W/m 13,5 C 1,6 km/h (1 Bft)
20.08.2016 03:22 15,2 C 15,2 C 90 % 1013,0 hPa 0,0 mm 0,3 km/h (0 Bft) W-NW 291 0 min 0,000 mm 0,0 UV-I 0 W/m 13,6 C 1,6 km/h (1 Bft)
20.08.2016 03:23 15,2 C 15,2 C 90 % 1013,0 hPa 0,0 mm 0,0 km/h (0 Bft) W-NW 292 0 min 0,000 mm 0,0 UV-I 0 W/m 13,6 C 0,0 km/h (0 Bft)
20.08.2016 03:24 15,2 C 15,2 C 90 % 1013,0 hPa 0,0 mm 0,8 km/h (0 Bft) W-NW 291 0 min 0,000 mm 0,0 UV-I 0 W/m 13,6 C 1,6 km/h (1 Bft)
20.08.2016 03:25 15,2 C 15,2 C 90 % 1013,0 hPa 0,0 mm 1,9 km/h (1 Bft) S-SO 164 0 min 0,000 mm 0,0 UV-I 0 W/m 13,6 C 3,2 km/h (1 Bft)
20.08.2016 03:26 15,2 C 15,2 C 90 % 1013,0 hPa 0,0 mm 1,3 km/h (1 Bft) S-SO 164 0 min 0,000 mm 0,0 UV-I 0 W/m 13,6 C 3,2 km/h (1 Bft)
20.08.2016 03:27 15,2 C 15,2 C 90 % 1013,0 hPa 0,0 mm 0,1 km/h (0 Bft) S-SO 164 0 min 0,000 mm 0,0 UV-I 0 W/m 13,6 C 1,6 km/h (1 Bft)
20.08.2016 03:28 15,2 C 15,2 C 90 % 1013,1 hPa 0,0 mm 0,0 km/h (0 Bft) S-SO 164 0 min 0,000 mm 0,0 UV-I 0 W/m 13,6 C 0,0 km/h (0 Bft)
20.08.2016 03:29 15,2 C 15,2 C 90 % 1013,1 hPa 0,0 mm 0,7 km/h (0 Bft) S-SO 164 0 min 0,000 mm 0,0 UV-I 0 W/m 13,6 C 1,6 km/h (1 Bft)
20.08.2016 03:30 15,3 C 15,3 C 89 % 1013,1 hPa 0,0 mm 1,0 km/h (0 Bft) S-SO 164 0 min 0,000 mm 0,0 UV-I 0 W/m 13,5 C 3,2 km/h (1 Bft)
20.08.2016 03:31 15,4 C 15,4 C 89 % 1013,2 hPa 0,0 mm 1,1 km/h (1 Bft) S-SO 164 0 min 0,000 mm 0,0 UV-I 0 W/m 13,6 C 1,6 km/h (1 Bft)
20.08.2016 03:32 15,4 C 15,4 C 89 % 1013,1 hPa 0,0 mm 1,4 km/h (1 Bft) S-SO 165 0 min 0,000 mm 0,0 UV-I 0 W/m 13,6 C 3,2 km/h (1 Bft)
20.08.2016 03:33 15,4 C 15,4 C 89 % 1013,1 hPa 0,0 mm 0,3 km/h (0 Bft) S-SO 165 0 min 0,000 mm 0,0 UV-I 0 W/m 13,6 C 1,6 km/h (1 Bft)
20.08.2016 03:34 15,4 C 15,4 C 89 % 1013,1 hPa 0,0 mm 0,4 km/h (0 Bft) S-SO 165 0 min 0,000 mm 0,0 UV-I 0 W/m 13,6 C 1,6 km/h (1 Bft)
20.08.2016 03:35 15,4 C 15,5 C 89 % 1013,1 hPa 0,0 mm 0,0 km/h (0 Bft) S-SO 165 0 min 0,000 mm 0,0 UV-I 0 W/m 13,6 C 0,0 km/h (0 Bft)
20.08.2016 03:36 15,4 C 15,4 C 89 % 1013,1 hPa 0,0 mm 0,0 km/h (0 Bft) S-SO 165 0 min 0,000 mm 0,0 UV-I 0 W/m 13,6 C 0,0 km/h (0 Bft)
20.08.2016 03:37 15,4 C 15,4 C 89 % 1013,2 hPa 0,0 mm 0,3 km/h (0 Bft) S-SO 165 0 min 0,000 mm 0,0 UV-I 0 W/m 13,6 C 1,6 km/h (1 Bft)
20.08.2016 03:38 15,4 C 15,4 C 89 % 1013,2 hPa 0,0 mm 0,0 km/h (0 Bft) S-SO 165 0 min 0,000 mm 0,0 UV-I 0 W/m 13,6 C 0,0 km/h (0 Bft)
20.08.2016 03:39 15,4 C 15,4 C 89 % 1013,2 hPa 0,0 mm 0,0 km/h (0 Bft) S-SO 165 0 min 0,000 mm 0,0 UV-I 0 W/m 13,6 C 0,0 km/h (0 Bft)
20.08.2016 03:40 15,4 C 15,4 C 89 % 1013,2 hPa 0,0 mm 0,0 km/h (0 Bft) S-SO 165 0 min 0,000 mm 0,0 UV-I 0 W/m 13,6 C 0,0 km/h (0 Bft)
20.08.2016 03:41 15,3 C 15,4 C 89 % 1013,1 hPa 0,0 mm 0,0 km/h (0 Bft) S-SO 165 0 min 0,000 mm 0,0 UV-I 0 W/m 13,5 C 0,0 km/h (0 Bft)
20.08.2016 03:42 15,3 C 15,3 C 89 % 1013,1 hPa 0,0 mm 0,0 km/h (0 Bft) S-SO 165 0 min 0,000 mm 0,0 UV-I 0 W/m 13,5 C 0,0 km/h (0 Bft)
20.08.2016 03:43 15,3 C 15,3 C 89 % 1013,2 hPa 0,0 mm 0,2 km/h (0 Bft) S-SO 165 0 min 0,000 mm 0,0 UV-I 0 W/m 13,5 C 1,6 km/h (1 Bft)
20.08.2016 03:44 15,3 C 15,3 C 88 % 1013,2 hPa 0,0 mm 1,1 km/h (1 Bft) S-SO 165 0 min 0,000 mm 0,0 UV-I 0 W/m 13,3 C 1,6 km/h (1 Bft)
20.08.2016 03:45 15,3 C 15,3 C 88 % 1013,2 hPa 0,0 mm 0,6 km/h (0 Bft) S 170 0 min 0,000 mm 0,0 UV-I 0 W/m 13,3 C 3,2 km/h (1 Bft)
20.08.2016 03:46 15,3 C 15,3 C 88 % 1013,2 hPa 0,0 mm 0,6 km/h (0 Bft) S 170 0 min 0,000 mm 0,0 UV-I 0 W/m 13,3 C 1,6 km/h (1 Bft)
20.08.2016 03:47 15,4 C 15,4 C 87 % 1013,2 hPa 0,0 mm 0,2 km/h (0 Bft) S 170 0 min 0,000 mm 0,0 UV-I 0 W/m 13,2 C 1,6 km/h (1 Bft)
20.08.2016 03:48 15,4 C 15,4 C 87 % 1013,2 hPa 0,0 mm 1,3 km/h (1 Bft) S 170 0 min 0,000 mm 0,0 UV-I 0 W/m 13,2 C 3,2 km/h (1 Bft)
20.08.2016 03:49 15,4 C 15,4 C 87 % 1013,2 hPa 0,0 mm 2,3 km/h (1 Bft) S-SW 213 0 min 0,000 mm 0,0 UV-I 0 W/m 13,2 C 3,2 km/h (1 Bft)
20.08.2016 03:50 15,4 C 15,4 C 87 % 1013,2 hPa 0,0 mm 2,5 km/h (1 Bft) SW 217 0 min 0,000 mm 0,0 UV-I 0 W/m 13,2 C 3,2 km/h (1 Bft)
20.08.2016 03:51 15,4 C 15,4 C 87 % 1013,2 hPa 0,0 mm 0,9 km/h (0 Bft) SW 217 0 min 0,000 mm 0,0 UV-I 0 W/m 13,2 C 3,2 km/h (1 Bft)
20.08.2016 03:52 15,4 C 15,4 C 87 % 1013,2 hPa 0,0 mm 0,3 km/h (0 Bft) SW 217 0 min 0,000 mm 0,0 UV-I 0 W/m 13,2 C 1,6 km/h (1 Bft)
20.08.2016 03:53 15,3 C 15,4 C 88 % 1013,2 hPa 0,0 mm 0,1 km/h (0 Bft) SW 217 0 min 0,000 mm 0,0 UV-I 0 W/m 13,3 C 1,6 km/h (1 Bft)
20.08.2016 03:54 15,3 C 15,3 C 88 % 1013,2 hPa 0,0 mm 0,0 km/h (0 Bft) SW 217 0 min 0,000 mm 0,0 UV-I 0 W/m 13,3 C 0,0 km/h (0 Bft)
20.08.2016 03:55 15,2 C 15,3 C 88 % 1013,2 hPa 0,0 mm 0,2 km/h (0 Bft) SW 217 0 min 0,000 mm 0,0 UV-I 0 W/m 13,2 C 1,6 km/h (1 Bft)
20.08.2016 03:56 15,2 C 15,2 C 88 % 1013,3 hPa 0,0 mm 0,9 km/h (0 Bft) SW 217 0 min 0,000 mm 0,0 UV-I 0 W/m 13,2 C 1,6 km/h (1 Bft)
20.08.2016 03:57 15,1 C 15,2 C 88 % 1013,3 hPa 0,0 mm 0,2 km/h (0 Bft) SW 217 0 min 0,000 mm 0,0 UV-I 0 W/m 13,1 C 1,6 km/h (1 Bft)
20.08.2016 03:58 15,1 C 15,1 C 88 % 1013,2 hPa 0,0 mm 0,0 km/h (0 Bft) SW 217 0 min 0,000 mm 0,0 UV-I 0 W/m 13,1 C 0,0 km/h (0 Bft)
20.08.2016 03:59 15,0 C 15,1 C 89 % 1013,2 hPa 0,0 mm 0,0 km/h (0 Bft) SW 217 0 min 0,000 mm 0,0 UV-I 0 W/m 13,2 C 0,0 km/h (0 Bft)
20.08.2016 04:00 15,0 C 15,1 C 89 % 1013,1 hPa 0,0 mm 0,0 km/h (0 Bft) SW 217 0 min 0,000 mm 0,0 UV-I 0 W/m 13,2 C 0,0 km/h (0 Bft)
20.08.2016 04:01 15,0 C 15,0 C 89 % 1013,1 hPa 0,0 mm 0,1 km/h (0 Bft) SW 217 0 min 0,000 mm 0,0 UV-I 0 W/m 13,2 C 1,6 km/h (1 Bft)
20.08.2016 04:02 14,9 C 15,0 C 89 % 1013,1 hPa 0,0 mm 0,1 km/h (0 Bft) SW 217 0 min 0,000 mm 0,0 UV-I 0 W/m 13,1 C 1,6 km/h (1 Bft)
20.08.2016 04:03 14,9 C 14,9 C 89 % 1013,1 hPa 0,0 mm 0,0 km/h (0 Bft) SW 217 0 min 0,000 mm 0,0 UV-I 0 W/m 13,1 C 0,0 km/h (0 Bft)
20.08.2016 04:04 14,9 C 14,9 C 89 % 1013,1 hPa 0,0 mm 0,0 km/h (0 Bft) SW 217 0 min 0,000 mm 0,0 UV-I 0 W/m 13,1 C 0,0 km/h (0 Bft)
20.08.2016 04:05 14,8 C 14,9 C 89 % 1013,2 hPa 0,0 mm 0,7 km/h (0 Bft) SW 217 0 min 0,000 mm 0,0 UV-I 0 W/m 13,0 C 1,6 km/h (1 Bft)
20.08.2016 04:06 14,8 C 14,8 C 89 % 1013,1 hPa 0,0 mm 0,0 km/h (0 Bft) SW 217 0 min 0,000 mm 0,0 UV-I 0 W/m 13,0 C 0,0 km/h (0 Bft)
20.08.2016 04:07 14,8 C 14,8 C 89 % 1013,1 hPa 0,0 mm 0,1 km/h (0 Bft) SW 217 0 min 0,000 mm 0,0 UV-I 0 W/m 13,0 C 1,6 km/h (1 Bft)
20.08.2016 04:08 14,7 C 14,8 C 90 % 1013,1 hPa 0,0 mm 0,5 km/h (0 Bft) SW 217 0 min 0,000 mm 0,0 UV-I 0 W/m 13,1 C 1,6 km/h (1 Bft)
20.08.2016 04:09 14,7 C 14,8 C 90 % 1013,2 hPa 0,0 mm 0,0 km/h (0 Bft) SW 217 0 min 0,000 mm 0,0 UV-I 0 W/m 13,1 C 0,0 km/h (0 Bft)
20.08.2016 04:10 14,7 C 14,7 C 90 % 1013,1 hPa 0,0 mm 0,0 km/h (0 Bft) SW 217 0 min 0,000 mm 0,0 UV-I 0 W/m 13,1 C 0,0 km/h (0 Bft)
20.08.2016 04:11 14,7 C 14,7 C 90 % 1013,2 hPa 0,0 mm 0,7 km/h (0 Bft) SW 217 0 min 0,000 mm 0,0 UV-I 0 W/m 13,1 C 1,6 km/h (1 Bft)
20.08.2016 04:12 14,7 C 14,7 C 90 % 1013,2 hPa 0,0 mm 0,4 km/h (0 Bft) SW 217 0 min 0,000 mm 0,0 UV-I 0 W/m 13,1 C 1,6 km/h (1 Bft)
20.08.2016 04:13 14,7 C 14,7 C 90 % 1013,2 hPa 0,0 mm 0,3 km/h (0 Bft) SW 217 0 min 0,000 mm 0,0 UV-I 0 W/m 13,1 C 1,6 km/h (1 Bft)
20.08.2016 04:14 14,7 C 14,7 C 90 % 1013,2 hPa 0,0 mm 0,4 km/h (0 Bft) SW 217 0 min 0,000 mm 0,0 UV-I 0 W/m 13,1 C 1,6 km/h (1 Bft)
20.08.2016 04:15 14,7 C 14,7 C 90 % 1013,1 hPa 0,0 mm 0,0 km/h (0 Bft) SW 217 0 min 0,000 mm 0,0 UV-I 0 W/m 13,1 C 0,0 km/h (0 Bft)
20.08.2016 04:16 14,7 C 14,7 C 90 % 1013,1 hPa 0,0 mm 0,0 km/h (0 Bft) SW 217 0 min 0,000 mm 0,0 UV-I 0 W/m 13,1 C 0,0 km/h (0 Bft)
20.08.2016 04:17 14,7 C 14,7 C 90 % 1013,1 hPa 0,0 mm 0,3 km/h (0 Bft) SW 217 0 min 0,000 mm 0,0 UV-I 0 W/m 13,1 C 1,6 km/h (1 Bft)
20.08.2016 04:18 14,7 C 14,7 C 91 % 1013,0 hPa 0,0 mm 0,9 km/h (0 Bft) SW 217 0 min 0,000 mm 0,0 UV-I 0 W/m 13,2 C 1,6 km/h (1 Bft)
20.08.2016 04:19 14,7 C 14,7 C 91 % 1013,0 hPa 0,0 mm 0,1 km/h (0 Bft) SW 217 0 min 0,000 mm 0,0 UV-I 0 W/m 13,2 C 1,6 km/h (1 Bft)
20.08.2016 04:20 14,7 C 14,7 C 91 % 1013,0 hPa 0,0 mm 0,0 km/h (0 Bft) SW 217 0 min 0,000 mm 0,0 UV-I 0 W/m 13,2 C 0,0 km/h (0 Bft)
20.08.2016 04:21 14,7 C 14,7 C 91 % 1012,9 hPa 0,0 mm 0,0 km/h (0 Bft) SW 217 0 min 0,000 mm 0,0 UV-I 0 W/m 13,2 C 0,0 km/h (0 Bft)
20.08.2016 04:22 14,7 C 14,7 C 90 % 1013,0 hPa 0,0 mm 0,0 km/h (0 Bft) SW 217 0 min 0,000 mm 0,0 UV-I 0 W/m 13,1 C 0,0 km/h (0 Bft)
20.08.2016 04:23 14,7 C 14,7 C 90 % 1013,0 hPa 0,0 mm 0,0 km/h (0 Bft) SW 217 0 min 0,000 mm 0,0 UV-I 0 W/m 13,1 C 0,0 km/h (0 Bft)
20.08.2016 04:24 14,8 C 14,8 C 90 % 1013,0 hPa 0,0 mm 0,0 km/h (0 Bft) SW 217 0 min 0,000 mm 0,0 UV-I 0 W/m 13,2 C 0,0 km/h (0 Bft)
20.08.2016 04:25 14,7 C 14,8 C 90 % 1013,0 hPa 0,0 mm 0,0 km/h (0 Bft) SW 217 0 min 0,000 mm 0,0 UV-I 0 W/m 13,1 C 0,0 km/h (0 Bft)
20.08.2016 04:26 14,7 C 14,7 C 90 % 1013,0 hPa 0,0 mm 0,0 km/h (0 Bft) SW 217 0 min 0,000 mm 0,0 UV-I 0 W/m 13,1 C 0,0 km/h (0 Bft)
20.08.2016 04:27 14,7 C 14,7 C 90 % 1013,0 hPa 0,0 mm 0,0 km/h (0 Bft) SW 217 0 min 0,000 mm 0,0 UV-I 0 W/m 13,1 C 0,0 km/h (0 Bft)
20.08.2016 04:28 14,7 C 14,7 C 90 % 1013,1 hPa 0,0 mm 0,0 km/h (0 Bft) SW 217 0 min 0,000 mm 0,0 UV-I 0 W/m 13,1 C 0,0 km/h (0 Bft)
20.08.2016 04:29 14,7 C 14,7 C 90 % 1013,0 hPa 0,0 mm 3,2 km/h (1 Bft) W-NW 288 0 min 0,000 mm 0,0 UV-I 0 W/m 13,1 C 4,8 km/h (1 Bft)
20.08.2016 04:30 14,8 C 14,8 C 90 % 1013,1 hPa 0,0 mm 2,1 km/h (1 Bft) W 263 0 min 0,000 mm 0,0 UV-I 0 W/m 13,2 C 3,2 km/h (1 Bft)
20.08.2016 04:31 14,8 C 14,8 C 89 % 1013,1 hPa 0,0 mm 0,7 km/h (0 Bft) W 263 0 min 0,000 mm 0,0 UV-I 0 W/m 13,0 C 1,6 km/h (1 Bft)
20.08.2016 04:32 14,8 C 14,8 C 89 % 1013,1 hPa 0,0 mm 1,2 km/h (1 Bft) NW 306 0 min 0,000 mm 0,0 UV-I 0 W/m 13,0 C 1,6 km/h (1 Bft)
20.08.2016 04:33 14,8 C 14,8 C 89 % 1013,2 hPa 0,0 mm 0,2 km/h (0 Bft) NW 306 0 min 0,000 mm 0,0 UV-I 0 W/m 13,0 C 1,6 km/h (1 Bft)
20.08.2016 04:34 14,8 C 14,8 C 88 % 1013,2 hPa 0,0 mm 0,0 km/h (0 Bft) NW 306 0 min 0,000 mm 0,0 UV-I 0 W/m 12,8 C 0,0 km/h (0 Bft)
20.08.2016 04:35 14,8 C 14,8 C 88 % 1013,2 hPa 0,0 mm 0,0 km/h (0 Bft) NW 306 0 min 0,000 mm 0,0 UV-I 0 W/m 12,8 C 0,0 km/h (0 Bft)
20.08.2016 04:36 14,7 C 14,8 C 88 % 1013,3 hPa 0,0 mm 0,0 km/h (0 Bft) NW 306 0 min 0,000 mm 0,0 UV-I 0 W/m 12,7 C 0,0 km/h (0 Bft)
20.08.2016 04:37 14,7 C 14,7 C 88 % 1013,2 hPa 0,0 mm 0,0 km/h (0 Bft) NW 306 0 min 0,000 mm 0,0 UV-I 0 W/m 12,7 C 0,0 km/h (0 Bft)
20.08.2016 04:38 14,7 C 14,7 C 89 % 1013,3 hPa 0,0 mm 0,9 km/h (0 Bft) NW 306 0 min 0,000 mm 0,0 UV-I 0 W/m 12,9 C 3,2 km/h (1 Bft)
20.08.2016 04:39 14,7 C 14,7 C 89 % 1013,3 hPa 0,0 mm 0,5 km/h (0 Bft) NW 306 0 min 0,000 mm 0,0 UV-I 0 W/m 12,9 C 1,6 km/h (1 Bft)
20.08.2016 04:40 14,6 C 14,7 C 90 % 1013,3 hPa 0,0 mm 0,2 km/h (0 Bft) NW 306 0 min 0,000 mm 0,0 UV-I 0 W/m 13,0 C 1,6 km/h (1 Bft)
20.08.2016 04:41 14,6 C 14,6 C 90 % 1013,2 hPa 0,0 mm 0,0 km/h (0 Bft) NW 306 0 min 0,000 mm 0,0 UV-I 0 W/m 13,0 C 0,0 km/h (0 Bft)
20.08.2016 04:42 14,6 C 14,6 C 90 % 1013,2 hPa 0,0 mm 0,1 km/h (0 Bft) NW 306 0 min 0,000 mm 0,0 UV-I 0 W/m 13,0 C 1,6 km/h (1 Bft)
20.08.2016 04:43 14,6 C 14,6 C 90 % 1013,2 hPa 0,0 mm 0,3 km/h (0 Bft) NW 306 0 min 0,000 mm 0,0 UV-I 0 W/m 13,0 C 1,6 km/h (1 Bft)
20.08.2016 04:44 14,6 C 14,6 C 89 % 1013,3 hPa 0,0 mm 0,0 km/h (0 Bft) NW 306 0 min 0,000 mm 0,0 UV-I 0 W/m 12,8 C 0,0 km/h (0 Bft)
20.08.2016 04:45 14,6 C 14,6 C 89 % 1013,2 hPa 0,0 mm 0,0 km/h (0 Bft) NW 306 0 min 0,000 mm 0,0 UV-I 0 W/m 12,8 C 0,0 km/h (0 Bft)
20.08.2016 04:46 14,6 C 14,6 C 90 % 1013,3 hPa 0,0 mm 0,0 km/h (0 Bft) NW 306 0 min 0,000 mm 0,0 UV-I 0 W/m 13,0 C 0,0 km/h (0 Bft)
20.08.2016 04:47 14,5 C 14,6 C 90 % 1013,2 hPa 0,0 mm 1,1 km/h (1 Bft) NW 306 0 min 0,000 mm 0,0 UV-I 0 W/m 12,9 C 3,2 km/h (1 Bft)
20.08.2016 04:48 14,4 C 14,5 C 90 % 1013,2 hPa 0,0 mm 0,2 km/h (0 Bft) NW 306 0 min 0,000 mm 0,0 UV-I 0 W/m 12,8 C 1,6 km/h (1 Bft)
20.08.2016 04:49 14,4 C 14,4 C 90 % 1013,2 hPa 0,0 mm 0,0 km/h (0 Bft) NW 306 0 min 0,000 mm 0,0 UV-I 0 W/m 12,8 C 0,0 km/h (0 Bft)
20.08.2016 04:50 14,4 C 14,4 C 90 % 1013,2 hPa 0,0 mm 0,0 km/h (0 Bft) NW 306 0 min 0,000 mm 0,0 UV-I 0 W/m 12,8 C 0,0 km/h (0 Bft)
20.08.2016 04:51 14,4 C 14,4 C 90 % 1013,2 hPa 0,0 mm 0,0 km/h (0 Bft) NW 306 0 min 0,000 mm 0,0 UV-I 0 W/m 12,8 C 0,0 km/h (0 Bft)
20.08.2016 04:52 14,4 C 14,5 C 90 % 1013,2 hPa 0,0 mm 0,0 km/h (0 Bft) NW 306 0 min 0,000 mm 0,0 UV-I 0 W/m 12,8 C 0,0 km/h (0 Bft)
20.08.2016 04:53 14,4 C 14,4 C 90 % 1013,2 hPa 0,0 mm 0,0 km/h (0 Bft) NW 306 0 min 0,000 mm 0,0 UV-I 0 W/m 12,8 C 0,0 km/h (0 Bft)
20.08.2016 04:54 14,4 C 14,5 C 90 % 1013,2 hPa 0,0 mm 0,0 km/h (0 Bft) NW 306 0 min 0,000 mm 0,0 UV-I 0 W/m 12,8 C 0,0 km/h (0 Bft)
20.08.2016 04:55 14,4 C 14,4 C 91 % 1013,2 hPa 0,0 mm 0,7 km/h (0 Bft) NW 306 0 min 0,000 mm 0,0 UV-I 0 W/m 12,9 C 1,6 km/h (1 Bft)
20.08.2016 04:56 14,4 C 14,4 C 91 % 1013,2 hPa 0,0 mm 0,1 km/h (0 Bft) NW 306 0 min 0,000 mm 0,0 UV-I 0 W/m 12,9 C 1,6 km/h (1 Bft)
20.08.2016 04:57 14,4 C 14,4 C 91 % 1013,2 hPa 0,0 mm 0,9 km/h (0 Bft) NW 306 0 min 0,000 mm 0,0 UV-I 0 W/m 12,9 C 1,6 km/h (1 Bft)
20.08.2016 04:58 14,4 C 14,4 C 90 % 1013,2 hPa 0,0 mm 0,1 km/h (0 Bft) NW 306 0 min 0,000 mm 0,0 UV-I 0 W/m 12,8 C 1,6 km/h (1 Bft)
20.08.2016 04:59 14,4 C 14,4 C 90 % 1013,3 hPa 0,0 mm 0,0 km/h (0 Bft) NW 306 0 min 0,000 mm 0,0 UV-I 0 W/m 12,8 C 0,0 km/h (0 Bft)
20.08.2016 05:00 14,4 C 14,4 C 90 % 1013,3 hPa 0,0 mm 0,0 km/h (0 Bft) NW 306 0 min 0,000 mm 0,0 UV-I 0 W/m 12,8 C 0,0 km/h (0 Bft)
20.08.2016 05:01 14,4 C 14,4 C 90 % 1013,3 hPa 0,0 mm 0,0 km/h (0 Bft) NW 306 0 min 0,000 mm 0,0 UV-I 0 W/m 12,8 C 0,0 km/h (0 Bft)
20.08.2016 05:02 14,4 C 14,4 C 90 % 1013,3 hPa 0,0 mm 0,0 km/h (0 Bft) NW 306 0 min 0,000 mm 0,0 UV-I 0 W/m 12,8 C 0,0 km/h (0 Bft)
20.08.2016 05:03 14,4 C 14,4 C 90 % 1013,3 hPa 0,0 mm 0,0 km/h (0 Bft) NW 306 0 min 0,000 mm 0,0 UV-I 0 W/m 12,8 C 0,0 km/h (0 Bft)
20.08.2016 05:04 14,4 C 14,4 C 90 % 1013,3 hPa 0,0 mm 0,0 km/h (0 Bft) NW 306 0 min 0,000 mm 0,0 UV-I 0 W/m 12,8 C 0,0 km/h (0 Bft)
20.08.2016 05:05 14,4 C 14,4 C 91 % 1013,3 hPa 0,0 mm 0,0 km/h (0 Bft) NW 306 0 min 0,000 mm 0,0 UV-I 0 W/m 12,9 C 0,0 km/h (0 Bft)
20.08.2016 05:06 14,4 C 14,4 C 91 % 1013,2 hPa 0,0 mm 0,9 km/h (0 Bft) NW 306 0 min 0,000 mm 0,0 UV-I 0 W/m 12,9 C 3,2 km/h (1 Bft)
20.08.2016 05:07 14,4 C 14,4 C 89 % 1013,2 hPa 0,0 mm 0,1 km/h (0 Bft) NW 306 0 min 0,000 mm 0,0 UV-I 0 W/m 12,6 C 1,6 km/h (1 Bft)
20.08.2016 05:08 14,5 C 14,5 C 89 % 1013,2 hPa 0,0 mm 0,0 km/h (0 Bft) NW 306 0 min 0,000 mm 0,0 UV-I 0 W/m 12,7 C 0,0 km/h (0 Bft)
20.08.2016 05:09 14,5 C 14,5 C 90 % 1013,2 hPa 0,0 mm 0,0 km/h (0 Bft) NW 306 0 min 0,000 mm 0,0 UV-I 0 W/m 12,9 C 0,0 km/h (0 Bft)
20.08.2016 05:10 14,6 C 14,6 C 89 % 1013,3 hPa 0,0 mm 0,0 km/h (0 Bft) W 279 0 min 0,000 mm 0,0 UV-I 0 W/m 12,8 C 0,0 km/h (0 Bft)
20.08.2016 05:11 14,6 C 14,6 C 89 % 1013,3 hPa 0,0 mm 0,0 km/h (0 Bft) W 279 0 min 0,000 mm 0,0 UV-I 0 W/m 12,8 C 0,0 km/h (0 Bft)
20.08.2016 05:12 14,6 C 14,6 C 88 % 1013,3 hPa 0,0 mm 0,0 km/h (0 Bft) W-NW 290 0 min 0,000 mm 0,0 UV-I 0 W/m 12,6 C 0,0 km/h (0 Bft)
20.08.2016 05:13 14,6 C 14,6 C 89 % 1013,3 hPa 0,0 mm 0,0 km/h (0 Bft) W-NW 290 0 min 0,000 mm 0,0 UV-I 0 W/m 12,8 C 0,0 km/h (0 Bft)
20.08.2016 05:14 14,6 C 14,6 C 90 % 1013,3 hPa 0,0 mm 0,0 km/h (0 Bft) W-NW 290 0 min 0,000 mm 0,0 UV-I 0 W/m 13,0 C 0,0 km/h (0 Bft)
20.08.2016 05:15 14,6 C 14,6 C 89 % 1013,4 hPa 0,0 mm 0,0 km/h (0 Bft) W-NW 290 0 min 0,000 mm 0,0 UV-I 0 W/m 12,8 C 0,0 km/h (0 Bft)
20.08.2016 05:16 14,5 C 14,6 C 89 % 1013,4 hPa 0,0 mm 0,0 km/h (0 Bft) W-NW 290 0 min 0,000 mm 0,0 UV-I 0 W/m 12,7 C 0,0 km/h (0 Bft)
20.08.2016 05:17 14,5 C 14,5 C 89 % 1013,4 hPa 0,0 mm 0,0 km/h (0 Bft) W-NW 290 0 min 0,000 mm 0,0 UV-I 0 W/m 12,7 C 0,0 km/h (0 Bft)
20.08.2016 05:18 14,5 C 14,5 C 90 % 1013,4 hPa 0,0 mm 0,0 km/h (0 Bft) W-NW 290 0 min 0,000 mm 0,0 UV-I 0 W/m 12,9 C 0,0 km/h (0 Bft)
20.08.2016 05:19 14,4 C 14,5 C 90 % 1013,3 hPa 0,0 mm 0,0 km/h (0 Bft) W-NW 290 0 min 0,000 mm 0,0 UV-I 0 W/m 12,8 C 0,0 km/h (0 Bft)
20.08.2016 05:20 14,4 C 14,4 C 90 % 1013,4 hPa 0,0 mm 0,0 km/h (0 Bft) W-NW 290 0 min 0,000 mm 0,0 UV-I 0 W/m 12,8 C 0,0 km/h (0 Bft)
20.08.2016 05:21 14,4 C 14,4 C 90 % 1013,3 hPa 0,0 mm 0,0 km/h (0 Bft) W-NW 290 0 min 0,000 mm 0,0 UV-I 0 W/m 12,8 C 0,0 km/h (0 Bft)
20.08.2016 05:22 14,4 C 14,4 C 90 % 1013,3 hPa 0,0 mm 0,0 km/h (0 Bft) W-NW 290 0 min 0,000 mm 0,0 UV-I 0 W/m 12,8 C 0,0 km/h (0 Bft)
20.08.2016 05:23 14,4 C 14,4 C 90 % 1013,3 hPa 0,0 mm 0,0 km/h (0 Bft) W-NW 290 0 min 0,000 mm 0,0 UV-I 0 W/m 12,8 C 0,0 km/h (0 Bft)
20.08.2016 05:24 14,4 C 14,4 C 90 % 1013,2 hPa 0,0 mm 0,0 km/h (0 Bft) W-NW 290 0 min 0,000 mm 0,0 UV-I 0 W/m 12,8 C 0,0 km/h (0 Bft)
20.08.2016 05:25 14,3 C 14,4 C 90 % 1013,2 hPa 0,0 mm 0,0 km/h (0 Bft) W-NW 290 0 min 0,000 mm 0,0 UV-I 0 W/m 12,7 C 0,0 km/h (0 Bft)
20.08.2016 05:26 14,4 C 14,4 C 90 % 1013,3 hPa 0,0 mm 0,0 km/h (0 Bft) W-NW 290 0 min 0,000 mm 0,0 UV-I 0 W/m 12,8 C 0,0 km/h (0 Bft)
20.08.2016 05:27 14,3 C 14,4 C 90 % 1013,2 hPa 0,0 mm 0,0 km/h (0 Bft) W-NW 290 0 min 0,000 mm 0,0 UV-I 0 W/m 12,7 C 0,0 km/h (0 Bft)
20.08.2016 05:28 14,3 C 14,3 C 90 % 1013,2 hPa 0,0 mm 0,0 km/h (0 Bft) W-NW 290 0 min 0,000 mm 0,0 UV-I 0 W/m 12,7 C 0,0 km/h (0 Bft)
20.08.2016 05:29 14,3 C 14,3 C 90 % 1013,2 hPa 0,0 mm 0,0 km/h (0 Bft) W-NW 290 0 min 0,000 mm 0,0 UV-I 0 W/m 12,7 C 0,0 km/h (0 Bft)
20.08.2016 05:30 14,3 C 14,3 C 90 % 1013,1 hPa 0,0 mm 0,0 km/h (0 Bft) W-NW 290 0 min 0,000 mm 0,0 UV-I 0 W/m 12,7 C 0,0 km/h (0 Bft)
20.08.2016 05:31 14,3 C 14,3 C 90 % 1013,2 hPa 0,0 mm 0,0 km/h (0 Bft) W-NW 290 0 min 0,000 mm 0,0 UV-I 0 W/m 12,7 C 0,0 km/h (0 Bft)
20.08.2016 05:32 14,3 C 14,3 C 90 % 1013,1 hPa 0,0 mm 0,0 km/h (0 Bft) W-NW 290 0 min 0,000 mm 0,0 UV-I 0 W/m 12,7 C 0,0 km/h (0 Bft)
20.08.2016 05:33 14,3 C 14,3 C 90 % 1013,1 hPa 0,0 mm 0,0 km/h (0 Bft) W-NW 290 0 min 0,000 mm 0,0 UV-I 0 W/m 12,7 C 0,0 km/h (0 Bft)
20.08.2016 05:34 14,3 C 14,3 C 90 % 1013,2 hPa 0,0 mm 0,0 km/h (0 Bft) W-NW 290 0 min 0,000 mm 0,0 UV-I 0 W/m 12,7 C 0,0 km/h (0 Bft)
20.08.2016 05:35 14,3 C 14,3 C 90 % 1013,1 hPa 0,0 mm 0,0 km/h (0 Bft) W-NW 290 0 min 0,000 mm 0,0 UV-I 0 W/m 12,7 C 0,0 km/h (0 Bft)
20.08.2016 05:36 14,3 C 14,3 C 90 % 1013,1 hPa 0,0 mm 0,0 km/h (0 Bft) W-NW 290 0 min 0,000 mm 0,0 UV-I 0 W/m 12,7 C 0,0 km/h (0 Bft)
20.08.2016 05:37 14,3 C 14,3 C 90 % 1013,2 hPa 0,0 mm 0,0 km/h (0 Bft) W-NW 290 0 min 0,000 mm 0,0 UV-I 0 W/m 12,7 C 0,0 km/h (0 Bft)
20.08.2016 05:38 14,3 C 14,3 C 90 % 1013,0 hPa 0,0 mm 0,0 km/h (0 Bft) W-NW 290 0 min 0,000 mm 0,0 UV-I 0 W/m 12,7 C 0,0 km/h (0 Bft)
20.08.2016 05:39 14,3 C 14,3 C 90 % 1013,2 hPa 0,0 mm 0,0 km/h (0 Bft) W-NW 290 0 min 0,000 mm 0,0 UV-I 0 W/m 12,7 C 0,0 km/h (0 Bft)
20.08.2016 05:40 14,3 C 14,3 C 90 % 1013,1 hPa 0,0 mm 0,0 km/h (0 Bft) W-NW 290 0 min 0,000 mm 0,0 UV-I 0 W/m 12,7 C 0,0 km/h (0 Bft)
20.08.2016 05:41 14,3 C 14,3 C 90 % 1013,1 hPa 0,0 mm 0,0 km/h (0 Bft) W-NW 290 0 min 0,000 mm 0,0 UV-I 0 W/m 12,7 C 0,0 km/h (0 Bft)
20.08.2016 05:42 14,3 C 14,3 C 90 % 1013,1 hPa 0,0 mm 0,0 km/h (0 Bft) W-NW 290 0 min 0,000 mm 0,0 UV-I 0 W/m 12,7 C 0,0 km/h (0 Bft)
20.08.2016 05:43 14,3 C 14,3 C 90 % 1013,1 hPa 0,0 mm 0,0 km/h (0 Bft) W-NW 290 0 min 0,000 mm 0,0 UV-I 0 W/m 12,7 C 0,0 km/h (0 Bft)
20.08.2016 05:44 14,3 C 14,3 C 90 % 1013,2 hPa 0,0 mm 0,0 km/h (0 Bft) W-NW 290 0 min 0,000 mm 0,0 UV-I 0 W/m 12,7 C 0,0 km/h (0 Bft)
20.08.2016 05:45 14,3 C 14,3 C 90 % 1013,1 hPa 0,0 mm 0,0 km/h (0 Bft) W-NW 290 0 min 0,000 mm 0,0 UV-I 0 W/m 12,7 C 0,0 km/h (0 Bft)
20.08.2016 05:46 14,3 C 14,3 C 90 % 1013,1 hPa 0,0 mm 0,0 km/h (0 Bft) W-NW 290 0 min 0,000 mm 0,0 UV-I 0 W/m 12,7 C 0,0 km/h (0 Bft)
20.08.2016 05:47 14,3 C 14,4 C 90 % 1013,1 hPa 0,0 mm 0,0 km/h (0 Bft) W-NW 290 0 min 0,000 mm 0,0 UV-I 0 W/m 12,7 C 0,0 km/h (0 Bft)
20.08.2016 05:48 14,3 C 14,4 C 90 % 1013,1 hPa 0,0 mm 0,0 km/h (0 Bft) W-NW 290 0 min 0,000 mm 0,0 UV-I 0 W/m 12,7 C 0,0 km/h (0 Bft)
20.08.2016 05:49 14,3 C 14,3 C 90 % 1013,1 hPa 0,0 mm 0,0 km/h (0 Bft) W-NW 290 0 min 0,000 mm 0,0 UV-I 0 W/m 12,7 C 0,0 km/h (0 Bft)
20.08.2016 05:50 14,3 C 14,3 C 89 % 1013,1 hPa 0,0 mm 0,0 km/h (0 Bft) W-NW 290 0 min 0,000 mm 0,0 UV-I 0 W/m 12,5 C 0,0 km/h (0 Bft)
20.08.2016 05:51 14,3 C 14,3 C 89 % 1013,1 hPa 0,0 mm 0,0 km/h (0 Bft) W-NW 290 0 min 0,000 mm 0,0 UV-I 0 W/m 12,5 C 0,0 km/h (0 Bft)
20.08.2016 05:52 14,4 C 14,4 C 89 % 1013,1 hPa 0,0 mm 0,0 km/h (0 Bft) W-NW 290 0 min 0,000 mm 0,0 UV-I 0 W/m 12,6 C 0,0 km/h (0 Bft)
20.08.2016 05:53 14,4 C 14,4 C 88 % 1013,1 hPa 0,0 mm 0,0 km/h (0 Bft) W-NW 290 0 min 0,000 mm 0,0 UV-I 0 W/m 12,4 C 0,0 km/h (0 Bft)
20.08.2016 05:54 14,4 C 14,4 C 88 % 1013,1 hPa 0,0 mm 0,0 km/h (0 Bft) W-NW 290 0 min 0,000 mm 0,0 UV-I 0 W/m 12,4 C 0,0 km/h (0 Bft)
20.08.2016 05:55 14,4 C 14,4 C 88 % 1013,1 hPa 0,0 mm 0,0 km/h (0 Bft) W-NW 290 0 min 0,000 mm 0,0 UV-I 0 W/m 12,4 C 0,0 km/h (0 Bft)
20.08.2016 05:56 14,4 C 14,4 C 88 % 1013,1 hPa 0,0 mm 0,0 km/h (0 Bft) W-NW 290 0 min 0,000 mm 0,0 UV-I 0 W/m 12,4 C 0,0 km/h (0 Bft)
20.08.2016 05:57 14,4 C 14,4 C 88 % 1013,1 hPa 0,0 mm 0,0 km/h (0 Bft) W-NW 290 0 min 0,000 mm 0,0 UV-I 0 W/m 12,4 C 0,0 km/h (0 Bft)
20.08.2016 05:58 14,4 C 14,5 C 89 % 1013,1 hPa 0,0 mm 0,0 km/h (0 Bft) W-NW 290 0 min 0,000 mm 0,0 UV-I 0 W/m 12,6 C 0,0 km/h (0 Bft)
20.08.2016 05:59 14,4 C 14,4 C 88 % 1013,1 hPa 0,0 mm 0,0 km/h (0 Bft) W-NW 290 0 min 0,000 mm 0,0 UV-I 0 W/m 12,4 C 0,0 km/h (0 Bft)
20.08.2016 06:00 14,4 C 14,4 C 88 % 1013,2 hPa 0,0 mm 0,0 km/h (0 Bft) W-NW 290 0 min 0,000 mm 0,0 UV-I 0 W/m 12,4 C 0,0 km/h (0 Bft)
20.08.2016 06:01 14,4 C 14,4 C 88 % 1013,1 hPa 0,0 mm 0,0 km/h (0 Bft) W-NW 290 0 min 0,000 mm 0,0 UV-I 0 W/m 12,4 C 0,0 km/h (0 Bft)
20.08.2016 06:02 14,4 C 14,4 C 88 % 1013,1 hPa 0,0 mm 0,0 km/h (0 Bft) W-NW 290 0 min 0,000 mm 0,0 UV-I 0 W/m 12,4 C 0,0 km/h (0 Bft)
20.08.2016 06:03 14,3 C 14,4 C 88 % 1013,2 hPa 0,0 mm 0,0 km/h (0 Bft) W-NW 290 0 min 0,000 mm 0,0 UV-I 0 W/m 12,3 C 0,0 km/h (0 Bft)
20.08.2016 06:04 14,4 C 14,4 C 88 % 1013,2 hPa 0,0 mm 0,0 km/h (0 Bft) W-NW 290 0 min 0,000 mm 0,0 UV-I 0 W/m 12,4 C 0,0 km/h (0 Bft)
20.08.2016 06:05 14,3 C 14,4 C 88 % 1013,1 hPa 0,0 mm 0,0 km/h (0 Bft) W-NW 290 0 min 0,000 mm 0,0 UV-I 0 W/m 12,3 C 0,0 km/h (0 Bft)
20.08.2016 06:06 14,3 C 14,3 C 88 % 1013,1 hPa 0,0 mm 0,0 km/h (0 Bft) W 271 0 min 0,000 mm 0,0 UV-I 0 W/m 12,3 C 0,0 km/h (0 Bft)
20.08.2016 06:07 14,3 C 14,3 C 88 % 1013,2 hPa 0,0 mm 0,0 km/h (0 Bft) W 271 0 min 0,000 mm 0,0 UV-I 0 W/m 12,3 C 0,0 km/h (0 Bft)
20.08.2016 06:08 14,3 C 14,3 C 88 % 1013,2 hPa 0,0 mm 0,0 km/h (0 Bft) W 271 0 min 0,000 mm 0,0 UV-I 0 W/m 12,3 C 0,0 km/h (0 Bft)
20.08.2016 06:09 14,3 C 14,4 C 88 % 1013,2 hPa 0,0 mm 0,0 km/h (0 Bft) W 271 0 min 0,000 mm 0,0 UV-I 0 W/m 12,3 C 0,0 km/h (0 Bft)
20.08.2016 06:10 14,4 C 14,4 C 88 % 1013,2 hPa 0,0 mm 0,0 km/h (0 Bft) W 271 0 min 0,000 mm 0,0 UV-I 0 W/m 12,4 C 0,0 km/h (0 Bft)
20.08.2016 06:11 14,4 C 14,4 C 88 % 1013,2 hPa 0,0 mm 0,0 km/h (0 Bft) W 271 0 min 0,000 mm 0,0 UV-I 0 W/m 12,4 C 0,0 km/h (0 Bft)
20.08.2016 06:12 14,4 C 14,4 C 88 % 1013,2 hPa 0,0 mm 0,0 km/h (0 Bft) W 271 0 min 0,000 mm 0,0 UV-I 0 W/m 12,4 C 0,0 km/h (0 Bft)
20.08.2016 06:13 14,4 C 14,4 C 88 % 1013,1 hPa 0,0 mm 0,0 km/h (0 Bft) W 271 0 min 0,000 mm 0,0 UV-I 0 W/m 12,4 C 0,0 km/h (0 Bft)
20.08.2016 06:14 14,4 C 14,4 C 88 % 1013,2 hPa 0,0 mm 0,0 km/h (0 Bft) W 271 0 min 0,000 mm 0,0 UV-I 0 W/m 12,4 C 0,0 km/h (0 Bft)
20.08.2016 06:15 14,4 C 14,4 C 88 % 1013,2 hPa 0,0 mm 0,0 km/h (0 Bft) W 271 0 min 0,000 mm 0,0 UV-I 0 W/m 12,4 C 0,0 km/h (0 Bft)
20.08.2016 06:16 14,4 C 14,4 C 88 % 1013,2 hPa 0,0 mm 0,0 km/h (0 Bft) W 271 0 min 0,000 mm 0,0 UV-I 0 W/m 12,4 C 0,0 km/h (0 Bft)
20.08.2016 06:17 14,4 C 14,4 C 88 % 1013,2 hPa 0,0 mm 0,0 km/h (0 Bft) W 271 0 min 0,000 mm 0,0 UV-I 0 W/m 12,4 C 0,0 km/h (0 Bft)
20.08.2016 06:18 14,4 C 14,4 C 88 % 1013,2 hPa 0,0 mm 0,0 km/h (0 Bft) W 271 0 min 0,000 mm 0,0 UV-I 0 W/m 12,4 C 0,0 km/h (0 Bft)
20.08.2016 06:19 14,4 C 14,4 C 89 % 1013,2 hPa 0,0 mm 0,0 km/h (0 Bft) W 271 0 min 0,000 mm 0,0 UV-I 0 W/m 12,6 C 0,0 km/h (0 Bft)
20.08.2016 06:20 14,4 C 14,4 C 89 % 1013,2 hPa 0,0 mm 0,0 km/h (0 Bft) W 271 0 min 0,000 mm 0,0 UV-I 0 W/m 12,6 C 0,0 km/h (0 Bft)
20.08.2016 06:21 14,4 C 14,4 C 89 % 1013,2 hPa 0,0 mm 0,0 km/h (0 Bft) W 271 0 min 0,000 mm 0,0 UV-I 0 W/m 12,6 C 0,0 km/h (0 Bft)
20.08.2016 06:22 14,3 C 14,4 C 89 % 1013,2 hPa 0,0 mm 0,0 km/h (0 Bft) W 271 0 min 0,000 mm 0,0 UV-I 0 W/m 12,5 C 0,0 km/h (0 Bft)
20.08.2016 06:23 14,3 C 14,3 C 89 % 1013,2 hPa 0,0 mm 0,0 km/h (0 Bft) W 271 0 min 0,000 mm 0,0 UV-I 0 W/m 12,5 C 0,0 km/h (0 Bft)
20.08.2016 06:24 14,2 C 14,3 C 89 % 1013,3 hPa 0,0 mm 0,0 km/h (0 Bft) W 271 0 min 0,000 mm 0,0 UV-I 0 W/m 12,4 C 0,0 km/h (0 Bft)
20.08.2016 06:25 14,2 C 14,2 C 89 % 1013,2 hPa 0,0 mm 0,0 km/h (0 Bft) W 271 0 min 0,000 mm 0,0 UV-I 0 W/m 12,4 C 0,0 km/h (0 Bft)
20.08.2016 06:26 14,1 C 14,2 C 89 % 1013,3 hPa 0,0 mm 0,0 km/h (0 Bft) W 271 0 min 0,000 mm 0,0 UV-I 0 W/m 12,3 C 0,0 km/h (0 Bft)
20.08.2016 06:27 14,1 C 14,1 C 89 % 1013,3 hPa 0,0 mm 0,0 km/h (0 Bft) W 271 0 min 0,000 mm 0,0 UV-I 0 W/m 12,3 C 0,0 km/h (0 Bft)
20.08.2016 06:28 14,1 C 14,1 C 90 % 1013,2 hPa 0,0 mm 0,0 km/h (0 Bft) W 271 0 min 0,000 mm 0,0 UV-I 5 W/m 12,5 C 0,0 km/h (0 Bft)
20.08.2016 06:29 14,0 C 14,1 C 90 % 1013,2 hPa 0,0 mm 0,0 km/h (0 Bft) W 271 0 min 0,000 mm 0,0 UV-I 5 W/m 12,4 C 0,0 km/h (0 Bft)
20.08.2016 06:30 13,9 C 14,0 C 90 % 1013,2 hPa 0,0 mm 0,0 km/h (0 Bft) W 271 0 min 0,000 mm 0,0 UV-I 5 W/m 12,3 C 0,0 km/h (0 Bft)
20.08.2016 06:31 13,9 C 13,9 C 91 % 1013,2 hPa 0,0 mm 0,0 km/h (0 Bft) W 271 0 min 0,000 mm 0,0 UV-I 7 W/m 12,5 C 0,0 km/h (0 Bft)
20.08.2016 06:32 13,9 C 13,9 C 90 % 1013,1 hPa 0,0 mm 0,0 km/h (0 Bft) W 271 0 min 0,000 mm 0,0 UV-I 7 W/m 12,3 C 0,0 km/h (0 Bft)
20.08.2016 06:33 13,9 C 13,9 C 90 % 1013,2 hPa 0,0 mm 0,0 km/h (0 Bft) W 271 0 min 0,000 mm 0,0 UV-I 7 W/m 12,3 C 0,0 km/h (0 Bft)
20.08.2016 06:34 13,8 C 13,9 C 91 % 1013,1 hPa 0,0 mm 0,0 km/h (0 Bft) W 271 0 min 0,000 mm 0,0 UV-I 9 W/m 12,4 C 0,0 km/h (0 Bft)
20.08.2016 06:35 13,8 C 13,9 C 91 % 1013,1 hPa 0,0 mm 0,0 km/h (0 Bft) W 271 0 min 0,000 mm 0,0 UV-I 9 W/m 12,4 C 0,0 km/h (0 Bft)
20.08.2016 06:36 13,8 C 13,9 C 91 % 1013,1 hPa 0,0 mm 0,0 km/h (0 Bft) W 271 0 min 0,000 mm 0,0 UV-I 11 W/m 12,4 C 0,0 km/h (0 Bft)
20.08.2016 06:37 13,9 C 13,9 C 91 % 1013,2 hPa 0,0 mm 0,0 km/h (0 Bft) W 271 0 min 0,000 mm 0,0 UV-I 12 W/m 12,5 C 0,0 km/h (0 Bft)
20.08.2016 06:38 13,9 C 13,9 C 91 % 1013,2 hPa 0,0 mm 0,0 km/h (0 Bft) W 271 0 min 0,000 mm 0,0 UV-I 12 W/m 12,5 C 0,0 km/h (0 Bft)
20.08.2016 06:39 13,9 C 13,9 C 90 % 1013,2 hPa 0,0 mm 0,0 km/h (0 Bft) W 271 0 min 0,000 mm 0,0 UV-I 12 W/m 12,3 C 0,0 km/h (0 Bft)
20.08.2016 06:40 14,0 C 14,0 C 90 % 1013,1 hPa 0,0 mm 0,0 km/h (0 Bft) W 271 0 min 0,000 mm 0,0 UV-I 12 W/m 12,4 C 0,0 km/h (0 Bft)
20.08.2016 06:41 14,0 C 14,1 C 90 % 1013,2 hPa 0,0 mm 0,0 km/h (0 Bft) W 271 0 min 0,000 mm 0,0 UV-I 12 W/m 12,4 C 0,0 km/h (0 Bft)
20.08.2016 06:42 14,1 C 14,1 C 90 % 1013,1 hPa 0,0 mm 0,0 km/h (0 Bft) W 271 0 min 0,000 mm 0,0 UV-I 14 W/m 12,5 C 0,0 km/h (0 Bft)
20.08.2016 06:43 14,1 C 14,1 C 90 % 1013,2 hPa 0,0 mm 0,0 km/h (0 Bft) W 271 0 min 0,000 mm 0,0 UV-I 14 W/m 12,5 C 0,0 km/h (0 Bft)
20.08.2016 06:44 14,1 C 14,1 C 90 % 1013,2 hPa 0,0 mm 0,0 km/h (0 Bft) W 271 0 min 0,000 mm 0,0 UV-I 14 W/m 12,5 C 0,0 km/h (0 Bft)
20.08.2016 06:45 14,1 C 14,1 C 91 % 1013,1 hPa 0,0 mm 0,0 km/h (0 Bft) W 271 0 min 0,000 mm 0,0 UV-I 14 W/m 12,7 C 0,0 km/h (0 Bft)
20.08.2016 06:46 14,1 C 14,1 C 91 % 1013,2 hPa 0,0 mm 0,0 km/h (0 Bft) W 271 0 min 0,000 mm 0,0 UV-I 16 W/m 12,7 C 0,0 km/h (0 Bft)
20.08.2016 06:47 14,0 C 14,1 C 90 % 1013,2 hPa 0,0 mm 0,0 km/h (0 Bft) W 271 0 min 0,000 mm 0,0 UV-I 18 W/m 12,4 C 0,0 km/h (0 Bft)
20.08.2016 06:48 14,1 C 14,1 C 91 % 1013,2 hPa 0,0 mm 0,0 km/h (0 Bft) W 271 0 min 0,000 mm 0,0 UV-I 18 W/m 12,7 C 0,0 km/h (0 Bft)
20.08.2016 06:49 14,0 C 14,1 C 91 % 1013,2 hPa 0,0 mm 0,0 km/h (0 Bft) W 271 0 min 0,000 mm 0,0 UV-I 18 W/m 12,6 C 0,0 km/h (0 Bft)
20.08.2016 06:50 14,0 C 14,0 C 91 % 1013,2 hPa 0,0 mm 0,0 km/h (0 Bft) W 271 0 min 0,000 mm 0,0 UV-I 18 W/m 12,6 C 0,0 km/h (0 Bft)
20.08.2016 06:51 14,0 C 14,0 C 91 % 1013,1 hPa 0,0 mm 0,0 km/h (0 Bft) W 271 0 min 0,000 mm 0,0 UV-I 18 W/m 12,6 C 0,0 km/h (0 Bft)
20.08.2016 06:52 13,9 C 14,0 C 91 % 1013,2 hPa 0,0 mm 0,0 km/h (0 Bft) W 271 0 min 0,000 mm 0,0 UV-I 18 W/m 12,5 C 0,0 km/h (0 Bft)
20.08.2016 06:53 13,9 C 13,9 C 91 % 1013,2 hPa 0,0 mm 0,0 km/h (0 Bft) W 271 0 min 0,000 mm 0,0 UV-I 19 W/m 12,5 C 0,0 km/h (0 Bft)
20.08.2016 06:54 13,9 C 13,9 C 91 % 1013,2 hPa 0,0 mm 0,0 km/h (0 Bft) W 271 0 min 0,000 mm 0,0 UV-I 21 W/m 12,5 C 0,0 km/h (0 Bft)
20.08.2016 06:55 13,9 C 13,9 C 91 % 1013,2 hPa 0,0 mm 0,0 km/h (0 Bft) W 271 0 min 0,000 mm 0,0 UV-I 23 W/m 12,5 C 0,0 km/h (0 Bft)
20.08.2016 06:56 13,8 C 13,9 C 91 % 1013,2 hPa 0,0 mm 0,0 km/h (0 Bft) W 271 0 min 0,000 mm 0,0 UV-I 21 W/m 12,4 C 0,0 km/h (0 Bft)
20.08.2016 06:57 13,8 C 13,8 C 91 % 1013,2 hPa 0,0 mm 0,0 km/h (0 Bft) W 271 0 min 0,000 mm 0,0 UV-I 21 W/m 12,4 C 0,0 km/h (0 Bft)
20.08.2016 06:58 13,8 C 13,8 C 91 % 1013,2 hPa 0,0 mm 0,0 km/h (0 Bft) W 271 0 min 0,000 mm 0,0 UV-I 21 W/m 12,4 C 0,0 km/h (0 Bft)
20.08.2016 06:59 13,8 C 13,8 C 90 % 1013,1 hPa 0,0 mm 0,0 km/h (0 Bft) W 271 0 min 0,000 mm 0,0 UV-I 21 W/m 12,2 C 0,0 km/h (0 Bft)
20.08.2016 07:00 13,8 C 13,8 C 90 % 1013,2 hPa 0,0 mm 0,0 km/h (0 Bft) W 271 0 min 0,000 mm 0,0 UV-I 25 W/m 12,2 C 0,0 km/h (0 Bft)
20.08.2016 07:01 13,8 C 13,8 C 90 % 1013,2 hPa 0,0 mm 0,0 km/h (0 Bft) W 271 0 min 0,000 mm 0,0 UV-I 25 W/m 12,2 C 0,0 km/h (0 Bft)
20.08.2016 07:02 13,8 C 13,8 C 90 % 1013,1 hPa 0,0 mm 0,0 km/h (0 Bft) W 271 0 min 0,000 mm 0,0 UV-I 26 W/m 12,2 C 0,0 km/h (0 Bft)
20.08.2016 07:03 13,8 C 13,8 C 90 % 1013,1 hPa 0,0 mm 0,0 km/h (0 Bft) W 271 0 min 0,000 mm 0,0 UV-I 26 W/m 12,2 C 0,0 km/h (0 Bft)
20.08.2016 07:04 13,9 C 13,9 C 91 % 1013,1 hPa 0,0 mm 0,0 km/h (0 Bft) W 271 0 min 0,000 mm 0,0 UV-I 26 W/m 12,5 C 0,0 km/h (0 Bft)
20.08.2016 07:05 13,8 C 13,9 C 91 % 1013,2 hPa 0,0 mm 0,0 km/h (0 Bft) W 271 0 min 0,000 mm 0,0 UV-I 26 W/m 12,4 C 0,0 km/h (0 Bft)
20.08.2016 07:06 13,8 C 13,8 C 90 % 1013,2 hPa 0,0 mm 0,0 km/h (0 Bft) W 271 0 min 0,000 mm 0,0 UV-I 30 W/m 12,2 C 0,0 km/h (0 Bft)
20.08.2016 07:07 13,8 C 13,8 C 91 % 1013,3 hPa 0,0 mm 0,0 km/h (0 Bft) W 271 0 min 0,000 mm 0,0 UV-I 33 W/m 12,4 C 0,0 km/h (0 Bft)
20.08.2016 07:08 13,8 C 13,8 C 91 % 1013,3 hPa 0,0 mm 0,0 km/h (0 Bft) W 271 0 min 0,000 mm 0,0 UV-I 35 W/m 12,4 C 0,0 km/h (0 Bft)
20.08.2016 07:09 13,8 C 13,8 C 91 % 1013,3 hPa 0,0 mm 0,0 km/h (0 Bft) W 271 0 min 0,000 mm 0,0 UV-I 37 W/m 12,4 C 0,0 km/h (0 Bft)
20.08.2016 07:10 13,8 C 13,8 C 90 % 1013,3 hPa 0,0 mm 0,0 km/h (0 Bft) W 271 0 min 0,000 mm 0,0 UV-I 37 W/m 12,2 C 0,0 km/h (0 Bft)
20.08.2016 07:11 13,8 C 13,8 C 90 % 1013,3 hPa 0,0 mm 0,0 km/h (0 Bft) W 271 0 min 0,000 mm 0,0 UV-I 37 W/m 12,2 C 0,0 km/h (0 Bft)
20.08.2016 07:12 13,8 C 13,8 C 90 % 1013,2 hPa 0,0 mm 0,0 km/h (0 Bft) W 271 0 min 0,000 mm 0,0 UV-I 39 W/m 12,2 C 0,0 km/h (0 Bft)
20.08.2016 07:13 13,9 C 13,9 C 90 % 1013,3 hPa 0,0 mm 0,0 km/h (0 Bft) W 271 0 min 0,000 mm 0,0 UV-I 42 W/m 12,3 C 0,0 km/h (0 Bft)
20.08.2016 07:14 13,8 C 13,9 C 90 % 1013,3 hPa 0,0 mm 0,0 km/h (0 Bft) W 271 0 min 0,000 mm 0,0 UV-I 44 W/m 12,2 C 0,0 km/h (0 Bft)
20.08.2016 07:15 13,8 C 13,9 C 91 % 1013,3 hPa 0,0 mm 0,0 km/h (0 Bft) W 271 0 min 0,000 mm 0,0 UV-I 49 W/m 12,4 C 0,0 km/h (0 Bft)
20.08.2016 07:16 13,8 C 13,8 C 90 % 1013,3 hPa 0,0 mm 0,0 km/h (0 Bft) W 271 0 min 0,000 mm 0,0 UV-I 53 W/m 12,2 C 0,0 km/h (0 Bft)
20.08.2016 07:17 13,9 C 13,9 C 90 % 1013,3 hPa 0,0 mm 0,0 km/h (0 Bft) W 271 0 min 0,000 mm 0,0 UV-I 56 W/m 12,3 C 0,0 km/h (0 Bft)
20.08.2016 07:18 13,9 C 13,9 C 90 % 1013,4 hPa 0,0 mm 0,0 km/h (0 Bft) W 271 0 min 0,000 mm 0,0 UV-I 63 W/m 12,3 C 0,0 km/h (0 Bft)
20.08.2016 07:19 14,0 C 14,0 C 90 % 1013,3 hPa 0,0 mm 0,0 km/h (0 Bft) W 271 0 min 0,000 mm 0,0 UV-I 69 W/m 12,4 C 0,0 km/h (0 Bft)
20.08.2016 07:20 14,0 C 14,0 C 90 % 1013,3 hPa 0,0 mm 0,0 km/h (0 Bft) W 271 0 min 0,000 mm 0,0 UV-I 70 W/m 12,4 C 0,0 km/h (0 Bft)
20.08.2016 07:21 14,0 C 14,0 C 89 % 1013,4 hPa 0,0 mm 0,0 km/h (0 Bft) W 271 0 min 0,000 mm 0,0 UV-I 72 W/m 12,2 C 0,0 km/h (0 Bft)
20.08.2016 07:22 14,0 C 14,0 C 90 % 1013,4 hPa 0,0 mm 0,0 km/h (0 Bft) W 271 0 min 0,000 mm 0,0 UV-I 74 W/m 12,4 C 0,0 km/h (0 Bft)
20.08.2016 07:23 14,0 C 14,0 C 90 % 1013,3 hPa 0,0 mm 0,0 km/h (0 Bft) W 271 0 min 0,000 mm 0,0 UV-I 77 W/m 12,4 C 0,0 km/h (0 Bft)
20.08.2016 07:24 14,1 C 14,1 C 90 % 1013,3 hPa 0,0 mm 0,0 km/h (0 Bft) W 271 0 min 0,000 mm 0,0 UV-I 79 W/m 12,5 C 0,0 km/h (0 Bft)
20.08.2016 07:25 14,1 C 14,1 C 90 % 1013,3 hPa 0,0 mm 0,0 km/h (0 Bft) W 271 0 min 0,000 mm 0,0 UV-I 76 W/m 12,5 C 0,0 km/h (0 Bft)
20.08.2016 07:26 14,2 C 14,2 C 91 % 1013,4 hPa 0,0 mm 0,0 km/h (0 Bft) W 271 0 min 0,000 mm 0,0 UV-I 72 W/m 12,8 C 0,0 km/h (0 Bft)
20.08.2016 07:27 14,3 C 14,3 C 91 % 1013,4 hPa 0,0 mm 0,0 km/h (0 Bft) W 271 0 min 0,000 mm 0,0 UV-I 70 W/m 12,8 C 0,0 km/h (0 Bft)
20.08.2016 07:28 14,3 C 14,3 C 90 % 1013,4 hPa 0,0 mm 0,0 km/h (0 Bft) W 271 0 min 0,000 mm 0,0 UV-I 70 W/m 12,7 C 0,0 km/h (0 Bft)
20.08.2016 07:29 14,4 C 14,4 C 90 % 1013,4 hPa 0,0 mm 0,0 km/h (0 Bft) W 271 0 min 0,000 mm 0,0 UV-I 69 W/m 12,8 C 0,0 km/h (0 Bft)
20.08.2016 07:30 14,5 C 14,5 C 89 % 1013,4 hPa 0,0 mm 0,0 km/h (0 Bft) W 271 0 min 0,000 mm 0,0 UV-I 72 W/m 12,7 C 0,0 km/h (0 Bft)
20.08.2016 07:31 14,6 C 14,6 C 89 % 1013,4 hPa 0,0 mm 0,0 km/h (0 Bft) W 271 0 min 0,000 mm 0,0 UV-I 81 W/m 12,8 C 0,0 km/h (0 Bft)
20.08.2016 07:32 14,7 C 14,7 C 89 % 1013,4 hPa 0,0 mm 0,0 km/h (0 Bft) W 271 0 min 0,000 mm 0,0 UV-I 83 W/m 12,9 C 0,0 km/h (0 Bft)
20.08.2016 07:33 14,7 C 14,7 C 90 % 1013,5 hPa 0,0 mm 0,0 km/h (0 Bft) W 271 0 min 0,000 mm 0,0 UV-I 83 W/m 13,1 C 0,0 km/h (0 Bft)
20.08.2016 07:34 14,8 C 14,8 C 90 % 1013,4 hPa 0,0 mm 0,0 km/h (0 Bft) W 271 0 min 0,000 mm 0,0 UV-I 83 W/m 13,2 C 0,0 km/h (0 Bft)
20.08.2016 07:35 14,8 C 14,8 C 89 % 1013,4 hPa 0,0 mm 0,0 km/h (0 Bft) W 271 0 min 0,000 mm 0,0 UV-I 84 W/m 13,0 C 0,0 km/h (0 Bft)
20.08.2016 07:36 14,9 C 14,9 C 89 % 1013,5 hPa 0,0 mm 0,0 km/h (0 Bft) W 271 0 min 0,000 mm 0,0 UV-I 79 W/m 13,1 C 0,0 km/h (0 Bft)
20.08.2016 07:37 14,9 C 14,9 C 89 % 1013,4 hPa 0,0 mm 0,0 km/h (0 Bft) W 271 0 min 0,000 mm 0,0 UV-I 77 W/m 13,1 C 0,0 km/h (0 Bft)
20.08.2016 07:38 15,0 C 15,0 C 89 % 1013,4 hPa 0,0 mm 0,0 km/h (0 Bft) W 271 0 min 0,000 mm 0,0 UV-I 70 W/m 13,2 C 0,0 km/h (0 Bft)
20.08.2016 07:39 15,1 C 15,1 C 89 % 1013,4 hPa 0,0 mm 0,0 km/h (0 Bft) W 271 0 min 0,000 mm 0,0 UV-I 84 W/m 13,3 C 0,0 km/h (0 Bft)
20.08.2016 07:40 15,1 C 15,1 C 88 % 1013,4 hPa 0,0 mm 0,0 km/h (0 Bft) W 271 0 min 0,000 mm 0,0 UV-I 81 W/m 13,1 C 0,0 km/h (0 Bft)
20.08.2016 07:41 15,1 C 15,1 C 88 % 1013,4 hPa 0,0 mm 0,0 km/h (0 Bft) W 271 0 min 0,000 mm 0,0 UV-I 83 W/m 13,1 C 0,0 km/h (0 Bft)
20.08.2016 07:42 15,2 C 15,2 C 87 % 1013,4 hPa 0,0 mm 0,0 km/h (0 Bft) W 271 0 min 0,000 mm 0,0 UV-I 70 W/m 13,0 C 0,0 km/h (0 Bft)
20.08.2016 07:43 15,2 C 15,2 C 87 % 1013,4 hPa 0,0 mm 0,0 km/h (0 Bft) W 271 0 min 0,000 mm 0,0 UV-I 74 W/m 13,0 C 0,0 km/h (0 Bft)
20.08.2016 07:44 15,2 C 15,2 C 87 % 1013,4 hPa 0,0 mm 0,0 km/h (0 Bft) W 271 0 min 0,000 mm 0,0 UV-I 79 W/m 13,0 C 0,0 km/h (0 Bft)
20.08.2016 07:45 15,3 C 15,3 C 88 % 1013,3 hPa 0,0 mm 0,0 km/h (0 Bft) W 271 0 min 0,000 mm 0,0 UV-I 69 W/m 13,3 C 0,0 km/h (0 Bft)
20.08.2016 07:46 15,3 C 15,3 C 88 % 1013,3 hPa 0,0 mm 0,0 km/h (0 Bft) W 271 0 min 0,000 mm 0,0 UV-I 63 W/m 13,3 C 0,0 km/h (0 Bft)
20.08.2016 07:47 15,3 C 15,3 C 89 % 1013,3 hPa 0,0 mm 0,0 km/h (0 Bft) W 271 0 min 0,000 mm 0,0 UV-I 62 W/m 13,5 C 0,0 km/h (0 Bft)
20.08.2016 07:48 15,3 C 15,3 C 89 % 1013,3 hPa 0,0 mm 0,0 km/h (0 Bft) W 271 0 min 0,000 mm 0,0 UV-I 60 W/m 13,5 C 0,0 km/h (0 Bft)
20.08.2016 07:49 15,3 C 15,3 C 89 % 1013,3 hPa 0,0 mm 0,0 km/h (0 Bft) W 271 0 min 0,000 mm 0,0 UV-I 60 W/m 13,5 C 0,0 km/h (0 Bft)
20.08.2016 07:50 15,3 C 15,3 C 89 % 1013,3 hPa 0,0 mm 0,0 km/h (0 Bft) W 271 0 min 0,000 mm 0,0 UV-I 60 W/m 13,5 C 0,0 km/h (0 Bft)
20.08.2016 07:51 15,2 C 15,3 C 90 % 1013,4 hPa 0,0 mm 0,0 km/h (0 Bft) W 271 0 min 0,000 mm 0,0 UV-I 58 W/m 13,6 C 0,0 km/h (0 Bft)
20.08.2016 07:52 15,2 C 15,3 C 90 % 1013,3 hPa 0,0 mm 0,0 km/h (0 Bft) W 271 0 min 0,000 mm 0,0 UV-I 58 W/m 13,6 C 0,0 km/h (0 Bft)
20.08.2016 07:53 15,3 C 15,3 C 91 % 1013,3 hPa 0,0 mm 0,0 km/h (0 Bft) W 271 0 min 0,000 mm 0,0 UV-I 58 W/m 13,8 C 0,0 km/h (0 Bft)
20.08.2016 07:54 15,3 C 15,3 C 91 % 1013,3 hPa 0,0 mm 0,0 km/h (0 Bft) W 271 0 min 0,000 mm 0,0 UV-I 56 W/m 13,8 C 0,0 km/h (0 Bft)
20.08.2016 07:55 15,3 C 15,3 C 91 % 1013,3 hPa 0,0 mm 0,0 km/h (0 Bft) W 271 0 min 0,000 mm 0,0 UV-I 56 W/m 13,8 C 0,0 km/h (0 Bft)
20.08.2016 07:56 15,3 C 15,3 C 90 % 1013,3 hPa 0,0 mm 0,0 km/h (0 Bft) W 271 0 min 0,000 mm 0,0 UV-I 56 W/m 13,7 C 0,0 km/h (0 Bft)
20.08.2016 07:57 15,3 C 15,3 C 88 % 1013,3 hPa 0,0 mm 0,0 km/h (0 Bft) W 271 0 min 0,000 mm 0,0 UV-I 56 W/m 13,3 C 0,0 km/h (0 Bft)
20.08.2016 07:58 15,4 C 15,4 C 87 % 1013,3 hPa 0,0 mm 0,0 km/h (0 Bft) W 271 0 min 0,000 mm 0,0 UV-I 56 W/m 13,2 C 0,0 km/h (0 Bft)
20.08.2016 07:59 15,4 C 15,4 C 89 % 1013,3 hPa 0,0 mm 0,0 km/h (0 Bft) W 271 0 min 0,000 mm 0,0 UV-I 58 W/m 13,6 C 0,0 km/h (0 Bft)
20.08.2016 08:00 15,4 C 15,5 C 90 % 1013,3 hPa 0,0 mm 0,0 km/h (0 Bft) W 271 0 min 0,000 mm 0,0 UV-I 58 W/m 13,8 C 0,0 km/h (0 Bft)
20.08.2016 08:01 15,5 C 15,5 C 88 % 1013,3 hPa 0,0 mm 0,0 km/h (0 Bft) W 271 0 min 0,025 mm 0,0 UV-I 58 W/m 13,5 C 0,0 km/h (0 Bft)
20.08.2016 08:02 15,6 C 15,6 C 87 % 1013,3 hPa 0,0 mm 0,0 km/h (0 Bft) W 271 0 min 0,000 mm 0,0 UV-I 58 W/m 13,4 C 0,0 km/h (0 Bft)
20.08.2016 08:03 15,6 C 15,6 C 88 % 1013,3 hPa 0,0 mm 0,0 km/h (0 Bft) W 271 0 min 0,000 mm 0,0 UV-I 58 W/m 13,6 C 0,0 km/h (0 Bft)
20.08.2016 08:04 15,6 C 15,6 C 89 % 1013,3 hPa 0,0 mm 0,0 km/h (0 Bft) W 271 0 min 0,000 mm 0,0 UV-I 58 W/m 13,8 C 0,0 km/h (0 Bft)
20.08.2016 08:05 15,6 C 15,6 C 88 % 1013,3 hPa 0,0 mm 0,0 km/h (0 Bft) W 271 0 min 0,000 mm 0,0 UV-I 56 W/m 13,6 C 0,0 km/h (0 Bft)
20.08.2016 08:06 15,7 C 15,7 C 89 % 1013,3 hPa 0,0 mm 0,0 km/h (0 Bft) W 271 0 min 0,000 mm 0,0 UV-I 56 W/m 13,9 C 0,0 km/h (0 Bft)
20.08.2016 08:07 15,7 C 15,7 C 89 % 1013,3 hPa 0,0 mm 0,0 km/h (0 Bft) W 271 0 min 0,000 mm 0,0 UV-I 58 W/m 13,9 C 0,0 km/h (0 Bft)
20.08.2016 08:08 15,7 C 15,7 C 88 % 1013,3 hPa 0,0 mm 0,0 km/h (0 Bft) W 271 0 min 0,000 mm 0,0 UV-I 58 W/m 13,7 C 0,0 km/h (0 Bft)
20.08.2016 08:09 15,7 C 15,7 C 89 % 1013,3 hPa 0,0 mm 0,0 km/h (0 Bft) W 271 0 min 0,000 mm 0,0 UV-I 58 W/m 13,9 C 0,0 km/h (0 Bft)
20.08.2016 08:10 15,7 C 15,7 C 89 % 1013,2 hPa 0,0 mm 0,0 km/h (0 Bft) W 271 0 min 0,000 mm 0,0 UV-I 58 W/m 13,9 C 0,0 km/h (0 Bft)
20.08.2016 08:11 15,6 C 15,7 C 89 % 1013,3 hPa 0,0 mm 0,0 km/h (0 Bft) W 271 0 min 0,000 mm 0,0 UV-I 58 W/m 13,8 C 0,0 km/h (0 Bft)
20.08.2016 08:12 15,7 C 15,7 C 88 % 1013,2 hPa 0,0 mm 0,0 km/h (0 Bft) W 271 0 min 0,000 mm 0,0 UV-I 58 W/m 13,7 C 0,0 km/h (0 Bft)
20.08.2016 08:13 15,7 C 15,7 C 88 % 1013,2 hPa 0,0 mm 0,0 km/h (0 Bft) W 271 0 min 0,000 mm 0,0 UV-I 58 W/m 13,7 C 0,0 km/h (0 Bft)
20.08.2016 08:14 15,6 C 15,7 C 88 % 1013,2 hPa 0,0 mm 0,0 km/h (0 Bft) W 271 0 min 0,000 mm 0,0 UV-I 58 W/m 13,6 C 0,0 km/h (0 Bft)
20.08.2016 08:15 15,6 C 15,7 C 88 % 1013,1 hPa 0,0 mm 0,0 km/h (0 Bft) W 271 0 min 0,000 mm 0,0 UV-I 58 W/m 13,6 C 0,0 km/h (0 Bft)
20.08.2016 08:16 15,6 C 15,6 C 86 % 1013,1 hPa 0,0 mm 0,0 km/h (0 Bft) W 271 0 min 0,000 mm 0,0 UV-I 58 W/m 13,3 C 0,0 km/h (0 Bft)
20.08.2016 08:17 15,6 C 15,7 C 88 % 1013,2 hPa 0,0 mm 0,0 km/h (0 Bft) W 271 0 min 0,000 mm 0,0 UV-I 58 W/m 13,6 C 0,0 km/h (0 Bft)
20.08.2016 08:18 15,6 C 15,6 C 87 % 1013,1 hPa 0,0 mm 0,0 km/h (0 Bft) W 271 0 min 0,000 mm 0,0 UV-I 60 W/m 13,4 C 0,0 km/h (0 Bft)
20.08.2016 08:19 15,6 C 15,6 C 86 % 1013,1 hPa 0,0 mm 0,0 km/h (0 Bft) W 271 0 min 0,000 mm 0,0 UV-I 60 W/m 13,3 C 0,0 km/h (0 Bft)
20.08.2016 08:20 15,7 C 15,7 C 87 % 1013,1 hPa 0,0 mm 0,0 km/h (0 Bft) W 271 0 min 0,000 mm 0,0 UV-I 62 W/m 13,5 C 0,0 km/h (0 Bft)
20.08.2016 08:21 15,7 C 15,7 C 87 % 1013,2 hPa 0,0 mm 0,0 km/h (0 Bft) W 271 0 min 0,000 mm 0,0 UV-I 62 W/m 13,5 C 0,0 km/h (0 Bft)
20.08.2016 08:22 15,7 C 15,7 C 88 % 1013,2 hPa 0,0 mm 0,0 km/h (0 Bft) W 271 0 min 0,000 mm 0,0 UV-I 63 W/m 13,7 C 0,0 km/h (0 Bft)
20.08.2016 08:23 15,7 C 15,7 C 88 % 1013,1 hPa 0,0 mm 0,0 km/h (0 Bft) W 271 0 min 0,000 mm 0,0 UV-I 65 W/m 13,7 C 0,0 km/h (0 Bft)
20.08.2016 08:24 15,8 C 15,8 C 88 % 1013,1 hPa 0,0 mm 0,0 km/h (0 Bft) W 271 0 min 0,000 mm 0,0 UV-I 65 W/m 13,8 C 0,0 km/h (0 Bft)
20.08.2016 08:25 15,8 C 15,8 C 89 % 1013,2 hPa 0,0 mm 0,0 km/h (0 Bft) W 271 0 min 0,000 mm 0,0 UV-I 63 W/m 14,0 C 0,0 km/h (0 Bft)
20.08.2016 08:26 15,8 C 15,8 C 88 % 1013,2 hPa 0,0 mm 0,0 km/h (0 Bft) W 271 0 min 0,000 mm 0,0 UV-I 63 W/m 13,8 C 0,0 km/h (0 Bft)
20.08.2016 08:27 15,8 C 15,8 C 88 % 1013,1 hPa 0,0 mm 0,0 km/h (0 Bft) W 271 0 min 0,000 mm 0,0 UV-I 62 W/m 13,8 C 0,0 km/h (0 Bft)
20.08.2016 08:28 15,8 C 15,8 C 88 % 1013,1 hPa 0,0 mm 0,0 km/h (0 Bft) W 271 0 min 0,000 mm 0,0 UV-I 63 W/m 13,8 C 0,0 km/h (0 Bft)
20.08.2016 08:29 15,8 C 15,8 C 87 % 1013,2 hPa 0,0 mm 0,0 km/h (0 Bft) W 271 0 min 0,000 mm 0,0 UV-I 63 W/m 13,6 C 0,0 km/h (0 Bft)
20.08.2016 08:30 15,8 C 15,8 C 86 % 1013,1 hPa 0,0 mm 0,0 km/h (0 Bft) W 271 0 min 0,000 mm 0,5 UV-I 65 W/m 13,5 C 0,0 km/h (0 Bft)
20.08.2016 08:31 15,8 C 15,8 C 87 % 1013,1 hPa 0,0 mm 0,0 km/h (0 Bft) W 271 0 min 0,000 mm 0,5 UV-I 67 W/m 13,6 C 0,0 km/h (0 Bft)
20.08.2016 08:32 15,8 C 15,8 C 86 % 1013,1 hPa 0,0 mm 0,0 km/h (0 Bft) W 271 0 min 0,000 mm 0,5 UV-I 67 W/m 13,5 C 0,0 km/h (0 Bft)
20.08.2016 08:33 15,9 C 15,9 C 86 % 1013,2 hPa 0,0 mm 0,0 km/h (0 Bft) W 271 0 min 0,000 mm 0,5 UV-I 69 W/m 13,6 C 0,0 km/h (0 Bft)
20.08.2016 08:34 15,9 C 15,9 C 87 % 1013,2 hPa 0,0 mm 0,0 km/h (0 Bft) W 271 0 min 0,000 mm 0,5 UV-I 70 W/m 13,7 C 0,0 km/h (0 Bft)
20.08.2016 08:35 15,9 C 15,9 C 87 % 1013,1 hPa 0,0 mm 0,0 km/h (0 Bft) W 271 0 min 0,000 mm 0,5 UV-I 72 W/m 13,7 C 0,0 km/h (0 Bft)
20.08.2016 08:36 15,9 C 15,9 C 88 % 1013,2 hPa 0,0 mm 0,0 km/h (0 Bft) W 271 0 min 0,000 mm 0,5 UV-I 72 W/m 13,9 C 0,0 km/h (0 Bft)
20.08.2016 08:37 16,0 C 16,0 C 86 % 1013,2 hPa 0,0 mm 0,0 km/h (0 Bft) W 271 0 min 0,000 mm 0,5 UV-I 74 W/m 13,7 C 0,0 km/h (0 Bft)
20.08.2016 08:38 16,0 C 16,1 C 88 % 1013,2 hPa 0,0 mm 0,0 km/h (0 Bft) W 271 0 min 0,000 mm 0,5 UV-I 76 W/m 14,0 C 0,0 km/h (0 Bft)
20.08.2016 08:39 16,0 C 16,0 C 86 % 1013,2 hPa 0,0 mm 0,0 km/h (0 Bft) W 271 0 min 0,000 mm 0,6 UV-I 77 W/m 13,7 C 0,0 km/h (0 Bft)
20.08.2016 08:40 16,0 C 16,0 C 85 % 1013,3 hPa 0,0 mm 0,0 km/h (0 Bft) W 271 0 min 0,000 mm 0,6 UV-I 79 W/m 13,5 C 0,0 km/h (0 Bft)
20.08.2016 08:41 16,0 C 16,0 C 85 % 1013,2 hPa 0,0 mm 0,0 km/h (0 Bft) W 271 0 min 0,000 mm 0,6 UV-I 81 W/m 13,5 C 0,0 km/h (0 Bft)
20.08.2016 08:42 16,0 C 16,0 C 85 % 1013,2 hPa 0,0 mm 0,0 km/h (0 Bft) W 271 0 min 0,000 mm 0,6 UV-I 83 W/m 13,5 C 0,0 km/h (0 Bft)
20.08.2016 08:43 16,0 C 16,0 C 86 % 1013,2 hPa 0,0 mm 0,0 km/h (0 Bft) W 271 0 min 0,000 mm 0,6 UV-I 84 W/m 13,7 C 0,0 km/h (0 Bft)
20.08.2016 08:44 16,1 C 16,1 C 86 % 1013,2 hPa 0,0 mm 0,0 km/h (0 Bft) W 271 0 min 0,000 mm 0,6 UV-I 84 W/m 13,8 C 0,0 km/h (0 Bft)
20.08.2016 08:45 16,1 C 16,1 C 87 % 1013,2 hPa 0,0 mm 0,0 km/h (0 Bft) W 271 0 min 0,000 mm 0,6 UV-I 88 W/m 13,9 C 0,0 km/h (0 Bft)
20.08.2016 08:46 16,1 C 16,1 C 87 % 1013,1 hPa 0,0 mm 0,0 km/h (0 Bft) W 271 0 min 0,000 mm 0,7 UV-I 91 W/m 13,9 C 0,0 km/h (0 Bft)
20.08.2016 08:47 16,1 C 16,1 C 87 % 1013,1 hPa 0,0 mm 0,0 km/h (0 Bft) W 271 0 min 0,000 mm 0,7 UV-I 95 W/m 13,9 C 0,0 km/h (0 Bft)
20.08.2016 08:48 16,2 C 16,2 C 87 % 1013,0 hPa 0,0 mm 0,0 km/h (0 Bft) W 271 0 min 0,000 mm 0,7 UV-I 97 W/m 14,0 C 0,0 km/h (0 Bft)
20.08.2016 08:49 16,2 C 16,2 C 87 % 1013,0 hPa 0,0 mm 0,0 km/h (0 Bft) W 271 0 min 0,000 mm 0,7 UV-I 98 W/m 14,0 C 0,0 km/h (0 Bft)
20.08.2016 08:50 16,2 C 16,2 C 86 % 1013,0 hPa 0,0 mm 0,0 km/h (0 Bft) W 271 0 min 0,000 mm 0,7 UV-I 102 W/m 13,9 C 0,0 km/h (0 Bft)
20.08.2016 08:51 16,2 C 16,2 C 86 % 1013,0 hPa 0,0 mm 0,0 km/h (0 Bft) W 271 0 min 0,000 mm 0,8 UV-I 105 W/m 13,9 C 0,0 km/h (0 Bft)
20.08.2016 08:52 16,2 C 16,2 C 86 % 1013,0 hPa 0,0 mm 0,0 km/h (0 Bft) W 271 0 min 0,000 mm 0,8 UV-I 111 W/m 13,9 C 0,0 km/h (0 Bft)
20.08.2016 08:53 16,2 C 16,2 C 87 % 1013,0 hPa 0,0 mm 0,0 km/h (0 Bft) W 271 0 min 0,000 mm 0,8 UV-I 111 W/m 14,0 C 0,0 km/h (0 Bft)
20.08.2016 08:54 16,2 C 16,3 C 87 % 1013,0 hPa 0,0 mm 0,0 km/h (0 Bft) W 271 0 min 0,000 mm 0,8 UV-I 114 W/m 14,0 C 0,0 km/h (0 Bft)
20.08.2016 08:55 16,3 C 16,3 C 87 % 1013,0 hPa 0,0 mm 0,0 km/h (0 Bft) W 271 0 min 0,000 mm 0,8 UV-I 116 W/m 14,1 C 0,0 km/h (0 Bft)
20.08.2016 08:56 16,3 C 16,3 C 87 % 1013,0 hPa 0,0 mm 0,0 km/h (0 Bft) W 271 0 min 0,000 mm 0,9 UV-I 118 W/m 14,1 C 0,0 km/h (0 Bft)
20.08.2016 08:57 16,2 C 16,3 C 88 % 1013,0 hPa 0,0 mm 0,0 km/h (0 Bft) W 271 0 min 0,000 mm 0,9 UV-I 121 W/m 14,2 C 0,0 km/h (0 Bft)
20.08.2016 08:58 16,2 C 16,3 C 87 % 1013,0 hPa 0,0 mm 0,0 km/h (0 Bft) W 271 0 min 0,000 mm 0,9 UV-I 123 W/m 14,0 C 0,0 km/h (0 Bft)
20.08.2016 08:59 16,3 C 16,3 C 87 % 1013,0 hPa 0,0 mm 0,0 km/h (0 Bft) W 271 0 min 0,000 mm 0,9 UV-I 125 W/m 14,1 C 0,0 km/h (0 Bft)
20.08.2016 09:00 16,3 C 16,3 C 87 % 1013,0 hPa 0,0 mm 0,0 km/h (0 Bft) W 271 0 min 0,000 mm 0,9 UV-I 127 W/m 14,1 C 0,0 km/h (0 Bft)
20.08.2016 09:01 16,4 C 16,4 C 86 % 1013,0 hPa 0,0 mm 0,0 km/h (0 Bft) W 271 0 min 0,051 mm 0,9 UV-I 128 W/m 14,1 C 0,0 km/h (0 Bft)
20.08.2016 09:02 16,4 C 16,4 C 87 % 1013,0 hPa 0,0 mm 0,0 km/h (0 Bft) W 271 0 min 0,000 mm 0,9 UV-I 130 W/m 14,2 C 0,0 km/h (0 Bft)
20.08.2016 09:03 16,6 C 16,6 C 87 % 1013,0 hPa 0,0 mm 0,0 km/h (0 Bft) W 271 0 min 0,000 mm 1,0 UV-I 134 W/m 14,4 C 0,0 km/h (0 Bft)
20.08.2016 09:04 16,6 C 16,6 C 86 % 1013,0 hPa 0,0 mm 0,0 km/h (0 Bft) W 271 0 min 0,000 mm 1,0 UV-I 134 W/m 14,2 C 0,0 km/h (0 Bft)
20.08.2016 09:05 16,6 C 16,6 C 87 % 1013,0 hPa 0,0 mm 0,0 km/h (0 Bft) W 271 0 min 0,000 mm 1,0 UV-I 137 W/m 14,4 C 0,0 km/h (0 Bft)
20.08.2016 09:06 16,6 C 16,6 C 87 % 1013,0 hPa 0,0 mm 0,0 km/h (0 Bft) W 271 0 min 0,000 mm 1,0 UV-I 139 W/m 14,4 C 0,0 km/h (0 Bft)
20.08.2016 09:07 16,7 C 16,7 C 87 % 1013,0 hPa 0,0 mm 0,0 km/h (0 Bft) W 271 0 min 0,000 mm 1,0 UV-I 142 W/m 14,5 C 0,0 km/h (0 Bft)
20.08.2016 09:08 16,7 C 16,7 C 86 % 1013,1 hPa 0,0 mm 0,0 km/h (0 Bft) W 271 0 min 0,000 mm 1,1 UV-I 146 W/m 14,3 C 0,0 km/h (0 Bft)
20.08.2016 09:09 16,8 C 16,8 C 85 % 1013,1 hPa 0,0 mm 0,0 km/h (0 Bft) W 271 0 min 0,000 mm 1,1 UV-I 153 W/m 14,3 C 0,0 km/h (0 Bft)
20.08.2016 09:10 16,8 C 16,8 C 85 % 1013,1 hPa 0,0 mm 0,0 km/h (0 Bft) W 271 0 min 0,000 mm 1,1 UV-I 155 W/m 14,3 C 0,0 km/h (0 Bft)
20.08.2016 09:11 16,8 C 16,8 C 86 % 1013,0 hPa 0,0 mm 0,0 km/h (0 Bft) W 271 0 min 0,000 mm 1,1 UV-I 158 W/m 14,4 C 0,0 km/h (0 Bft)
20.08.2016 09:12 16,8 C 16,9 C 85 % 1013,0 hPa 0,0 mm 0,0 km/h (0 Bft) W 271 0 min 0,000 mm 1,2 UV-I 160 W/m 14,3 C 0,0 km/h (0 Bft)
20.08.2016 09:13 16,8 C 16,9 C 85 % 1013,1 hPa 0,0 mm 0,0 km/h (0 Bft) W 271 0 min 0,000 mm 1,2 UV-I 163 W/m 14,3 C 0,0 km/h (0 Bft)
20.08.2016 09:14 16,8 C 16,9 C 86 % 1013,0 hPa 0,0 mm 0,0 km/h (0 Bft) W 271 0 min 0,000 mm 1,2 UV-I 167 W/m 14,4 C 0,0 km/h (0 Bft)
20.08.2016 09:15 16,9 C 16,9 C 86 % 1013,0 hPa 0,0 mm 0,0 km/h (0 Bft) W 271 0 min 0,000 mm 1,2 UV-I 174 W/m 14,5 C 0,0 km/h (0 Bft)
20.08.2016 09:16 16,9 C 16,9 C 86 % 1013,0 hPa 0,0 mm 0,0 km/h (0 Bft) W 271 0 min 0,000 mm 1,3 UV-I 179 W/m 14,5 C 0,0 km/h (0 Bft)
20.08.2016 09:17 17,0 C 17,0 C 87 % 1013,0 hPa 0,0 mm 0,0 km/h (0 Bft) W 271 0 min 0,000 mm 1,3 UV-I 185 W/m 14,8 C 0,0 km/h (0 Bft)
20.08.2016 09:18 17,0 C 17,0 C 87 % 1013,0 hPa 0,0 mm 0,0 km/h (0 Bft) W 271 0 min 0,000 mm 1,3 UV-I 190 W/m 14,8 C 0,0 km/h (0 Bft)
20.08.2016 09:19 17,0 C 17,1 C 86 % 1013,0 hPa 0,0 mm 0,0 km/h (0 Bft) W 271 0 min 0,000 mm 1,4 UV-I 195 W/m 14,6 C 0,0 km/h (0 Bft)
20.08.2016 09:20 17,1 C 17,1 C 87 % 1013,0 hPa 0,0 mm 0,0 km/h (0 Bft) W 271 0 min 0,000 mm 1,4 UV-I 202 W/m 14,9 C 0,0 km/h (0 Bft)
20.08.2016 09:21 17,2 C 17,2 C 88 % 1013,0 hPa 0,0 mm 0,0 km/h (0 Bft) W 271 0 min 0,000 mm 1,4 UV-I 202 W/m 15,2 C 0,0 km/h (0 Bft)
20.08.2016 09:22 17,3 C 17,3 C 87 % 1012,9 hPa 0,0 mm 0,0 km/h (0 Bft) W 271 0 min 0,000 mm 1,5 UV-I 206 W/m 15,1 C 0,0 km/h (0 Bft)
20.08.2016 09:23 17,3 C 17,3 C 88 % 1012,9 hPa 0,0 mm 0,0 km/h (0 Bft) W 271 0 min 0,000 mm 1,5 UV-I 211 W/m 15,3 C 0,0 km/h (0 Bft)
20.08.2016 09:24 17,4 C 17,4 C 86 % 1012,9 hPa 0,0 mm 0,0 km/h (0 Bft) W 271 0 min 0,000 mm 1,5 UV-I 216 W/m 15,0 C 0,0 km/h (0 Bft)
20.08.2016 09:25 17,6 C 17,6 C 88 % 1012,9 hPa 0,0 mm 0,0 km/h (0 Bft) W 271 0 min 0,000 mm 1,6 UV-I 234 W/m 15,6 C 0,0 km/h (0 Bft)
20.08.2016 09:26 17,6 C 17,6 C 87 % 1012,9 hPa 0,0 mm 0,0 km/h (0 Bft) W 271 0 min 0,000 mm 1,6 UV-I 218 W/m 15,4 C 0,0 km/h (0 Bft)
20.08.2016 09:27 17,6 C 17,6 C 88 % 1012,9 hPa 0,0 mm 0,0 km/h (0 Bft) W 271 0 min 0,000 mm 1,6 UV-I 220 W/m 15,6 C 0,0 km/h (0 Bft)
20.08.2016 09:28 17,7 C 17,7 C 85 % 1012,9 hPa 0,0 mm 0,0 km/h (0 Bft) W 271 0 min 0,000 mm 1,6 UV-I 218 W/m 15,1 C 0,0 km/h (0 Bft)
20.08.2016 09:29 17,7 C 17,7 C 84 % 1012,9 hPa 0,0 mm 0,0 km/h (0 Bft) W 271 0 min 0,000 mm 1,7 UV-I 218 W/m 15,0 C 0,0 km/h (0 Bft)
20.08.2016 09:30 17,8 C 17,8 C 85 % 1012,9 hPa 0,0 mm 0,0 km/h (0 Bft) W 271 0 min 0,000 mm 1,7 UV-I 221 W/m 15,2 C 0,0 km/h (0 Bft)
20.08.2016 09:31 17,8 C 17,8 C 84 % 1012,9 hPa 0,0 mm 0,0 km/h (0 Bft) W 271 0 min 0,000 mm 1,7 UV-I 225 W/m 15,1 C 0,0 km/h (0 Bft)
20.08.2016 09:32 17,8 C 17,8 C 83 % 1012,9 hPa 0,0 mm 0,0 km/h (0 Bft) W 271 0 min 0,000 mm 1,8 UV-I 229 W/m 14,9 C 0,0 km/h (0 Bft)
20.08.2016 09:33 17,8 C 17,8 C 83 % 1012,9 hPa 0,0 mm 0,0 km/h (0 Bft) W 273 0 min 0,000 mm 1,8 UV-I 232 W/m 14,9 C 0,0 km/h (0 Bft)
20.08.2016 09:34 17,8 C 17,9 C 83 % 1012,9 hPa 0,0 mm 0,0 km/h (0 Bft) W 273 0 min 0,000 mm 1,8 UV-I 234 W/m 14,9 C 0,0 km/h (0 Bft)
20.08.2016 09:35 17,9 C 17,9 C 83 % 1012,9 hPa 0,0 mm 0,0 km/h (0 Bft) W 273 0 min 0,000 mm 1,9 UV-I 236 W/m 15,0 C 0,0 km/h (0 Bft)
20.08.2016 09:36 17,9 C 17,9 C 84 % 1012,9 hPa 0,0 mm 0,0 km/h (0 Bft) W 273 0 min 0,000 mm 1,9 UV-I 237 W/m 15,2 C 0,0 km/h (0 Bft)
20.08.2016 09:37 18,0 C 18,0 C 83 % 1012,9 hPa 0,0 mm 0,0 km/h (0 Bft) W 273 0 min 0,000 mm 1,9 UV-I 237 W/m 15,1 C 0,0 km/h (0 Bft)
20.08.2016 09:38 18,1 C 18,1 C 86 % 1012,9 hPa 0,0 mm 0,0 km/h (0 Bft) W 273 0 min 0,000 mm 1,9 UV-I 232 W/m 15,7 C 0,0 km/h (0 Bft)
20.08.2016 09:39 18,1 C 18,1 C 85 % 1012,9 hPa 0,0 mm 0,0 km/h (0 Bft) W 273 0 min 0,000 mm 1,9 UV-I 227 W/m 15,5 C 0,0 km/h (0 Bft)
20.08.2016 09:40 18,2 C 18,2 C 83 % 1012,8 hPa 0,0 mm 0,0 km/h (0 Bft) W 273 0 min 0,000 mm 1,9 UV-I 229 W/m 15,3 C 0,0 km/h (0 Bft)
20.08.2016 09:41 18,1 C 18,2 C 84 % 1012,8 hPa 0,0 mm 0,0 km/h (0 Bft) W 273 0 min 0,000 mm 1,9 UV-I 225 W/m 15,4 C 0,0 km/h (0 Bft)
20.08.2016 09:42 18,1 C 18,2 C 84 % 1012,8 hPa 0,0 mm 0,0 km/h (0 Bft) W 273 0 min 0,000 mm 2,0 UV-I 225 W/m 15,4 C 0,0 km/h (0 Bft)
20.08.2016 09:43 18,1 C 18,1 C 82 % 1012,8 hPa 0,0 mm 0,0 km/h (0 Bft) W 273 0 min 0,000 mm 2,0 UV-I 227 W/m 15,0 C 0,0 km/h (0 Bft)
20.08.2016 09:44 18,2 C 18,2 C 82 % 1012,8 hPa 0,0 mm 0,0 km/h (0 Bft) W 273 0 min 0,000 mm 2,0 UV-I 239 W/m 15,1 C 0,0 km/h (0 Bft)
20.08.2016 09:45 18,3 C 18,3 C 83 % 1012,8 hPa 0,0 mm 0,0 km/h (0 Bft) W 273 0 min 0,000 mm 2,1 UV-I 237 W/m 15,4 C 0,0 km/h (0 Bft)
20.08.2016 09:46 18,3 C 18,4 C 82 % 1012,8 hPa 0,0 mm 0,0 km/h (0 Bft) W 273 0 min 0,000 mm 2,1 UV-I 236 W/m 15,2 C 0,0 km/h (0 Bft)
20.08.2016 09:47 18,4 C 18,4 C 84 % 1012,7 hPa 0,0 mm 0,0 km/h (0 Bft) W 273 0 min 0,000 mm 2,2 UV-I 250 W/m 15,6 C 0,0 km/h (0 Bft)
20.08.2016 09:48 18,5 C 18,5 C 84 % 1012,8 hPa 0,0 mm 0,0 km/h (0 Bft) W 273 0 min 0,000 mm 2,2 UV-I 257 W/m 15,7 C 0,0 km/h (0 Bft)
20.08.2016 09:49 18,6 C 18,6 C 84 % 1012,8 hPa 0,0 mm 0,0 km/h (0 Bft) W 273 0 min 0,000 mm 2,5 UV-I 281 W/m 15,8 C 0,0 km/h (0 Bft)
20.08.2016 09:50 18,7 C 18,7 C 84 % 1012,8 hPa 0,0 mm 0,0 km/h (0 Bft) W 273 1 min 0,000 mm 2,4 UV-I 388 W/m 15,9 C 0,0 km/h (0 Bft)
20.08.2016 09:51 18,8 C 18,8 C 88 % 1012,8 hPa 0,0 mm 0,0 km/h (0 Bft) W 273 1 min 0,000 mm 2,8 UV-I 388 W/m 16,8 C 0,0 km/h (0 Bft)
20.08.2016 09:52 18,8 C 18,8 C 85 % 1012,8 hPa 0,0 mm 0,0 km/h (0 Bft) W 273 1 min 0,000 mm 2,8 UV-I 388 W/m 16,2 C 0,0 km/h (0 Bft)
20.08.2016 09:53 18,7 C 18,8 C 83 % 1012,8 hPa 0,0 mm 0,0 km/h (0 Bft) W 273 1 min 0,000 mm 2,4 UV-I 388 W/m 15,8 C 0,0 km/h (0 Bft)
20.08.2016 09:54 18,6 C 18,7 C 86 % 1012,8 hPa 0,0 mm 0,0 km/h (0 Bft) W 273 1 min 0,000 mm 2,8 UV-I 329 W/m 16,2 C 0,0 km/h (0 Bft)
20.08.2016 09:55 18,7 C 18,7 C 83 % 1012,8 hPa 0,0 mm 0,0 km/h (0 Bft) W 273 1 min 0,000 mm 3,5 UV-I 329 W/m 15,8 C 0,0 km/h (0 Bft)
20.08.2016 09:56 18,8 C 18,8 C 85 % 1012,8 hPa 0,0 mm 0,0 km/h (0 Bft) W 273 1 min 0,000 mm 3,2 UV-I 517 W/m 16,2 C 0,0 km/h (0 Bft)
20.08.2016 09:57 18,8 C 18,8 C 84 % 1012,8 hPa 0,0 mm 0,0 km/h (0 Bft) W 273 1 min 0,000 mm 3,6 UV-I 603 W/m 16,0 C 0,0 km/h (0 Bft)
20.08.2016 09:58 18,9 C 18,9 C 83 % 1012,8 hPa 0,0 mm 0,0 km/h (0 Bft) W 273 1 min 0,000 mm 3,3 UV-I 552 W/m 15,9 C 0,0 km/h (0 Bft)
20.08.2016 09:59 18,8 C 18,9 C 81 % 1012,8 hPa 0,0 mm 0,0 km/h (0 Bft) W 273 1 min 0,000 mm 2,4 UV-I 552 W/m 15,5 C 0,0 km/h (0 Bft)
20.08.2016 10:00 18,8 C 18,8 C 80 % 1012,8 hPa 0,0 mm 0,0 km/h (0 Bft) W 273 1 min 0,000 mm 3,1 UV-I 343 W/m 15,3 C 0,0 km/h (0 Bft)
20.08.2016 10:01 18,8 C 18,8 C 82 % 1012,8 hPa 0,0 mm 0,0 km/h (0 Bft) W 273 1 min 0,127 mm 2,5 UV-I 369 W/m 15,7 C 0,0 km/h (0 Bft)
20.08.2016 10:02 18,8 C 18,8 C 79 % 1012,8 hPa 0,0 mm 0,0 km/h (0 Bft) W 272 1 min 0,000 mm 3,6 UV-I 582 W/m 15,1 C 0,0 km/h (0 Bft)
20.08.2016 10:03 18,9 C 18,9 C 83 % 1012,8 hPa 0,0 mm 0,0 km/h (0 Bft) W 273 1 min 0,000 mm 3,6 UV-I 582 W/m 15,9 C 0,0 km/h (0 Bft)
20.08.2016 10:04 19,1 C 19,1 C 82 % 1012,8 hPa 0,0 mm 0,0 km/h (0 Bft) W-NW 301 1 min 0,000 mm 3,6 UV-I 566 W/m 16,0 C 0,0 km/h (0 Bft)
20.08.2016 10:05 19,2 C 19,2 C 83 % 1012,9 hPa 0,0 mm 0,0 km/h (0 Bft) W-NW 301 1 min 0,000 mm 3,6 UV-I 570 W/m 16,2 C 0,0 km/h (0 Bft)
20.08.2016 10:06 19,3 C 19,3 C 84 % 1012,9 hPa 0,0 mm 2,7 km/h (1 Bft) NW 319 1 min 0,000 mm 3,7 UV-I 571 W/m 16,5 C 6,4 km/h (2 Bft)
20.08.2016 10:07 19,7 C 19,7 C 83 % 1012,9 hPa 0,0 mm 4,0 km/h (1 Bft) NW 325 1 min 0,000 mm 3,7 UV-I 573 W/m 16,7 C 4,8 km/h (1 Bft)
20.08.2016 10:08 20,0 C 20,0 C 80 % 1012,9 hPa 0,0 mm 4,0 km/h (1 Bft) N-NW 338 1 min 0,000 mm 3,7 UV-I 577 W/m 16,4 C 4,8 km/h (1 Bft)
20.08.2016 10:09 20,1 C 20,1 C 77 % 1012,9 hPa 0,0 mm 3,8 km/h (1 Bft) N-NW 334 1 min 0,000 mm 3,8 UV-I 578 W/m 15,9 C 4,8 km/h (1 Bft)
20.08.2016 10:10 20,2 C 20,2 C 76 % 1013,0 hPa 0,0 mm 0,9 km/h (0 Bft) N-NW 334 1 min 0,000 mm 3,8 UV-I 578 W/m 15,8 C 1,6 km/h (1 Bft)
20.08.2016 10:11 20,2 C 20,2 C 78 % 1013,0 hPa 0,0 mm 1,5 km/h (1 Bft) N-NW 343 1 min 0,000 mm 3,8 UV-I 582 W/m 16,2 C 3,2 km/h (1 Bft)
20.08.2016 10:12 20,2 C 20,2 C 80 % 1012,9 hPa 0,0 mm 1,6 km/h (1 Bft) N-NW 343 1 min 0,000 mm 3,8 UV-I 584 W/m 16,6 C 3,2 km/h (1 Bft)
20.08.2016 10:13 20,1 C 20,2 C 78 % 1012,9 hPa 0,0 mm 1,7 km/h (1 Bft) N-NW 343 1 min 0,000 mm 3,8 UV-I 585 W/m 16,1 C 3,2 km/h (1 Bft)
20.08.2016 10:14 20,1 C 20,1 C 78 % 1012,8 hPa 0,0 mm 1,4 km/h (1 Bft) N-NW 343 1 min 0,000 mm 3,9 UV-I 591 W/m 16,1 C 3,2 km/h (1 Bft)
20.08.2016 10:15 20,1 C 20,1 C 75 % 1012,8 hPa 0,0 mm 0,5 km/h (0 Bft) N-NW 343 1 min 0,000 mm 3,9 UV-I 592 W/m 15,5 C 1,6 km/h (1 Bft)
20.08.2016 10:16 20,2 C 20,2 C 77 % 1012,9 hPa 0,0 mm 0,7 km/h (0 Bft) N-NW 345 1 min 0,000 mm 3,9 UV-I 596 W/m 16,0 C 1,6 km/h (1 Bft)
20.08.2016 10:17 20,1 C 20,2 C 76 % 1012,9 hPa 0,0 mm 0,9 km/h (0 Bft) N-NW 345 1 min 0,000 mm 4,0 UV-I 596 W/m 15,7 C 1,6 km/h (1 Bft)
20.08.2016 10:18 20,2 C 20,2 C 80 % 1012,9 hPa 0,0 mm 1,1 km/h (1 Bft) N-NW 345 1 min 0,000 mm 4,0 UV-I 599 W/m 16,6 C 1,6 km/h (1 Bft)
20.08.2016 10:19 20,2 C 20,2 C 76 % 1012,9 hPa 0,0 mm 0,9 km/h (0 Bft) N-NW 345 1 min 0,000 mm 4,0 UV-I 601 W/m 15,8 C 1,6 km/h (1 Bft)
20.08.2016 10:20 20,2 C 20,2 C 78 % 1012,9 hPa 0,0 mm 0,4 km/h (0 Bft) N-NW 345 1 min 0,000 mm 4,0 UV-I 606 W/m 16,2 C 1,6 km/h (1 Bft)
20.08.2016 10:21 20,2 C 20,2 C 75 % 1012,9 hPa 0,0 mm 0,0 km/h (0 Bft) N-NW 345 1 min 0,000 mm 3,2 UV-I 606 W/m 15,6 C 0,0 km/h (0 Bft)
20.08.2016 10:22 20,2 C 20,2 C 75 % 1012,9 hPa 0,0 mm 0,0 km/h (0 Bft) N-NW 345 1 min 0,000 mm 4,1 UV-I 606 W/m 15,6 C 0,0 km/h (0 Bft)
20.08.2016 10:23 20,1 C 20,2 C 74 % 1012,8 hPa 0,0 mm 0,5 km/h (0 Bft) N-NW 345 1 min 0,000 mm 4,1 UV-I 612 W/m 15,3 C 1,6 km/h (1 Bft)
20.08.2016 10:24 20,2 C 20,2 C 78 % 1012,8 hPa 0,0 mm 1,2 km/h (1 Bft) N-NW 345 1 min 0,000 mm 4,1 UV-I 612 W/m 16,2 C 3,2 km/h (1 Bft)
20.08.2016 10:25 20,3 C 20,3 C 77 % 1012,8 hPa 0,0 mm 1,7 km/h (1 Bft) NO 34 1 min 0,000 mm 4,1 UV-I 613 W/m 16,1 C 3,2 km/h (1 Bft)
20.08.2016 10:26 20,3 C 20,3 C 75 % 1012,8 hPa 0,0 mm 1,1 km/h (1 Bft) NO 34 1 min 0,000 mm 4,1 UV-I 617 W/m 15,7 C 3,2 km/h (1 Bft)
20.08.2016 10:27 20,3 C 20,3 C 75 % 1012,8 hPa 0,0 mm 2,8 km/h (1 Bft) N-NO 29 1 min 0,000 mm 4,2 UV-I 619 W/m 15,7 C 6,4 km/h (2 Bft)
20.08.2016 10:28 20,5 C 20,5 C 77 % 1012,8 hPa 0,0 mm 5,7 km/h (1 Bft) O-NO 75 1 min 0,000 mm 4,2 UV-I 622 W/m 16,3 C 8,0 km/h (2 Bft)
20.08.2016 10:29 20,6 C 20,6 C 73 % 1012,8 hPa 0,0 mm 2,0 km/h (1 Bft) O 86 1 min 0,000 mm 4,2 UV-I 626 W/m 15,6 C 4,8 km/h (1 Bft)
20.08.2016 10:30 20,6 C 20,6 C 75 % 1012,7 hPa 0,0 mm 1,9 km/h (1 Bft) N-NO 17 1 min 0,000 mm 4,3 UV-I 629 W/m 16,0 C 3,2 km/h (1 Bft)
20.08.2016 10:31 20,7 C 20,7 C 75 % 1012,8 hPa 0,0 mm 2,1 km/h (1 Bft) N-NO 26 1 min 0,000 mm 4,3 UV-I 635 W/m 16,1 C 3,2 km/h (1 Bft)
20.08.2016 10:32 20,8 C 20,8 C 74 % 1012,7 hPa 0,0 mm 1,2 km/h (1 Bft) N-NO 26 1 min 0,000 mm 4,3 UV-I 638 W/m 16,0 C 3,2 km/h (1 Bft)
20.08.2016 10:33 20,8 C 20,8 C 77 % 1012,7 hPa 0,0 mm 2,9 km/h (1 Bft) O-NO 57 1 min 0,000 mm 4,3 UV-I 631 W/m 16,6 C 3,2 km/h (1 Bft)
20.08.2016 10:34 21,1 C 21,1 C 76 % 1012,7 hPa 0,0 mm 1,8 km/h (1 Bft) O-NO 57 1 min 0,000 mm 4,4 UV-I 638 W/m 16,7 C 3,2 km/h (1 Bft)
20.08.2016 10:35 21,2 C 21,2 C 75 % 1012,7 hPa 0,0 mm 1,6 km/h (1 Bft) NO 51 1 min 0,000 mm 4,4 UV-I 643 W/m 16,6 C 3,2 km/h (1 Bft)
20.08.2016 10:36 21,2 C 21,3 C 75 % 1012,6 hPa 0,0 mm 2,4 km/h (1 Bft) NO 51 1 min 0,000 mm 4,4 UV-I 645 W/m 16,6 C 4,8 km/h (1 Bft)
20.08.2016 10:37 21,2 C 21,2 C 71 % 1012,6 hPa 0,0 mm 1,1 km/h (1 Bft) NO 51 1 min 0,000 mm 4,4 UV-I 647 W/m 15,7 C 1,6 km/h (1 Bft)
20.08.2016 10:38 21,3 C 21,3 C 75 % 1012,6 hPa 0,0 mm 3,5 km/h (1 Bft) NO 51 1 min 0,000 mm 4,5 UV-I 649 W/m 16,7 C 4,8 km/h (1 Bft)
20.08.2016 10:39 21,2 C 21,3 C 72 % 1012,6 hPa 0,0 mm 1,7 km/h (1 Bft) N-NO 30 1 min 0,000 mm 4,5 UV-I 650 W/m 15,9 C 4,8 km/h (1 Bft)
20.08.2016 10:40 21,2 C 21,2 C 76 % 1012,6 hPa 0,0 mm 1,5 km/h (1 Bft) NO 43 1 min 0,000 mm 4,5 UV-I 650 W/m 16,8 C 3,2 km/h (1 Bft)
20.08.2016 10:41 21,1 C 21,2 C 75 % 1012,6 hPa 0,0 mm 2,3 km/h (1 Bft) N-NO 14 1 min 0,000 mm 4,5 UV-I 652 W/m 16,5 C 4,8 km/h (1 Bft)
20.08.2016 10:42 21,1 C 21,1 C 76 % 1012,6 hPa 0,0 mm 2,8 km/h (1 Bft) N 5 1 min 0,000 mm 4,6 UV-I 652 W/m 16,7 C 4,8 km/h (1 Bft)
20.08.2016 10:43 21,2 C 21,2 C 77 % 1012,6 hPa 0,0 mm 3,4 km/h (1 Bft) N-NO 20 1 min 0,000 mm 4,6 UV-I 654 W/m 17,0 C 4,8 km/h (1 Bft)
20.08.2016 10:44 21,4 C 21,4 C 76 % 1012,6 hPa 0,0 mm 5,6 km/h (1 Bft) N 355 1 min 0,000 mm 4,6 UV-I 656 W/m 17,0 C 8,0 km/h (2 Bft)
20.08.2016 10:45 21,6 C 21,6 C 74 % 1012,6 hPa 0,0 mm 2,3 km/h (1 Bft) O 100 1 min 0,000 mm 4,6 UV-I 657 W/m 16,8 C 3,2 km/h (1 Bft)
20.08.2016 10:46 21,7 C 21,7 C 71 % 1012,7 hPa 0,0 mm 3,2 km/h (1 Bft) N-NO 24 1 min 0,000 mm 4,7 UV-I 657 W/m 16,2 C 4,8 km/h (1 Bft)
20.08.2016 10:47 21,9 C 21,9 C 71 % 1012,7 hPa 0,0 mm 5,9 km/h (2 Bft) NO 51 1 min 0,000 mm 4,7 UV-I 657 W/m 16,4 C 8,0 km/h (2 Bft)
20.08.2016 10:48 22,2 C 22,2 C 66 % 1012,7 hPa 0,0 mm 3,4 km/h (1 Bft) NO 56 1 min 0,000 mm 4,7 UV-I 664 W/m 15,5 C 6,4 km/h (2 Bft)
20.08.2016 10:49 22,2 C 22,2 C 67 % 1012,7 hPa 0,0 mm 4,1 km/h (1 Bft) O-NO 68 1 min 0,000 mm 4,7 UV-I 668 W/m 15,8 C 6,4 km/h (2 Bft)
20.08.2016 10:50 22,3 C 22,3 C 66 % 1012,7 hPa 0,0 mm 4,0 km/h (1 Bft) NO 49 1 min 0,000 mm 4,7 UV-I 668 W/m 15,6 C 6,4 km/h (2 Bft)
20.08.2016 10:51 22,3 C 22,3 C 67 % 1012,6 hPa 0,0 mm 4,8 km/h (1 Bft) N-NO 26 1 min 0,000 mm 4,7 UV-I 661 W/m 15,9 C 6,4 km/h (2 Bft)
20.08.2016 10:52 22,4 C 22,4 C 69 % 1012,6 hPa 0,0 mm 4,9 km/h (1 Bft) N 355 1 min 0,000 mm 4,8 UV-I 671 W/m 16,4 C 8,0 km/h (2 Bft)
20.08.2016 10:53 22,5 C 22,5 C 68 % 1012,6 hPa 0,0 mm 4,7 km/h (1 Bft) NO 47 1 min 0,000 mm 4,8 UV-I 675 W/m 16,3 C 6,4 km/h (2 Bft)
20.08.2016 10:54 22,5 C 22,6 C 70 % 1012,6 hPa 0,0 mm 4,2 km/h (1 Bft) N-NO 21 1 min 0,000 mm 4,8 UV-I 675 W/m 16,7 C 4,8 km/h (1 Bft)
20.08.2016 10:55 22,3 C 22,5 C 69 % 1012,6 hPa 0,0 mm 4,1 km/h (1 Bft) N-NO 24 1 min 0,000 mm 4,9 UV-I 682 W/m 16,3 C 8,0 km/h (2 Bft)
20.08.2016 10:56 22,3 C 22,3 C 71 % 1012,6 hPa 0,0 mm 3,4 km/h (1 Bft) NO 40 1 min 0,000 mm 4,9 UV-I 684 W/m 16,8 C 6,4 km/h (2 Bft)
20.08.2016 10:57 22,3 C 22,3 C 71 % 1012,6 hPa 0,0 mm 3,3 km/h (1 Bft) NO 52 1 min 0,000 mm 4,9 UV-I 684 W/m 16,8 C 4,8 km/h (1 Bft)
20.08.2016 10:58 22,1 C 22,3 C 67 % 1012,5 hPa 0,0 mm 2,1 km/h (1 Bft) N-NO 29 1 min 0,000 mm 4,9 UV-I 686 W/m 15,7 C 3,2 km/h (1 Bft)
20.08.2016 10:59 22,1 C 22,1 C 66 % 1012,5 hPa 0,0 mm 3,3 km/h (1 Bft) O-NO 69 1 min 0,000 mm 4,9 UV-I 686 W/m 15,4 C 6,4 km/h (2 Bft)
20.08.2016 11:00 22,3 C 22,3 C 67 % 1012,5 hPa 0,0 mm 4,8 km/h (1 Bft) O-NO 74 1 min 0,000 mm 4,9 UV-I 686 W/m 15,9 C 9,7 km/h (2 Bft)
20.08.2016 11:01 22,4 C 22,4 C 69 % 1012,5 hPa 0,0 mm 4,0 km/h (1 Bft) O-NO 57 1 min 0,356 mm 4,9 UV-I 673 W/m 16,4 C 6,4 km/h (2 Bft)
20.08.2016 11:02 22,6 C 22,6 C 64 % 1012,6 hPa 0,0 mm 2,7 km/h (1 Bft) N-NW 348 1 min 0,000 mm 4,9 UV-I 671 W/m 15,4 C 4,8 km/h (1 Bft)
20.08.2016 11:03 22,6 C 22,6 C 64 % 1012,6 hPa 0,0 mm 5,8 km/h (2 Bft) N 360 1 min 0,000 mm 5,0 UV-I 677 W/m 15,4 C 8,0 km/h (2 Bft)
20.08.2016 11:04 22,7 C 22,7 C 61 % 1012,6 hPa 0,0 mm 5,3 km/h (1 Bft) NO 56 1 min 0,000 mm 5,0 UV-I 680 W/m 14,8 C 6,4 km/h (2 Bft)
20.08.2016 11:05 22,7 C 22,7 C 60 % 1012,6 hPa 0,0 mm 7,6 km/h (2 Bft) O 89 1 min 0,000 mm 5,0 UV-I 680 W/m 14,5 C 11,3 km/h (2 Bft)
20.08.2016 11:06 22,7 C 22,8 C 62 % 1012,6 hPa 0,0 mm 6,1 km/h (2 Bft) NO 46 1 min 0,000 mm 5,1 UV-I 694 W/m 15,0 C 8,0 km/h (2 Bft)
20.08.2016 11:07 22,7 C 22,7 C 66 % 1012,6 hPa 0,0 mm 5,2 km/h (1 Bft) NO 43 1 min 0,000 mm 5,1 UV-I 689 W/m 16,0 C 6,4 km/h (2 Bft)
20.08.2016 11:08 22,7 C 22,7 C 64 % 1012,6 hPa 0,0 mm 7,2 km/h (2 Bft) NO 48 1 min 0,000 mm 5,0 UV-I 677 W/m 15,5 C 9,7 km/h (2 Bft)
20.08.2016 11:09 22,7 C 22,7 C 62 % 1012,7 hPa 0,0 mm 3,0 km/h (1 Bft) NO 46 1 min 0,000 mm 5,0 UV-I 682 W/m 15,0 C 6,4 km/h (2 Bft)
20.08.2016 11:10 22,6 C 22,7 C 62 % 1012,6 hPa 0,0 mm 0,9 km/h (0 Bft) NO 46 1 min 0,000 mm 5,1 UV-I 687 W/m 14,9 C 1,6 km/h (1 Bft)
20.08.2016 11:11 22,7 C 22,7 C 67 % 1012,7 hPa 0,0 mm 3,3 km/h (1 Bft) NO 49 1 min 0,000 mm 5,1 UV-I 700 W/m 16,2 C 9,7 km/h (2 Bft)
20.08.2016 11:12 22,7 C 22,8 C 64 % 1012,6 hPa 0,0 mm 5,1 km/h (1 Bft) O-NO 65 1 min 0,000 mm 5,1 UV-I 701 W/m 15,5 C 9,7 km/h (2 Bft)
20.08.2016 11:13 22,7 C 22,7 C 63 % 1012,7 hPa 0,0 mm 2,0 km/h (1 Bft) N 5 1 min 0,000 mm 5,2 UV-I 705 W/m 15,3 C 3,2 km/h (1 Bft)
20.08.2016 11:14 22,6 C 22,7 C 61 % 1012,6 hPa 0,0 mm 3,0 km/h (1 Bft) O 90 1 min 0,000 mm 5,2 UV-I 705 W/m 14,7 C 4,8 km/h (1 Bft)
20.08.2016 11:15 22,7 C 22,7 C 67 % 1012,7 hPa 0,0 mm 3,7 km/h (1 Bft) NO 35 1 min 0,000 mm 5,3 UV-I 715 W/m 16,2 C 8,0 km/h (2 Bft)
20.08.2016 11:16 22,6 C 22,7 C 66 % 1012,7 hPa 0,0 mm 5,0 km/h (1 Bft) N-NO 26 1 min 0,000 mm 5,2 UV-I 707 W/m 15,9 C 8,0 km/h (2 Bft)
20.08.2016 11:17 22,7 C 22,7 C 62 % 1012,6 hPa 0,0 mm 5,7 km/h (1 Bft) O-NO 67 1 min 0,000 mm 5,1 UV-I 661 W/m 15,0 C 6,4 km/h (2 Bft)
20.08.2016 11:18 22,7 C 22,7 C 61 % 1012,7 hPa 0,0 mm 4,4 km/h (1 Bft) O-NO 73 1 min 0,000 mm 5,4 UV-I 726 W/m 14,8 C 6,4 km/h (2 Bft)
20.08.2016 11:19 22,7 C 22,7 C 62 % 1012,7 hPa 0,0 mm 1,3 km/h (1 Bft) O-NO 73 1 min 0,000 mm 5,4 UV-I 731 W/m 15,0 C 3,2 km/h (1 Bft)
20.08.2016 11:20 22,8 C 22,8 C 61 % 1012,6 hPa 0,0 mm 2,5 km/h (1 Bft) O-NO 63 1 min 0,000 mm 5,4 UV-I 733 W/m 14,9 C 6,4 km/h (2 Bft)
20.08.2016 11:21 22,9 C 22,9 C 69 % 1012,6 hPa 0,0 mm 3,1 km/h (1 Bft) NO 35 1 min 0,000 mm 5,4 UV-I 726 W/m 16,9 C 4,8 km/h (1 Bft)
20.08.2016 11:22 22,9 C 22,9 C 60 % 1012,6 hPa 0,0 mm 5,8 km/h (2 Bft) NW 325 1 min 0,000 mm 5,4 UV-I 721 W/m 14,7 C 8,0 km/h (2 Bft)
20.08.2016 11:23 22,9 C 22,9 C 59 % 1012,6 hPa 0,0 mm 3,8 km/h (1 Bft) N-NO 29 1 min 0,000 mm 5,0 UV-I 663 W/m 14,5 C 8,0 km/h (2 Bft)
20.08.2016 11:24 23,0 C 23,0 C 60 % 1012,6 hPa 0,0 mm 4,1 km/h (1 Bft) N-NW 335 1 min 0,000 mm 5,0 UV-I 642 W/m 14,8 C 6,4 km/h (2 Bft)
20.08.2016 11:25 23,1 C 23,1 C 62 % 1012,6 hPa 0,0 mm 4,5 km/h (1 Bft) N 5 1 min 0,000 mm 5,4 UV-I 731 W/m 15,4 C 6,4 km/h (2 Bft)
20.08.2016 11:26 23,1 C 23,1 C 54 % 1012,6 hPa 0,0 mm 0,7 km/h (0 Bft) N 5 1 min 0,000 mm 5,5 UV-I 740 W/m 13,3 C 1,6 km/h (1 Bft)
20.08.2016 11:27 23,1 C 23,1 C 57 % 1012,6 hPa 0,0 mm 1,6 km/h (1 Bft) N 5 1 min 0,000 mm 5,5 UV-I 737 W/m 14,1 C 3,2 km/h (1 Bft)
20.08.2016 11:28 23,1 C 23,1 C 60 % 1012,7 hPa 0,0 mm 0,0 km/h (0 Bft) N 5 1 min 0,000 mm 5,3 UV-I 698 W/m 14,9 C 0,0 km/h (0 Bft)
20.08.2016 11:29 23,0 C 23,1 C 53 % 1012,6 hPa 0,0 mm 1,3 km/h (1 Bft) O 91 1 min 0,000 mm 5,2 UV-I 650 W/m 12,9 C 3,2 km/h (1 Bft)
20.08.2016 11:30 22,9 C 23,0 C 57 % 1012,6 hPa 0,0 mm 4,0 km/h (1 Bft) S-SO 167 1 min 0,000 mm 5,4 UV-I 742 W/m 13,9 C 6,4 km/h (2 Bft)
20.08.2016 11:31 23,0 C 23,0 C 53 % 1012,6 hPa 0,0 mm 4,0 km/h (1 Bft) S 175 1 min 0,000 mm 5,5 UV-I 733 W/m 12,9 C 6,4 km/h (2 Bft)
20.08.2016 11:32 23,1 C 23,1 C 57 % 1012,7 hPa 0,0 mm 2,2 km/h (1 Bft) S 175 1 min 0,000 mm 5,6 UV-I 721 W/m 14,1 C 3,2 km/h (1 Bft)
20.08.2016 11:33 23,0 C 23,1 C 53 % 1012,6 hPa 0,0 mm 2,0 km/h (1 Bft) S 175 1 min 0,000 mm 5,6 UV-I 745 W/m 12,9 C 4,8 km/h (1 Bft)
20.08.2016 11:34 23,0 C 23,0 C 54 % 1012,6 hPa 0,0 mm 3,1 km/h (1 Bft) S 178 1 min 0,000 mm 5,6 UV-I 726 W/m 13,2 C 4,8 km/h (1 Bft)
20.08.2016 11:35 23,0 C 23,0 C 57 % 1012,7 hPa 0,0 mm 3,2 km/h (1 Bft) S 174 1 min 0,000 mm 5,5 UV-I 717 W/m 14,0 C 4,8 km/h (1 Bft)
20.08.2016 11:36 22,9 C 23,0 C 59 % 1012,7 hPa 0,0 mm 3,4 km/h (1 Bft) S-SO 158 1 min 0,000 mm 5,5 UV-I 715 W/m 14,5 C 4,8 km/h (1 Bft)
20.08.2016 11:37 23,0 C 23,0 C 63 % 1012,7 hPa 0,0 mm 1,5 km/h (1 Bft) S-SO 158 1 min 0,000 mm 5,5 UV-I 717 W/m 15,6 C 3,2 km/h (1 Bft)
20.08.2016 11:38 22,9 C 23,0 C 59 % 1012,7 hPa 0,0 mm 1,6 km/h (1 Bft) S-SO 158 1 min 0,000 mm 5,7 UV-I 728 W/m 14,5 C 3,2 km/h (1 Bft)
20.08.2016 11:39 22,9 C 22,9 C 57 % 1012,7 hPa 0,0 mm 1,3 km/h (1 Bft) S-SO 161 1 min 0,000 mm 5,6 UV-I 731 W/m 13,9 C 1,6 km/h (1 Bft)
20.08.2016 11:40 22,9 C 22,9 C 57 % 1012,7 hPa 0,0 mm 2,7 km/h (1 Bft) S-SO 164 1 min 0,000 mm 5,7 UV-I 738 W/m 13,9 C 3,2 km/h (1 Bft)
20.08.2016 11:41 22,9 C 22,9 C 58 % 1012,7 hPa 0,0 mm 1,5 km/h (1 Bft) S-SO 164 1 min 0,000 mm 5,8 UV-I 745 W/m 14,2 C 3,2 km/h (1 Bft)
20.08.2016 11:42 23,0 C 23,0 C 58 % 1012,8 hPa 0,0 mm 2,5 km/h (1 Bft) S-SO 164 1 min 0,000 mm 5,8 UV-I 761 W/m 14,3 C 6,4 km/h (2 Bft)
20.08.2016 11:43 22,9 C 23,0 C 61 % 1012,8 hPa 0,0 mm 2,9 km/h (1 Bft) S-SO 162 1 min 0,000 mm 5,8 UV-I 752 W/m 15,0 C 3,2 km/h (1 Bft)
20.08.2016 11:44 22,8 C 22,9 C 63 % 1012,8 hPa 0,0 mm 2,3 km/h (1 Bft) SO 142 1 min 0,000 mm 5,9 UV-I 770 W/m 15,4 C 4,8 km/h (1 Bft)
20.08.2016 11:45 22,6 C 22,8 C 61 % 1012,8 hPa 0,0 mm 4,0 km/h (1 Bft) SO 125 1 min 0,000 mm 5,9 UV-I 770 W/m 14,7 C 4,8 km/h (1 Bft)
20.08.2016 11:46 22,6 C 22,6 C 61 % 1012,8 hPa 0,0 mm 2,6 km/h (1 Bft) SO 133 1 min 0,000 mm 5,9 UV-I 773 W/m 14,7 C 3,2 km/h (1 Bft)
20.08.2016 11:47 22,7 C 22,7 C 62 % 1012,8 hPa 0,0 mm 3,2 km/h (1 Bft) O-SO 116 1 min 0,000 mm 5,9 UV-I 773 W/m 15,0 C 6,4 km/h (2 Bft)
20.08.2016 11:48 22,8 C 22,8 C 62 % 1012,8 hPa 0,0 mm 1,9 km/h (1 Bft) O-SO 116 1 min 0,000 mm 5,9 UV-I 759 W/m 15,1 C 3,2 km/h (1 Bft)
20.08.2016 11:49 22,8 C 22,8 C 63 % 1012,8 hPa 0,0 mm 1,2 km/h (1 Bft) SO 125 1 min 0,000 mm 5,9 UV-I 765 W/m 15,4 C 3,2 km/h (1 Bft)
20.08.2016 11:50 22,9 C 22,9 C 62 % 1012,8 hPa 0,0 mm 2,4 km/h (1 Bft) O-NO 64 1 min 0,000 mm 5,9 UV-I 770 W/m 15,2 C 4,8 km/h (1 Bft)
20.08.2016 11:51 22,9 C 22,9 C 61 % 1012,7 hPa 0,0 mm 1,4 km/h (1 Bft) O-NO 70 1 min 0,000 mm 6,0 UV-I 775 W/m 15,0 C 3,2 km/h (1 Bft)
20.08.2016 11:52 23,1 C 23,1 C 63 % 1012,8 hPa 0,0 mm 2,6 km/h (1 Bft) N-NO 22 1 min 0,000 mm 6,0 UV-I 773 W/m 15,7 C 4,8 km/h (1 Bft)
20.08.2016 11:53 23,3 C 23,3 C 61 % 1012,7 hPa 0,0 mm 3,2 km/h (1 Bft) NO 40 1 min 0,000 mm 6,0 UV-I 782 W/m 15,3 C 4,8 km/h (1 Bft)
20.08.2016 11:54 23,4 C 23,4 C 65 % 1012,7 hPa 0,0 mm 5,1 km/h (1 Bft) NO 46 1 min 0,000 mm 6,1 UV-I 786 W/m 16,4 C 6,4 km/h (2 Bft)
20.08.2016 11:55 23,3 C 23,4 C 58 % 1012,7 hPa 0,0 mm 3,7 km/h (1 Bft) NO 48 1 min 0,000 mm 6,1 UV-I 788 W/m 14,6 C 6,4 km/h (2 Bft)
20.08.2016 11:56 23,4 C 23,4 C 60 % 1012,7 hPa 0,0 mm 1,5 km/h (1 Bft) O-NO 62 1 min 0,000 mm 6,0 UV-I 773 W/m 15,2 C 3,2 km/h (1 Bft)
20.08.2016 11:57 23,3 C 23,4 C 56 % 1012,7 hPa 0,0 mm 3,2 km/h (1 Bft) O 95 1 min 0,000 mm 5,9 UV-I 751 W/m 14,0 C 4,8 km/h (1 Bft)
20.08.2016 11:58 23,2 C 23,3 C 57 % 1012,6 hPa 0,0 mm 3,4 km/h (1 Bft) O-NO 78 1 min 0,000 mm 5,9 UV-I 652 W/m 14,2 C 4,8 km/h (1 Bft)
20.08.2016 11:59 23,2 C 23,2 C 58 % 1012,6 hPa 0,0 mm 2,5 km/h (1 Bft) O 88 1 min 0,000 mm 5,3 UV-I 606 W/m 14,5 C 3,2 km/h (1 Bft)
20.08.2016 12:00 23,1 C 23,2 C 62 % 1012,6 hPa 0,0 mm 1,8 km/h (1 Bft) O 88 1 min 0,000 mm 4,6 UV-I 606 W/m 15,4 C 3,2 km/h (1 Bft)
20.08.2016 12:01 23,2 C 23,2 C 56 % 1012,5 hPa 0,0 mm 0,1 km/h (0 Bft) O 88 1 min 0,457 mm 6,1 UV-I 578 W/m 13,9 C 1,6 km/h (1 Bft)
20.08.2016 12:02 23,2 C 23,2 C 62 % 1012,5 hPa 0,0 mm 0,6 km/h (0 Bft) O 88 1 min 0,000 mm 6,0 UV-I 578 W/m 15,5 C 1,6 km/h (1 Bft)
20.08.2016 12:03 23,3 C 23,3 C 58 % 1012,5 hPa 0,0 mm 2,3 km/h (1 Bft) N-NW 331 1 min 0,000 mm 5,7 UV-I 578 W/m 14,6 C 3,2 km/h (1 Bft)
20.08.2016 12:04 23,3 C 23,3 C 60 % 1012,5 hPa 0,0 mm 3,4 km/h (1 Bft) O 88 1 min 0,000 mm 5,0 UV-I 613 W/m 15,1 C 6,4 km/h (2 Bft)
20.08.2016 12:05 23,2 C 23,3 C 59 % 1012,5 hPa 0,0 mm 3,8 km/h (1 Bft) NO 42 1 min 0,000 mm 5,4 UV-I 803 W/m 14,7 C 6,4 km/h (2 Bft)
20.08.2016 12:06 23,1 C 23,2 C 63 % 1012,5 hPa 0,0 mm 3,2 km/h (1 Bft) O 89 1 min 0,000 mm 6,3 UV-I 809 W/m 15,7 C 6,4 km/h (2 Bft)
20.08.2016 12:07 22,9 C 23,1 C 61 % 1012,5 hPa 0,0 mm 3,1 km/h (1 Bft) O-NO 65 1 min 0,000 mm 6,2 UV-I 798 W/m 15,0 C 4,8 km/h (1 Bft)
20.08.2016 12:08 23,1 C 23,1 C 65 % 1012,4 hPa 0,0 mm 5,4 km/h (1 Bft) O-SO 108 1 min 0,000 mm 6,3 UV-I 803 W/m 16,2 C 8,0 km/h (2 Bft)
20.08.2016 12:09 23,2 C 23,2 C 62 % 1012,4 hPa 0,0 mm 3,3 km/h (1 Bft) O-NO 75 1 min 0,000 mm 6,4 UV-I 828 W/m 15,5 C 4,8 km/h (1 Bft)
20.08.2016 12:10 23,2 C 23,2 C 65 % 1012,4 hPa 0,0 mm 2,9 km/h (1 Bft) O-SO 117 1 min 0,000 mm 6,4 UV-I 837 W/m 16,2 C 4,8 km/h (1 Bft)
20.08.2016 12:11 23,2 C 23,2 C 62 % 1012,4 hPa 0,0 mm 1,3 km/h (1 Bft) O-SO 117 1 min 0,000 mm 6,5 UV-I 851 W/m 15,5 C 3,2 km/h (1 Bft)
20.08.2016 12:12 23,3 C 23,3 C 60 % 1012,4 hPa 0,0 mm 1,4 km/h (1 Bft) O-NO 77 1 min 0,000 mm 6,5 UV-I 851 W/m 15,1 C 3,2 km/h (1 Bft)
20.08.2016 12:13 23,4 C 23,4 C 66 % 1012,4 hPa 0,0 mm 2,3 km/h (1 Bft) O-NO 62 1 min 0,000 mm 6,3 UV-I 844 W/m 16,7 C 3,2 km/h (1 Bft)
20.08.2016 12:14 23,4 C 23,5 C 64 % 1012,4 hPa 0,0 mm 4,4 km/h (1 Bft) SO 127 1 min 0,000 mm 6,2 UV-I 765 W/m 16,2 C 6,4 km/h (2 Bft)
20.08.2016 12:15 23,4 C 23,4 C 62 % 1012,4 hPa 0,0 mm 3,2 km/h (1 Bft) O 81 1 min 0,000 mm 5,0 UV-I 765 W/m 15,7 C 6,4 km/h (2 Bft)
20.08.2016 12:16 23,4 C 23,5 C 64 % 1012,4 hPa 0,0 mm 7,2 km/h (2 Bft) O-NO 71 1 min 0,000 mm 4,6 UV-I 529 W/m 16,2 C 9,7 km/h (2 Bft)
20.08.2016 12:17 23,3 C 23,4 C 61 % 1012,4 hPa 0,0 mm 6,4 km/h (2 Bft) O 82 1 min 0,000 mm 3,9 UV-I 431 W/m 15,3 C 9,7 km/h (2 Bft)
20.08.2016 12:18 23,3 C 23,3 C 64 % 1012,4 hPa 0,0 mm 4,0 km/h (1 Bft) O 84 0 min 0,000 mm 4,1 UV-I 427 W/m 16,1 C 6,4 km/h (2 Bft)
20.08.2016 12:19 23,3 C 23,3 C 63 % 1012,4 hPa 0,0 mm 4,1 km/h (1 Bft) S 172 0 min 0,000 mm 4,0 UV-I 422 W/m 15,9 C 8,0 km/h (2 Bft)
20.08.2016 12:20 23,2 C 23,3 C 63 % 1012,4 hPa 0,0 mm 2,8 km/h (1 Bft) O-NO 61 0 min 0,000 mm 3,9 UV-I 404 W/m 15,8 C 4,8 km/h (1 Bft)
20.08.2016 12:21 23,2 C 23,2 C 60 % 1012,4 hPa 0,0 mm 4,8 km/h (1 Bft) NO 38 1 min 0,000 mm 4,3 UV-I 480 W/m 15,0 C 6,4 km/h (2 Bft)
20.08.2016 12:22 23,2 C 23,3 C 60 % 1012,4 hPa 0,0 mm 1,7 km/h (1 Bft) NO 38 1 min 0,000 mm 4,0 UV-I 466 W/m 15,0 C 3,2 km/h (1 Bft)
20.08.2016 12:23 23,2 C 23,2 C 63 % 1012,4 hPa 0,0 mm 2,1 km/h (1 Bft) NO 49 0 min 0,000 mm 3,8 UV-I 376 W/m 15,8 C 3,2 km/h (1 Bft)
20.08.2016 12:24 23,1 C 23,2 C 65 % 1012,4 hPa 0,0 mm 4,0 km/h (1 Bft) O-NO 70 1 min 0,000 mm 4,4 UV-I 446 W/m 16,2 C 8,0 km/h (2 Bft)
20.08.2016 12:25 23,0 C 23,1 C 74 % 1012,5 hPa 0,0 mm 2,3 km/h (1 Bft) N-NO 24 1 min 0,000 mm 4,1 UV-I 450 W/m 18,1 C 4,8 km/h (1 Bft)
20.08.2016 12:26 22,9 C 23,0 C 67 % 1012,5 hPa 0,0 mm 1,9 km/h (1 Bft) NO 44 1 min 0,000 mm 4,7 UV-I 510 W/m 16,4 C 3,2 km/h (1 Bft)
20.08.2016 12:27 22,9 C 22,9 C 63 % 1012,5 hPa 0,0 mm 1,7 km/h (1 Bft) O-NO 62 1 min 0,000 mm 5,7 UV-I 510 W/m 15,5 C 4,8 km/h (1 Bft)
20.08.2016 12:28 23,0 C 23,0 C 65 % 1012,4 hPa 0,0 mm 2,6 km/h (1 Bft) O 82 1 min 0,000 mm 5,6 UV-I 670 W/m 16,1 C 3,2 km/h (1 Bft)
20.08.2016 12:29 23,2 C 23,2 C 70 % 1012,5 hPa 0,0 mm 4,4 km/h (1 Bft) SO 130 1 min 0,000 mm 5,8 UV-I 670 W/m 17,4 C 6,4 km/h (2 Bft)
20.08.2016 12:30 23,3 C 23,3 C 71 % 1012,5 hPa 0,0 mm 3,8 km/h (1 Bft) O 85 1 min 0,000 mm 6,4 UV-I 775 W/m 17,7 C 6,4 km/h (2 Bft)
20.08.2016 12:31 23,5 C 23,5 C 65 % 1012,5 hPa 0,0 mm 6,5 km/h (2 Bft) NO 47 1 min 0,000 mm 6,4 UV-I 810 W/m 16,5 C 9,7 km/h (2 Bft)
20.08.2016 12:32 23,6 C 23,6 C 62 % 1012,5 hPa 0,0 mm 2,6 km/h (1 Bft) O 92 1 min 0,000 mm 6,7 UV-I 851 W/m 15,9 C 4,8 km/h (1 Bft)
20.08.2016 12:33 23,7 C 23,7 C 62 % 1012,5 hPa 0,0 mm 2,3 km/h (1 Bft) O-NO 66 1 min 0,000 mm 6,9 UV-I 902 W/m 16,0 C 3,2 km/h (1 Bft)
20.08.2016 12:34 23,8 C 23,8 C 60 % 1012,5 hPa 0,0 mm 7,7 km/h (2 Bft) NO 34 1 min 0,000 mm 6,7 UV-I 714 W/m 15,6 C 12,9 km/h (3 Bft)
20.08.2016 12:35 23,9 C 23,9 C 63 % 1012,5 hPa 0,0 mm 10,1 km/h (2 Bft) O-NO 71 1 min 0,000 mm 5,1 UV-I 670 W/m 16,4 C 12,9 km/h (3 Bft)
20.08.2016 12:36 23,8 C 23,9 C 57 % 1012,4 hPa 0,0 mm 9,0 km/h (2 Bft) NO 51 1 min 0,000 mm 4,9 UV-I 670 W/m 14,8 C 12,9 km/h (3 Bft)
20.08.2016 12:37 23,7 C 23,8 C 55 % 1012,4 hPa 0,0 mm 5,9 km/h (2 Bft) O 100 1 min 0,000 mm 4,8 UV-I 540 W/m 14,1 C 11,3 km/h (2 Bft)
20.08.2016 12:38 23,6 C 23,7 C 59 % 1012,5 hPa 0,0 mm 5,0 km/h (1 Bft) O 94 1 min 0,000 mm 5,0 UV-I 543 W/m 15,1 C 6,4 km/h (2 Bft)
20.08.2016 12:39 23,4 C 23,6 C 56 % 1012,5 hPa 0,0 mm 4,8 km/h (1 Bft) NO 48 1 min 0,000 mm 4,5 UV-I 482 W/m 14,1 C 6,4 km/h (2 Bft)
20.08.2016 12:40 23,4 C 23,4 C 59 % 1012,5 hPa 0,0 mm 6,0 km/h (2 Bft) O 90 1 min 0,000 mm 4,7 UV-I 561 W/m 14,9 C 9,7 km/h (2 Bft)
20.08.2016 12:41 23,4 C 23,4 C 57 % 1012,5 hPa 0,0 mm 5,7 km/h (1 Bft) O 85 1 min 0,000 mm 4,6 UV-I 476 W/m 14,4 C 9,7 km/h (2 Bft)
20.08.2016 12:42 23,4 C 23,4 C 61 % 1012,5 hPa 0,0 mm 3,2 km/h (1 Bft) NO 49 1 min 0,000 mm 4,7 UV-I 499 W/m 15,4 C 6,4 km/h (2 Bft)
20.08.2016 12:43 23,4 C 23,4 C 59 % 1012,5 hPa 0,0 mm 3,2 km/h (1 Bft) O-NO 67 1 min 0,000 mm 4,7 UV-I 508 W/m 14,9 C 4,8 km/h (1 Bft)
20.08.2016 12:44 23,4 C 23,4 C 55 % 1012,5 hPa 0,0 mm 3,7 km/h (1 Bft) NO 40 1 min 0,000 mm 5,7 UV-I 508 W/m 13,8 C 4,8 km/h (1 Bft)
20.08.2016 12:45 23,6 C 23,6 C 59 % 1012,5 hPa 0,0 mm 2,1 km/h (1 Bft) S-SO 161 1 min 0,000 mm 5,8 UV-I 740 W/m 15,1 C 3,2 km/h (1 Bft)
20.08.2016 12:46 23,6 C 23,6 C 57 % 1012,5 hPa 0,0 mm 1,6 km/h (1 Bft) O 97 1 min 0,000 mm 5,0 UV-I 612 W/m 14,6 C 4,8 km/h (1 Bft)
20.08.2016 12:47 23,6 C 23,7 C 59 % 1012,5 hPa 0,0 mm 3,8 km/h (1 Bft) O-NO 65 1 min 0,000 mm 5,7 UV-I 686 W/m 15,1 C 6,4 km/h (2 Bft)
20.08.2016 12:48 23,6 C 23,7 C 61 % 1012,4 hPa 0,0 mm 3,6 km/h (1 Bft) O-NO 68 1 min 0,000 mm 5,3 UV-I 661 W/m 15,6 C 4,8 km/h (1 Bft)
20.08.2016 12:49 23,6 C 23,6 C 59 % 1012,5 hPa 0,0 mm 3,3 km/h (1 Bft) NO 49 1 min 0,000 mm 5,3 UV-I 661 W/m 15,1 C 4,8 km/h (1 Bft)
20.08.2016 12:50 23,8 C 23,8 C 60 % 1012,5 hPa 0,0 mm 1,7 km/h (1 Bft) NO 48 1 min 0,000 mm 4,3 UV-I 661 W/m 15,6 C 3,2 km/h (1 Bft)
20.08.2016 12:51 23,9 C 23,9 C 61 % 1012,5 hPa 0,0 mm 3,0 km/h (1 Bft) NO 35 1 min 0,000 mm 4,2 UV-I 471 W/m 15,9 C 4,8 km/h (1 Bft)
20.08.2016 12:52 23,9 C 23,9 C 61 % 1012,5 hPa 0,0 mm 4,6 km/h (1 Bft) O 80 1 min 0,000 mm 5,8 UV-I 496 W/m 15,9 C 6,4 km/h (2 Bft)
20.08.2016 12:53 23,8 C 23,9 C 57 % 1012,6 hPa 0,0 mm 4,3 km/h (1 Bft) O 83 1 min 0,000 mm 4,6 UV-I 496 W/m 14,8 C 6,4 km/h (2 Bft)
20.08.2016 12:54 23,8 C 23,8 C 58 % 1012,6 hPa 0,0 mm 5,8 km/h (2 Bft) O-NO 75 1 min 0,000 mm 5,2 UV-I 496 W/m 15,0 C 8,0 km/h (2 Bft)
20.08.2016 12:55 23,8 C 23,8 C 59 % 1012,6 hPa 0,0 mm 3,6 km/h (1 Bft) NO 38 1 min 0,000 mm 5,3 UV-I 552 W/m 15,3 C 4,8 km/h (1 Bft)
20.08.2016 12:56 23,7 C 23,8 C 63 % 1012,7 hPa 0,0 mm 3,4 km/h (1 Bft) NO 55 1 min 0,000 mm 4,3 UV-I 462 W/m 16,2 C 8,0 km/h (2 Bft)
20.08.2016 12:57 23,7 C 23,7 C 58 % 1012,7 hPa 0,0 mm 4,4 km/h (1 Bft) NO 45 1 min 0,000 mm 4,7 UV-I 496 W/m 14,9 C 4,8 km/h (1 Bft)
20.08.2016 12:58 23,7 C 23,7 C 56 % 1012,7 hPa 0,0 mm 1,9 km/h (1 Bft) NO 46 1 min 0,000 mm 4,4 UV-I 547 W/m 14,4 C 3,2 km/h (1 Bft)
20.08.2016 12:59 23,8 C 23,8 C 57 % 1012,6 hPa 0,0 mm 3,5 km/h (1 Bft) NW 326 1 min 0,000 mm 4,8 UV-I 517 W/m 14,8 C 4,8 km/h (1 Bft)
20.08.2016 13:00 23,8 C 23,8 C 59 % 1012,7 hPa 0,0 mm 2,5 km/h (1 Bft) NW 326 1 min 0,406 mm 4,5 UV-I 517 W/m 15,3 C 3,2 km/h (1 Bft)
20.08.2016 13:01 23,8 C 23,8 C 56 % 1012,6 hPa 0,0 mm 4,0 km/h (1 Bft) N-NW 327 1 min 0,000 mm 5,4 UV-I 642 W/m 14,5 C 4,8 km/h (1 Bft)
20.08.2016 13:02 23,8 C 23,8 C 57 % 1012,7 hPa 0,0 mm 2,3 km/h (1 Bft) N 360 1 min 0,000 mm 5,7 UV-I 700 W/m 14,8 C 4,8 km/h (1 Bft)
20.08.2016 13:03 23,9 C 23,9 C 63 % 1012,7 hPa 0,0 mm 4,8 km/h (1 Bft) N-NW 342 1 min 0,000 mm 5,4 UV-I 759 W/m 16,4 C 6,4 km/h (2 Bft)
20.08.2016 13:04 24,1 C 24,1 C 61 % 1012,7 hPa 0,0 mm 4,8 km/h (1 Bft) N 5 1 min 0,000 mm 4,3 UV-I 759 W/m 16,1 C 6,4 km/h (2 Bft)
20.08.2016 13:05 24,2 C 24,2 C 57 % 1012,7 hPa 0,0 mm 5,7 km/h (1 Bft) O-NO 59 1 min 0,000 mm 3,9 UV-I 443 W/m 15,1 C 6,4 km/h (2 Bft)
20.08.2016 13:06 24,2 C 24,2 C 62 % 1012,7 hPa 0,0 mm 5,1 km/h (1 Bft) O 84 0 min 0,000 mm 3,7 UV-I 388 W/m 16,4 C 6,4 km/h (2 Bft)
20.08.2016 13:07 24,1 C 24,2 C 60 % 1012,7 hPa 0,0 mm 3,6 km/h (1 Bft) O-SO 119 0 min 0,000 mm 3,7 UV-I 390 W/m 15,8 C 4,8 km/h (1 Bft)
20.08.2016 13:08 23,9 C 24,1 C 59 % 1012,7 hPa 0,0 mm 3,8 km/h (1 Bft) O-SO 120 0 min 0,000 mm 3,9 UV-I 406 W/m 15,4 C 4,8 km/h (1 Bft)
20.08.2016 13:09 23,8 C 23,9 C 57 % 1012,8 hPa 0,0 mm 2,5 km/h (1 Bft) O-SO 119 0 min 0,000 mm 4,7 UV-I 441 W/m 14,8 C 4,8 km/h (1 Bft)
20.08.2016 13:10 23,7 C 23,8 C 57 % 1012,7 hPa 0,0 mm 0,6 km/h (0 Bft) O-SO 119 0 min 0,000 mm 4,3 UV-I 441 W/m 14,7 C 1,6 km/h (1 Bft)
20.08.2016 13:11 23,7 C 23,7 C 58 % 1012,7 hPa 0,0 mm 1,2 km/h (1 Bft) O-SO 119 0 min 0,000 mm 4,3 UV-I 441 W/m 14,9 C 1,6 km/h (1 Bft)
20.08.2016 13:12 23,8 C 23,8 C 58 % 1012,7 hPa 0,0 mm 3,4 km/h (1 Bft) N 355 0 min 0,000 mm 4,3 UV-I 441 W/m 15,0 C 4,8 km/h (1 Bft)
20.08.2016 13:13 23,9 C 23,9 C 62 % 1012,7 hPa 0,0 mm 2,8 km/h (1 Bft) N-NO 29 1 min 0,000 mm 4,7 UV-I 687 W/m 16,2 C 3,2 km/h (1 Bft)
20.08.2016 13:14 23,9 C 23,9 C 60 % 1012,7 hPa 0,0 mm 3,6 km/h (1 Bft) N-NW 342 1 min 0,000 mm 4,6 UV-I 687 W/m 15,7 C 6,4 km/h (2 Bft)
20.08.2016 13:15 23,9 C 24,0 C 63 % 1012,7 hPa 0,0 mm 1,9 km/h (1 Bft) N-NW 342 1 min 0,000 mm 4,6 UV-I 520 W/m 16,4 C 3,2 km/h (1 Bft)
20.08.2016 13:16 23,9 C 23,9 C 60 % 1012,7 hPa 0,0 mm 1,3 km/h (1 Bft) N-NW 342 1 min 0,000 mm 5,7 UV-I 520 W/m 15,7 C 3,2 km/h (1 Bft)
20.08.2016 13:17 24,0 C 24,0 C 64 % 1012,7 hPa 0,0 mm 1,4 km/h (1 Bft) NO 50 1 min 0,000 mm 4,5 UV-I 520 W/m 16,8 C 3,2 km/h (1 Bft)
20.08.2016 13:18 24,1 C 24,1 C 60 % 1012,7 hPa 0,0 mm 3,1 km/h (1 Bft) NO 55 1 min 0,000 mm 4,5 UV-I 520 W/m 15,8 C 4,8 km/h (1 Bft)
20.08.2016 13:19 24,2 C 24,2 C 61 % 1012,7 hPa 0,0 mm 1,1 km/h (1 Bft) NO 55 1 min 0,000 mm 4,8 UV-I 520 W/m 16,2 C 3,2 km/h (1 Bft)
20.08.2016 13:20 24,1 C 24,2 C 60 % 1012,7 hPa 0,0 mm 0,8 km/h (0 Bft) NO 55 1 min 0,000 mm 5,7 UV-I 568 W/m 15,8 C 1,6 km/h (1 Bft)
20.08.2016 13:21 24,1 C 24,2 C 62 % 1012,7 hPa 0,0 mm 1,7 km/h (1 Bft) NO 51 1 min 0,000 mm 5,0 UV-I 492 W/m 16,4 C 3,2 km/h (1 Bft)
20.08.2016 13:22 24,2 C 24,2 C 63 % 1012,7 hPa 0,0 mm 4,2 km/h (1 Bft) N-NW 342 1 min 0,000 mm 4,3 UV-I 547 W/m 16,7 C 6,4 km/h (2 Bft)
20.08.2016 13:23 24,3 C 24,3 C 60 % 1012,7 hPa 0,0 mm 4,8 km/h (1 Bft) N 355 1 min 0,000 mm 3,7 UV-I 547 W/m 16,0 C 6,4 km/h (2 Bft)
20.08.2016 13:24 24,3 C 24,3 C 61 % 1012,7 hPa 0,0 mm 3,8 km/h (1 Bft) N-NW 346 0 min 0,000 mm 3,5 UV-I 381 W/m 16,3 C 4,8 km/h (1 Bft)
20.08.2016 13:25 24,2 C 24,3 C 58 % 1012,7 hPa 0,0 mm 3,7 km/h (1 Bft) N-NW 343 0 min 0,000 mm 3,4 UV-I 366 W/m 15,4 C 4,8 km/h (1 Bft)
20.08.2016 13:26 24,2 C 24,2 C 58 % 1012,7 hPa 0,0 mm 2,0 km/h (1 Bft) N-NW 344 0 min 0,000 mm 3,3 UV-I 353 W/m 15,4 C 3,2 km/h (1 Bft)
20.08.2016 13:27 24,2 C 24,2 C 63 % 1012,7 hPa 0,0 mm 1,7 km/h (1 Bft) O-NO 69 0 min 0,000 mm 3,3 UV-I 339 W/m 16,7 C 3,2 km/h (1 Bft)
20.08.2016 13:28 23,9 C 24,2 C 59 % 1012,7 hPa 0,0 mm 2,1 km/h (1 Bft) NO 48 0 min 0,000 mm 3,3 UV-I 350 W/m 15,4 C 3,2 km/h (1 Bft)
20.08.2016 13:29 23,8 C 23,9 C 58 % 1012,7 hPa 0,0 mm 1,3 km/h (1 Bft) NO 47 0 min 0,000 mm 3,3 UV-I 346 W/m 15,0 C 3,2 km/h (1 Bft)
20.08.2016 13:30 23,8 C 23,8 C 59 % 1012,7 hPa 0,0 mm 3,6 km/h (1 Bft) N-NW 340 0 min 0,000 mm 3,3 UV-I 346 W/m 15,3 C 4,8 km/h (1 Bft)
20.08.2016 13:31 23,8 C 23,8 C 62 % 1012,7 hPa 0,0 mm 3,0 km/h (1 Bft) N 5 0 min 0,000 mm 3,3 UV-I 345 W/m 16,1 C 4,8 km/h (1 Bft)
20.08.2016 13:32 23,8 C 23,9 C 62 % 1012,7 hPa 0,0 mm 3,4 km/h (1 Bft) N-NO 19 0 min 0,000 mm 3,2 UV-I 339 W/m 16,1 C 4,8 km/h (1 Bft)
20.08.2016 13:33 23,9 C 23,9 C 61 % 1012,7 hPa 0,0 mm 4,8 km/h (1 Bft) N-NW 338 0 min 0,000 mm 3,2 UV-I 329 W/m 15,9 C 6,4 km/h (2 Bft)
20.08.2016 13:34 23,9 C 23,9 C 59 % 1012,7 hPa 0,0 mm 2,2 km/h (1 Bft) N-NW 338 0 min 0,000 mm 3,1 UV-I 323 W/m 15,4 C 4,8 km/h (1 Bft)
20.08.2016 13:35 23,9 C 23,9 C 60 % 1012,7 hPa 0,0 mm 3,7 km/h (1 Bft) N 355 0 min 0,000 mm 3,1 UV-I 320 W/m 15,7 C 6,4 km/h (2 Bft)
20.08.2016 13:36 23,8 C 23,9 C 60 % 1012,7 hPa 0,0 mm 2,5 km/h (1 Bft) N 355 0 min 0,000 mm 3,1 UV-I 315 W/m 15,6 C 4,8 km/h (1 Bft)
20.08.2016 13:37 23,8 C 23,8 C 64 % 1012,7 hPa 0,0 mm 3,5 km/h (1 Bft) W-NW 296 0 min 0,000 mm 3,0 UV-I 311 W/m 16,6 C 6,4 km/h (2 Bft)
20.08.2016 13:38 23,8 C 23,8 C 66 % 1012,7 hPa 0,0 mm 4,1 km/h (1 Bft) NW 308 0 min 0,000 mm 3,0 UV-I 308 W/m 17,1 C 8,0 km/h (2 Bft)
20.08.2016 13:39 23,7 C 23,8 C 63 % 1012,7 hPa 0,0 mm 3,9 km/h (1 Bft) W-NW 286 0 min 0,000 mm 3,0 UV-I 301 W/m 16,2 C 4,8 km/h (1 Bft)
20.08.2016 13:40 23,6 C 23,7 C 64 % 1012,7 hPa 0,0 mm 4,4 km/h (1 Bft) W-NW 299 0 min 0,000 mm 2,9 UV-I 295 W/m 16,4 C 8,0 km/h (2 Bft)
20.08.2016 13:41 23,6 C 23,6 C 64 % 1012,7 hPa 0,0 mm 5,0 km/h (1 Bft) NW 305 0 min 0,000 mm 2,9 UV-I 294 W/m 16,4 C 8,0 km/h (2 Bft)
20.08.2016 13:42 23,5 C 23,6 C 62 % 1012,7 hPa 0,0 mm 2,2 km/h (1 Bft) W-NW 288 0 min 0,000 mm 2,9 UV-I 294 W/m 15,8 C 4,8 km/h (1 Bft)
20.08.2016 13:43 23,4 C 23,6 C 64 % 1012,7 hPa 0,0 mm 1,1 km/h (1 Bft) W-NW 289 0 min 0,000 mm 2,9 UV-I 294 W/m 16,2 C 1,6 km/h (1 Bft)
20.08.2016 13:44 23,4 C 23,4 C 65 % 1012,6 hPa 0,0 mm 3,2 km/h (1 Bft) NW 306 0 min 0,000 mm 2,9 UV-I 297 W/m 16,4 C 4,8 km/h (1 Bft)
20.08.2016 13:45 23,5 C 23,5 C 67 % 1012,7 hPa 0,0 mm 2,6 km/h (1 Bft) N 360 0 min 0,000 mm 2,9 UV-I 311 W/m 17,0 C 4,8 km/h (1 Bft)
20.08.2016 13:46 23,6 C 23,6 C 65 % 1012,6 hPa 0,0 mm 3,8 km/h (1 Bft) N 360 0 min 0,000 mm 3,1 UV-I 323 W/m 16,6 C 4,8 km/h (1 Bft)
20.08.2016 13:47 23,7 C 23,7 C 65 % 1012,6 hPa 0,0 mm 4,3 km/h (1 Bft) NW 323 0 min 0,000 mm 3,2 UV-I 345 W/m 16,7 C 6,4 km/h (2 Bft)
20.08.2016 13:48 23,6 C 23,7 C 64 % 1012,6 hPa 0,0 mm 2,3 km/h (1 Bft) NW 325 0 min 0,000 mm 3,2 UV-I 338 W/m 16,4 C 4,8 km/h (1 Bft)
20.08.2016 13:49 23,6 C 23,6 C 65 % 1012,6 hPa 0,0 mm 7,7 km/h (2 Bft) W-NW 302 0 min 0,000 mm 3,2 UV-I 339 W/m 16,6 C 12,9 km/h (3 Bft)
20.08.2016 13:50 23,6 C 23,6 C 65 % 1012,6 hPa 0,0 mm 4,4 km/h (1 Bft) W-NW 302 0 min 0,000 mm 3,3 UV-I 346 W/m 16,6 C 8,0 km/h (2 Bft)
20.08.2016 13:51 23,6 C 23,6 C 66 % 1012,6 hPa 0,0 mm 6,0 km/h (2 Bft) NW 304 0 min 0,000 mm 3,3 UV-I 355 W/m 16,9 C 8,0 km/h (2 Bft)
20.08.2016 13:52 23,6 C 23,6 C 67 % 1012,6 hPa 0,0 mm 6,0 km/h (2 Bft) NW 325 0 min 0,000 mm 3,3 UV-I 355 W/m 17,1 C 8,0 km/h (2 Bft)
20.08.2016 13:53 23,6 C 23,6 C 65 % 1012,7 hPa 0,0 mm 4,5 km/h (1 Bft) N-NW 336 0 min 0,000 mm 3,3 UV-I 348 W/m 16,6 C 6,4 km/h (2 Bft)
20.08.2016 13:54 23,5 C 23,6 C 66 % 1012,6 hPa 0,0 mm 4,2 km/h (1 Bft) NW 324 0 min 0,000 mm 3,2 UV-I 339 W/m 16,8 C 6,4 km/h (2 Bft)
20.08.2016 13:55 23,5 C 23,5 C 65 % 1012,6 hPa 0,0 mm 6,4 km/h (2 Bft) NW 304 0 min 0,000 mm 3,1 UV-I 330 W/m 16,5 C 9,7 km/h (2 Bft)
20.08.2016 13:56 23,5 C 23,5 C 66 % 1012,6 hPa 0,0 mm 4,4 km/h (1 Bft) NW 314 0 min 0,000 mm 3,1 UV-I 323 W/m 16,8 C 6,4 km/h (2 Bft)
20.08.2016 13:57 23,4 C 23,5 C 69 % 1012,7 hPa 0,0 mm 3,3 km/h (1 Bft) N-NW 327 0 min 0,000 mm 3,0 UV-I 308 W/m 17,4 C 8,0 km/h (2 Bft)
20.08.2016 13:58 23,4 C 23,4 C 65 % 1012,7 hPa 0,0 mm 3,3 km/h (1 Bft) N-NW 348 0 min 0,000 mm 2,9 UV-I 301 W/m 16,4 C 4,8 km/h (1 Bft)
20.08.2016 13:59 23,4 C 23,4 C 64 % 1012,6 hPa 0,0 mm 2,8 km/h (1 Bft) W 279 0 min 0,000 mm 2,8 UV-I 288 W/m 16,2 C 3,2 km/h (1 Bft)
20.08.2016 14:00 23,4 C 23,4 C 63 % 1012,7 hPa 0,0 mm 5,5 km/h (1 Bft) W 273 0 min 0,000 mm 2,7 UV-I 276 W/m 15,9 C 9,7 km/h (2 Bft)
20.08.2016 14:01 23,4 C 23,4 C 65 % 1012,7 hPa 0,0 mm 4,0 km/h (1 Bft) N-NW 329 0 min 0,279 mm 2,5 UV-I 260 W/m 16,4 C 6,4 km/h (2 Bft)
20.08.2016 14:02 23,3 C 23,4 C 66 % 1012,7 hPa 0,0 mm 2,0 km/h (1 Bft) W-NW 297 0 min 0,001 mm 2,4 UV-I 234 W/m 16,6 C 3,2 km/h (1 Bft)
20.08.2016 14:03 23,3 C 23,3 C 67 % 1012,7 hPa 0,0 mm 5,6 km/h (1 Bft) W 277 0 min 0,000 mm 2,2 UV-I 221 W/m 16,8 C 9,7 km/h (2 Bft)
20.08.2016 14:04 23,2 C 23,3 C 67 % 1012,8 hPa 0,0 mm 4,2 km/h (1 Bft) W-NW 286 0 min 0,000 mm 2,1 UV-I 213 W/m 16,7 C 9,7 km/h (2 Bft)
20.08.2016 14:05 23,1 C 23,2 C 64 % 1012,8 hPa 0,0 mm 4,7 km/h (1 Bft) W-NW 300 0 min 0,000 mm 2,0 UV-I 207 W/m 15,9 C 8,0 km/h (2 Bft)
20.08.2016 14:06 23,1 C 23,1 C 64 % 1012,8 hPa 0,0 mm 4,4 km/h (1 Bft) NW 311 0 min 0,000 mm 2,0 UV-I 204 W/m 15,9 C 6,4 km/h (2 Bft)
20.08.2016 14:07 23,0 C 23,1 C 66 % 1012,8 hPa 0,0 mm 3,0 km/h (1 Bft) N 360 0 min 0,000 mm 2,0 UV-I 202 W/m 16,3 C 4,8 km/h (1 Bft)
20.08.2016 14:08 23,0 C 23,0 C 68 % 1012,8 hPa 0,0 mm 4,4 km/h (1 Bft) NW 309 0 min 0,000 mm 2,0 UV-I 200 W/m 16,8 C 6,4 km/h (2 Bft)
20.08.2016 14:09 23,0 C 23,0 C 68 % 1012,8 hPa 0,0 mm 4,6 km/h (1 Bft) NW 324 0 min 0,000 mm 2,0 UV-I 200 W/m 16,8 C 6,4 km/h (2 Bft)
20.08.2016 14:10 22,9 C 23,0 C 67 % 1012,8 hPa 0,0 mm 4,4 km/h (1 Bft) NW 306 0 min 0,000 mm 2,0 UV-I 200 W/m 16,4 C 6,4 km/h (2 Bft)
20.08.2016 14:11 22,9 C 22,9 C 67 % 1012,8 hPa 0,0 mm 5,6 km/h (1 Bft) W-NW 302 0 min 0,000 mm 2,0 UV-I 202 W/m 16,4 C 9,7 km/h (2 Bft)
20.08.2016 14:12 22,9 C 22,9 C 66 % 1012,8 hPa 0,0 mm 5,3 km/h (1 Bft) W-NW 292 0 min 0,000 mm 2,0 UV-I 206 W/m 16,2 C 9,7 km/h (2 Bft)
20.08.2016 14:13 22,9 C 22,9 C 67 % 1012,9 hPa 0,0 mm 4,3 km/h (1 Bft) W 278 0 min 0,000 mm 2,1 UV-I 211 W/m 16,4 C 9,7 km/h (2 Bft)
20.08.2016 14:14 22,9 C 22,9 C 62 % 1012,9 hPa 0,0 mm 4,8 km/h (1 Bft) W 280 0 min 0,000 mm 2,1 UV-I 225 W/m 15,2 C 8,0 km/h (2 Bft)
20.08.2016 14:15 22,9 C 22,9 C 62 % 1012,9 hPa 0,0 mm 7,5 km/h (2 Bft) NW 309 0 min 0,000 mm 2,2 UV-I 234 W/m 15,2 C 14,5 km/h (3 Bft)
20.08.2016 14:16 22,9 C 22,9 C 64 % 1012,9 hPa 0,0 mm 4,1 km/h (1 Bft) W-NW 282 0 min 0,000 mm 2,3 UV-I 243 W/m 15,7 C 6,4 km/h (2 Bft)
20.08.2016 14:17 22,8 C 22,9 C 63 % 1012,9 hPa 0,0 mm 3,2 km/h (1 Bft) W 281 0 min 0,000 mm 2,3 UV-I 250 W/m 15,4 C 6,4 km/h (2 Bft)
20.08.2016 14:18 22,8 C 22,8 C 65 % 1012,9 hPa 0,0 mm 3,0 km/h (1 Bft) W 281 0 min 0,000 mm 2,4 UV-I 253 W/m 15,9 C 4,8 km/h (1 Bft)
20.08.2016 14:19 22,7 C 22,8 C 62 % 1012,9 hPa 0,0 mm 4,2 km/h (1 Bft) W-NW 289 0 min 0,000 mm 2,4 UV-I 258 W/m 15,0 C 6,4 km/h (2 Bft)
20.08.2016 14:20 22,7 C 22,8 C 62 % 1012,9 hPa 0,0 mm 4,9 km/h (1 Bft) W-NW 294 0 min 0,000 mm 2,5 UV-I 269 W/m 15,0 C 6,4 km/h (2 Bft)
20.08.2016 14:21 22,7 C 22,7 C 64 % 1012,9 hPa 0,0 mm 6,2 km/h (2 Bft) W 265 0 min 0,000 mm 2,6 UV-I 274 W/m 15,5 C 9,7 km/h (2 Bft)
20.08.2016 14:22 22,7 C 22,7 C 64 % 1012,9 hPa 0,0 mm 4,2 km/h (1 Bft) W-NW 293 0 min 0,000 mm 2,6 UV-I 281 W/m 15,5 C 6,4 km/h (2 Bft)
20.08.2016 14:23 22,7 C 22,7 C 63 % 1012,9 hPa 0,0 mm 5,4 km/h (1 Bft) W 278 0 min 0,000 mm 2,6 UV-I 283 W/m 15,3 C 8,0 km/h (2 Bft)
20.08.2016 14:24 22,7 C 22,7 C 60 % 1012,9 hPa 0,0 mm 3,8 km/h (1 Bft) W 265 0 min 0,000 mm 2,6 UV-I 283 W/m 14,5 C 6,4 km/h (2 Bft)
20.08.2016 14:25 22,7 C 22,7 C 61 % 1012,9 hPa 0,0 mm 5,7 km/h (1 Bft) NW 311 0 min 0,000 mm 2,5 UV-I 260 W/m 14,8 C 8,0 km/h (2 Bft)
20.08.2016 14:26 22,7 C 22,7 C 62 % 1012,9 hPa 0,0 mm 5,3 km/h (1 Bft) W-NW 285 0 min 0,000 mm 2,4 UV-I 243 W/m 15,0 C 11,3 km/h (2 Bft)
20.08.2016 14:27 22,7 C 22,7 C 62 % 1012,9 hPa 0,0 mm 1,9 km/h (1 Bft) W-SW 256 0 min 0,000 mm 2,3 UV-I 223 W/m 15,0 C 4,8 km/h (1 Bft)
20.08.2016 14:28 22,7 C 22,7 C 62 % 1012,9 hPa 0,0 mm 3,1 km/h (1 Bft) W-NW 294 0 min 0,000 mm 2,0 UV-I 202 W/m 15,0 C 4,8 km/h (1 Bft)
20.08.2016 14:29 22,7 C 22,7 C 60 % 1012,9 hPa 0,0 mm 4,3 km/h (1 Bft) W-SW 254 0 min 0,000 mm 1,8 UV-I 185 W/m 14,5 C 6,4 km/h (2 Bft)
20.08.2016 14:30 22,7 C 22,7 C 62 % 1012,9 hPa 0,0 mm 5,2 km/h (1 Bft) NW 316 0 min 0,000 mm 1,7 UV-I 171 W/m 15,0 C 9,7 km/h (2 Bft)
20.08.2016 14:31 22,7 C 22,7 C 64 % 1012,9 hPa 0,0 mm 4,2 km/h (1 Bft) W-NW 292 0 min 0,000 mm 1,6 UV-I 162 W/m 15,5 C 6,4 km/h (2 Bft)
20.08.2016 14:32 22,7 C 22,7 C 62 % 1012,9 hPa 0,0 mm 4,8 km/h (1 Bft) W-NW 293 0 min 0,000 mm 1,6 UV-I 165 W/m 15,0 C 6,4 km/h (2 Bft)
20.08.2016 14:33 22,6 C 22,7 C 63 % 1012,9 hPa 0,0 mm 5,3 km/h (1 Bft) W 280 0 min 0,000 mm 1,7 UV-I 171 W/m 15,2 C 6,4 km/h (2 Bft)
20.08.2016 14:34 22,5 C 22,6 C 64 % 1012,8 hPa 0,0 mm 4,1 km/h (1 Bft) W-NW 286 0 min 0,000 mm 1,7 UV-I 176 W/m 15,3 C 6,4 km/h (2 Bft)
20.08.2016 14:35 22,4 C 22,5 C 63 % 1012,8 hPa 0,0 mm 3,0 km/h (1 Bft) NW 306 0 min 0,000 mm 1,7 UV-I 179 W/m 15,0 C 4,8 km/h (1 Bft)
20.08.2016 14:36 22,4 C 22,4 C 62 % 1012,8 hPa 0,0 mm 4,0 km/h (1 Bft) W 267 0 min 0,000 mm 1,7 UV-I 181 W/m 14,8 C 4,8 km/h (1 Bft)
20.08.2016 14:37 22,4 C 22,4 C 61 % 1012,8 hPa 0,0 mm 5,8 km/h (2 Bft) W 268 0 min 0,000 mm 1,7 UV-I 181 W/m 14,5 C 11,3 km/h (2 Bft)
20.08.2016 14:38 22,3 C 22,4 C 62 % 1012,8 hPa 0,0 mm 3,6 km/h (1 Bft) W 267 0 min 0,000 mm 1,7 UV-I 181 W/m 14,7 C 6,4 km/h (2 Bft)
20.08.2016 14:39 22,3 C 22,3 C 62 % 1012,8 hPa 0,0 mm 4,1 km/h (1 Bft) W-NW 291 0 min 0,000 mm 1,7 UV-I 181 W/m 14,7 C 8,0 km/h (2 Bft)
20.08.2016 14:40 22,3 C 22,3 C 63 % 1012,8 hPa 0,0 mm 3,6 km/h (1 Bft) NW 310 0 min 0,000 mm 1,7 UV-I 183 W/m 14,9 C 4,8 km/h (1 Bft)
20.08.2016 14:41 22,3 C 22,3 C 63 % 1012,8 hPa 0,0 mm 4,0 km/h (1 Bft) W-NW 299 0 min 0,000 mm 1,7 UV-I 183 W/m 14,9 C 8,0 km/h (2 Bft)
20.08.2016 14:42 22,3 C 22,3 C 63 % 1012,8 hPa 0,0 mm 2,1 km/h (1 Bft) W-NW 294 0 min 0,000 mm 1,7 UV-I 183 W/m 14,9 C 3,2 km/h (1 Bft)
20.08.2016 14:43 22,3 C 22,3 C 63 % 1012,8 hPa 0,0 mm 3,5 km/h (1 Bft) W 281 0 min 0,000 mm 1,7 UV-I 185 W/m 14,9 C 6,4 km/h (2 Bft)
20.08.2016 14:44 22,2 C 22,3 C 65 % 1012,8 hPa 0,0 mm 7,0 km/h (2 Bft) W 277 0 min 0,000 mm 1,7 UV-I 185 W/m 15,3 C 11,3 km/h (2 Bft)
20.08.2016 14:45 22,3 C 22,3 C 64 % 1012,8 hPa 0,0 mm 4,0 km/h (1 Bft) W-NW 297 0 min 0,000 mm 1,7 UV-I 186 W/m 15,2 C 8,0 km/h (2 Bft)
20.08.2016 14:46 22,3 C 22,3 C 65 % 1012,9 hPa 0,0 mm 4,1 km/h (1 Bft) W-NW 288 0 min 0,000 mm 1,7 UV-I 186 W/m 15,4 C 6,4 km/h (2 Bft)
20.08.2016 14:47 22,2 C 22,3 C 64 % 1012,8 hPa 0,0 mm 3,0 km/h (1 Bft) W 271 0 min 0,000 mm 1,7 UV-I 186 W/m 15,1 C 4,8 km/h (1 Bft)
20.08.2016 14:48 22,2 C 22,3 C 64 % 1012,8 hPa 0,0 mm 4,2 km/h (1 Bft) W 261 0 min 0,000 mm 1,7 UV-I 186 W/m 15,1 C 6,4 km/h (2 Bft)
20.08.2016 14:49 22,2 C 22,2 C 63 % 1012,8 hPa 0,0 mm 2,9 km/h (1 Bft) W 279 0 min 0,000 mm 1,7 UV-I 185 W/m 14,8 C 4,8 km/h (1 Bft)
20.08.2016 14:50 22,2 C 22,2 C 63 % 1012,8 hPa 0,0 mm 1,0 km/h (0 Bft) W 279 0 min 0,000 mm 1,7 UV-I 183 W/m 14,8 C 1,6 km/h (1 Bft)
20.08.2016 14:51 22,2 C 22,2 C 66 % 1012,8 hPa 0,0 mm 0,5 km/h (0 Bft) W 279 0 min 0,000 mm 1,6 UV-I 181 W/m 15,5 C 1,6 km/h (1 Bft)
20.08.2016 14:52 22,2 C 22,2 C 65 % 1012,8 hPa 0,0 mm 2,1 km/h (1 Bft) W 271 0 min 0,000 mm 1,6 UV-I 178 W/m 15,3 C 4,8 km/h (1 Bft)
20.08.2016 14:53 22,2 C 22,2 C 66 % 1012,9 hPa 0,0 mm 1,3 km/h (1 Bft) W 271 0 min 0,000 mm 1,6 UV-I 172 W/m 15,5 C 3,2 km/h (1 Bft)
20.08.2016 14:54 22,2 C 22,2 C 66 % 1012,8 hPa 0,0 mm 2,7 km/h (1 Bft) W 262 0 min 0,000 mm 1,5 UV-I 167 W/m 15,5 C 4,8 km/h (1 Bft)
20.08.2016 14:55 22,1 C 22,2 C 69 % 1012,9 hPa 0,0 mm 4,9 km/h (1 Bft) NW 311 0 min 0,000 mm 1,5 UV-I 155 W/m 16,1 C 6,4 km/h (2 Bft)
20.08.2016 14:56 22,1 C 22,2 C 67 % 1012,9 hPa 0,0 mm 4,4 km/h (1 Bft) W 277 0 min 0,000 mm 1,4 UV-I 151 W/m 15,7 C 6,4 km/h (2 Bft)
20.08.2016 14:57 22,1 C 22,1 C 68 % 1012,9 hPa 0,0 mm 3,0 km/h (1 Bft) W-NW 295 0 min 0,000 mm 1,3 UV-I 146 W/m 15,9 C 6,4 km/h (2 Bft)
20.08.2016 14:58 22,1 C 22,1 C 66 % 1013,0 hPa 0,0 mm 6,3 km/h (2 Bft) W-NW 284 0 min 0,000 mm 1,3 UV-I 142 W/m 15,4 C 11,3 km/h (2 Bft)
20.08.2016 14:59 22,1 C 22,1 C 65 % 1013,0 hPa 0,0 mm 4,7 km/h (1 Bft) W 263 0 min 0,000 mm 1,3 UV-I 142 W/m 15,2 C 8,0 km/h (2 Bft)
20.08.2016 15:00 22,1 C 22,1 C 67 % 1013,0 hPa 0,0 mm 5,1 km/h (1 Bft) W-SW 242 0 min 0,000 mm 1,3 UV-I 141 W/m 15,7 C 6,4 km/h (2 Bft)
20.08.2016 15:01 22,0 C 22,1 C 66 % 1013,0 hPa 0,0 mm 4,9 km/h (1 Bft) W-NW 283 0 min 0,152 mm 1,3 UV-I 142 W/m 15,3 C 6,4 km/h (2 Bft)
20.08.2016 15:02 21,9 C 22,0 C 67 % 1013,1 hPa 0,0 mm 4,2 km/h (1 Bft) SW 232 0 min 0,000 mm 1,3 UV-I 142 W/m 15,5 C 9,7 km/h (2 Bft)
20.08.2016 15:03 21,9 C 21,9 C 70 % 1013,1 hPa 0,0 mm 5,9 km/h (2 Bft) W 275 0 min 0,000 mm 1,3 UV-I 142 W/m 16,2 C 9,7 km/h (2 Bft)
20.08.2016 15:04 21,9 C 21,9 C 66 % 1013,1 hPa 0,0 mm 4,6 km/h (1 Bft) W 263 0 min 0,000 mm 1,3 UV-I 141 W/m 15,3 C 6,4 km/h (2 Bft)
20.08.2016 15:05 21,8 C 21,9 C 67 % 1013,1 hPa 0,0 mm 4,2 km/h (1 Bft) W 261 0 min 0,000 mm 1,3 UV-I 141 W/m 15,4 C 6,4 km/h (2 Bft)
20.08.2016 15:06 21,8 C 21,8 C 68 % 1013,2 hPa 0,0 mm 4,4 km/h (1 Bft) W 265 0 min 0,000 mm 1,3 UV-I 139 W/m 15,6 C 6,4 km/h (2 Bft)
20.08.2016 15:07 21,8 C 21,8 C 68 % 1013,2 hPa 0,0 mm 3,4 km/h (1 Bft) W 269 0 min 0,000 mm 1,3 UV-I 134 W/m 15,6 C 6,4 km/h (2 Bft)
20.08.2016 15:08 21,7 C 21,8 C 71 % 1013,2 hPa 0,0 mm 3,3 km/h (1 Bft) W 267 0 min 0,000 mm 1,2 UV-I 130 W/m 16,2 C 4,8 km/h (1 Bft)
20.08.2016 15:09 21,7 C 21,7 C 70 % 1013,2 hPa 0,0 mm 2,4 km/h (1 Bft) W 272 0 min 0,000 mm 1,2 UV-I 127 W/m 16,0 C 4,8 km/h (1 Bft)
20.08.2016 15:10 21,7 C 21,7 C 70 % 1013,2 hPa 0,0 mm 0,3 km/h (0 Bft) W 272 0 min 0,000 mm 1,1 UV-I 121 W/m 16,0 C 1,6 km/h (1 Bft)
20.08.2016 15:11 21,7 C 21,7 C 72 % 1013,2 hPa 0,0 mm 0,1 km/h (0 Bft) W 272 0 min 0,000 mm 1,1 UV-I 116 W/m 16,4 C 1,6 km/h (1 Bft)
20.08.2016 15:12 21,7 C 21,7 C 70 % 1013,1 hPa 0,0 mm 0,8 km/h (0 Bft) W 272 0 min 0,000 mm 1,0 UV-I 113 W/m 16,0 C 1,6 km/h (1 Bft)
20.08.2016 15:13 21,6 C 21,7 C 71 % 1013,1 hPa 0,0 mm 2,0 km/h (1 Bft) W 273 0 min 0,000 mm 1,0 UV-I 107 W/m 16,1 C 3,2 km/h (1 Bft)
20.08.2016 15:14 21,6 C 21,7 C 71 % 1013,1 hPa 0,0 mm 0,9 km/h (0 Bft) W 272 0 min 0,000 mm 1,0 UV-I 107 W/m 16,1 C 1,6 km/h (1 Bft)
20.08.2016 15:15 21,6 C 21,6 C 74 % 1013,1 hPa 0,0 mm 1,3 km/h (1 Bft) W 273 0 min 0,000 mm 1,0 UV-I 109 W/m 16,8 C 3,2 km/h (1 Bft)
20.08.2016 15:16 21,6 C 21,6 C 72 % 1013,2 hPa 0,0 mm 1,5 km/h (1 Bft) W 272 0 min 0,000 mm 1,0 UV-I 111 W/m 16,3 C 3,2 km/h (1 Bft)
20.08.2016 15:17 21,5 C 21,6 C 74 % 1013,2 hPa 0,0 mm 3,3 km/h (1 Bft) W-NW 283 0 min 0,000 mm 1,1 UV-I 114 W/m 16,7 C 4,8 km/h (1 Bft)
20.08.2016 15:18 21,5 C 21,5 C 74 % 1013,2 hPa 0,0 mm 1,4 km/h (1 Bft) W 281 0 min 0,000 mm 1,1 UV-I 120 W/m 16,7 C 3,2 km/h (1 Bft)
20.08.2016 15:19 21,4 C 21,5 C 75 % 1013,2 hPa 0,0 mm 3,7 km/h (1 Bft) W 259 0 min 0,000 mm 1,1 UV-I 121 W/m 16,8 C 4,8 km/h (1 Bft)
20.08.2016 15:20 21,4 C 21,4 C 73 % 1013,2 hPa 0,0 mm 2,5 km/h (1 Bft) W-SW 244 0 min 0,000 mm 1,1 UV-I 121 W/m 16,4 C 4,8 km/h (1 Bft)
20.08.2016 15:21 21,4 C 21,4 C 72 % 1013,2 hPa 0,0 mm 2,1 km/h (1 Bft) W-SW 247 0 min 0,000 mm 1,1 UV-I 120 W/m 16,1 C 4,8 km/h (1 Bft)
20.08.2016 15:22 21,4 C 21,4 C 75 % 1013,3 hPa 0,0 mm 1,7 km/h (1 Bft) W-SW 246 0 min 0,000 mm 1,1 UV-I 120 W/m 16,8 C 3,2 km/h (1 Bft)
20.08.2016 15:23 21,4 C 21,4 C 73 % 1013,3 hPa 0,0 mm 1,8 km/h (1 Bft) W-SW 246 0 min 0,000 mm 1,0 UV-I 104 W/m 16,4 C 4,8 km/h (1 Bft)
20.08.2016 15:24 21,4 C 21,4 C 73 % 1013,3 hPa 0,0 mm 2,8 km/h (1 Bft) W-SW 247 0 min 0,000 mm 1,0 UV-I 98 W/m 16,4 C 4,8 km/h (1 Bft)
20.08.2016 15:25 21,4 C 21,4 C 72 % 1013,3 hPa 0,0 mm 3,9 km/h (1 Bft) SW 236 0 min 0,000 mm 0,8 UV-I 95 W/m 16,1 C 4,8 km/h (1 Bft)
20.08.2016 15:26 21,4 C 21,4 C 74 % 1013,3 hPa 0,0 mm 3,8 km/h (1 Bft) W-SW 244 0 min 0,000 mm 0,9 UV-I 91 W/m 16,6 C 4,8 km/h (1 Bft)
20.08.2016 15:27 21,3 C 21,4 C 74 % 1013,3 hPa 0,0 mm 3,8 km/h (1 Bft) W-SW 257 0 min 0,000 mm 0,8 UV-I 91 W/m 16,5 C 4,8 km/h (1 Bft)
20.08.2016 15:28 21,3 C 21,3 C 75 % 1013,3 hPa 0,0 mm 3,9 km/h (1 Bft) W-SW 242 0 min 0,000 mm 0,9 UV-I 91 W/m 16,7 C 6,4 km/h (2 Bft)
20.08.2016 15:29 21,3 C 21,3 C 77 % 1013,3 hPa 0,0 mm 6,6 km/h (2 Bft) W-SW 248 0 min 0,000 mm 0,9 UV-I 93 W/m 17,1 C 11,3 km/h (2 Bft)
20.08.2016 15:30 21,2 C 21,3 C 73 % 1013,3 hPa 0,0 mm 6,0 km/h (2 Bft) W-SW 255 0 min 0,000 mm 0,9 UV-I 95 W/m 16,2 C 8,0 km/h (2 Bft)
20.08.2016 15:31 21,2 C 21,2 C 73 % 1013,3 hPa 0,0 mm 5,8 km/h (2 Bft) W-SW 250 0 min 0,000 mm 0,9 UV-I 97 W/m 16,2 C 11,3 km/h (2 Bft)
20.08.2016 15:32 21,2 C 21,2 C 72 % 1013,4 hPa 0,0 mm 3,3 km/h (1 Bft) W 261 0 min 0,000 mm 0,9 UV-I 97 W/m 15,9 C 4,8 km/h (1 Bft)
20.08.2016 15:33 21,2 C 21,2 C 73 % 1013,4 hPa 0,0 mm 5,4 km/h (1 Bft) W 275 0 min 0,000 mm 0,9 UV-I 97 W/m 16,2 C 8,0 km/h (2 Bft)
20.08.2016 15:34 21,2 C 21,2 C 74 % 1013,4 hPa 0,0 mm 7,6 km/h (2 Bft) W-SW 258 0 min 0,000 mm 0,9 UV-I 97 W/m 16,4 C 12,9 km/h (3 Bft)
20.08.2016 15:35 21,2 C 21,2 C 73 % 1013,4 hPa 0,0 mm 9,5 km/h (2 Bft) W 267 0 min 0,000 mm 0,9 UV-I 95 W/m 16,2 C 12,9 km/h (3 Bft)
20.08.2016 15:36 21,2 C 21,2 C 72 % 1013,4 hPa 0,0 mm 7,6 km/h (2 Bft) W 275 0 min 0,000 mm 0,9 UV-I 93 W/m 15,9 C 11,3 km/h (2 Bft)
20.08.2016 15:37 21,2 C 21,2 C 72 % 1013,4 hPa 0,0 mm 5,9 km/h (2 Bft) W 263 0 min 0,000 mm 0,9 UV-I 91 W/m 15,9 C 9,7 km/h (2 Bft)
20.08.2016 15:38 21,2 C 21,2 C 73 % 1013,4 hPa 0,0 mm 6,9 km/h (2 Bft) W 281 0 min 0,000 mm 0,8 UV-I 91 W/m 16,2 C 14,5 km/h (3 Bft)
20.08.2016 15:39 21,2 C 21,2 C 72 % 1013,4 hPa 0,0 mm 7,5 km/h (2 Bft) NW 311 0 min 0,000 mm 0,8 UV-I 90 W/m 15,9 C 12,9 km/h (3 Bft)
20.08.2016 15:40 21,1 C 21,2 C 73 % 1013,4 hPa 0,0 mm 4,4 km/h (1 Bft) W 273 0 min 0,000 mm 0,8 UV-I 90 W/m 16,1 C 6,4 km/h (2 Bft)
20.08.2016 15:41 21,2 C 21,2 C 73 % 1013,4 hPa 0,0 mm 5,2 km/h (1 Bft) W 278 0 min 0,000 mm 0,8 UV-I 90 W/m 16,2 C 8,0 km/h (2 Bft)
20.08.2016 15:42 21,1 C 21,2 C 75 % 1013,4 hPa 0,0 mm 4,9 km/h (1 Bft) W-NW 295 0 min 0,000 mm 0,8 UV-I 90 W/m 16,5 C 6,4 km/h (2 Bft)
20.08.2016 15:43 21,1 C 21,1 C 74 % 1013,4 hPa 0,0 mm 3,9 km/h (1 Bft) W 277 0 min 0,000 mm 0,8 UV-I 91 W/m 16,3 C 9,7 km/h (2 Bft)
20.08.2016 15:44 21,1 C 21,1 C 74 % 1013,4 hPa 0,0 mm 6,0 km/h (2 Bft) W-NW 287 0 min 0,000 mm 0,8 UV-I 93 W/m 16,3 C 9,7 km/h (2 Bft)
20.08.2016 15:45 21,1 C 21,1 C 74 % 1013,4 hPa 0,0 mm 5,1 km/h (1 Bft) W-NW 292 0 min 0,000 mm 0,9 UV-I 97 W/m 16,3 C 8,0 km/h (2 Bft)
20.08.2016 15:46 21,1 C 21,1 C 74 % 1013,4 hPa 0,0 mm 2,8 km/h (1 Bft) W-NW 282 0 min 0,000 mm 0,9 UV-I 100 W/m 16,3 C 4,8 km/h (1 Bft)
20.08.2016 15:47 21,0 C 21,1 C 74 % 1013,3 hPa 0,0 mm 6,3 km/h (2 Bft) W 279 0 min 0,000 mm 0,9 UV-I 105 W/m 16,2 C 9,7 km/h (2 Bft)
20.08.2016 15:48 21,1 C 21,1 C 75 % 1013,3 hPa 0,0 mm 5,9 km/h (2 Bft) W-NW 291 0 min 0,000 mm 1,0 UV-I 113 W/m 16,5 C 11,3 km/h (2 Bft)
20.08.2016 15:49 21,0 C 21,1 C 75 % 1013,4 hPa 0,0 mm 3,6 km/h (1 Bft) W-NW 292 0 min 0,000 mm 1,0 UV-I 114 W/m 16,4 C 6,4 km/h (2 Bft)
20.08.2016 15:50 21,0 C 21,0 C 75 % 1013,4 hPa 0,0 mm 4,0 km/h (1 Bft) W-NW 283 0 min 0,000 mm 1,0 UV-I 116 W/m 16,4 C 6,4 km/h (2 Bft)
20.08.2016 15:51 20,9 C 21,0 C 75 % 1013,4 hPa 0,0 mm 8,0 km/h (2 Bft) W 271 0 min 0,000 mm 1,0 UV-I 116 W/m 16,3 C 12,9 km/h (3 Bft)
20.08.2016 15:52 20,9 C 21,0 C 75 % 1013,4 hPa 0,0 mm 8,9 km/h (2 Bft) W-SW 248 0 min 0,000 mm 1,0 UV-I 114 W/m 16,3 C 11,3 km/h (2 Bft)
20.08.2016 15:53 20,9 C 20,9 C 75 % 1013,4 hPa 0,0 mm 9,1 km/h (2 Bft) W 278 0 min 0,000 mm 1,0 UV-I 113 W/m 16,3 C 16,1 km/h (3 Bft)
20.08.2016 15:54 20,9 C 20,9 C 75 % 1013,5 hPa 0,0 mm 2,1 km/h (1 Bft) W-NW 299 0 min 0,000 mm 1,0 UV-I 114 W/m 16,3 C 4,8 km/h (1 Bft)
20.08.2016 15:55 20,9 C 20,9 C 76 % 1013,5 hPa 0,0 mm 9,7 km/h (2 Bft) W-NW 301 0 min 0,000 mm 1,0 UV-I 116 W/m 16,5 C 16,1 km/h (3 Bft)
20.08.2016 15:56 20,9 C 20,9 C 76 % 1013,5 hPa 0,0 mm 6,6 km/h (2 Bft) NW 321 0 min 0,000 mm 1,0 UV-I 118 W/m 16,5 C 12,9 km/h (3 Bft)
20.08.2016 15:57 20,9 C 20,9 C 77 % 1013,5 hPa 0,0 mm 6,7 km/h (2 Bft) NW 317 0 min 0,000 mm 1,1 UV-I 120 W/m 16,7 C 11,3 km/h (2 Bft)
20.08.2016 15:58 20,8 C 20,9 C 77 % 1013,5 hPa 0,0 mm 8,0 km/h (2 Bft) W-NW 298 0 min 0,000 mm 1,1 UV-I 120 W/m 16,6 C 12,9 km/h (3 Bft)
20.08.2016 15:59 20,8 C 20,8 C 75 % 1013,5 hPa 0,0 mm 4,9 km/h (1 Bft) W 262 0 min 0,000 mm 1,1 UV-I 120 W/m 16,2 C 11,3 km/h (2 Bft)
20.08.2016 16:00 20,8 C 20,8 C 75 % 1013,5 hPa 0,0 mm 10,5 km/h (2 Bft) NW 313 0 min 0,000 mm 1,0 UV-I 118 W/m 16,2 C 16,1 km/h (3 Bft)
20.08.2016 16:01 20,8 C 20,8 C 75 % 1013,5 hPa 0,0 mm 11,3 km/h (2 Bft) W 267 0 min 0,076 mm 1,0 UV-I 116 W/m 16,2 C 16,1 km/h (3 Bft)
20.08.2016 16:02 20,7 C 20,8 C 77 % 1013,5 hPa 0,0 mm 7,5 km/h (2 Bft) W-NW 303 0 min 0,000 mm 1,0 UV-I 113 W/m 16,5 C 12,9 km/h (3 Bft)
20.08.2016 16:03 20,7 C 20,7 C 76 % 1013,5 hPa 0,0 mm 8,4 km/h (2 Bft) NW 313 0 min 0,000 mm 1,0 UV-I 107 W/m 16,3 C 12,9 km/h (3 Bft)
20.08.2016 16:04 20,6 C 20,7 C 76 % 1013,5 hPa 0,0 mm 10,1 km/h (2 Bft) NW 316 0 min 0,000 mm 0,9 UV-I 104 W/m 16,2 C 14,5 km/h (3 Bft)
20.08.2016 16:05 20,6 C 20,6 C 77 % 1013,5 hPa 0,0 mm 9,9 km/h (2 Bft) W 269 0 min 0,000 mm 0,9 UV-I 93 W/m 16,4 C 17,7 km/h (3 Bft)
20.08.2016 16:06 20,5 C 20,6 C 77 % 1013,5 hPa 0,0 mm 9,9 km/h (2 Bft) NW 309 0 min 0,000 mm 0,8 UV-I 88 W/m 16,3 C 17,7 km/h (3 Bft)
20.08.2016 16:07 20,4 C 20,5 C 77 % 1013,5 hPa 0,0 mm 6,4 km/h (2 Bft) NW 307 0 min 0,000 mm 0,8 UV-I 84 W/m 16,2 C 12,9 km/h (3 Bft)
20.08.2016 16:09 20,3 C 20,4 C 79 % 1013,6 hPa 0,0 mm 5,0 km/h (1 Bft) W-SW 254 0 min 0,000 mm 0,8 UV-I 83 W/m 16,5 C 8,0 km/h (2 Bft)
20.08.2016 16:10 20,2 C 20,3 C 78 % 1013,6 hPa 0,0 mm 4,4 km/h (1 Bft) W-SW 242 0 min 0,000 mm 0,8 UV-I 84 W/m 16,2 C 8,0 km/h (2 Bft)
20.08.2016 16:11 20,2 C 20,2 C 79 % 1013,6 hPa 0,0 mm 9,3 km/h (2 Bft) W 259 0 min 0,000 mm 0,8 UV-I 86 W/m 16,4 C 17,7 km/h (3 Bft)
20.08.2016 16:12 20,1 C 20,2 C 74 % 1013,6 hPa 0,0 mm 10,0 km/h (2 Bft) W-SW 252 0 min 0,000 mm 0,8 UV-I 86 W/m 15,3 C 16,1 km/h (3 Bft)
20.08.2016 16:13 20,0 C 20,1 C 74 % 1013,7 hPa 0,0 mm 5,2 km/h (1 Bft) W-SW 252 0 min 0,000 mm 0,8 UV-I 88 W/m 15,2 C 9,7 km/h (2 Bft)
20.08.2016 16:14 19,9 C 20,0 C 73 % 1013,7 hPa 0,0 mm 2,6 km/h (1 Bft) W-SW 254 0 min 0,000 mm 0,8 UV-I 88 W/m 14,9 C 4,8 km/h (1 Bft)
20.08.2016 16:15 19,8 C 19,9 C 72 % 1013,8 hPa 0,0 mm 2,1 km/h (1 Bft) W-SW 257 0 min 0,000 mm 0,8 UV-I 88 W/m 14,6 C 4,8 km/h (1 Bft)
20.08.2016 16:16 19,7 C 19,8 C 72 % 1013,7 hPa 0,0 mm 3,6 km/h (1 Bft) W-SW 246 0 min 0,000 mm 0,8 UV-I 88 W/m 14,5 C 6,4 km/h (2 Bft)
20.08.2016 16:17 19,7 C 19,7 C 71 % 1013,8 hPa 0,0 mm 6,0 km/h (2 Bft) S-SW 206 0 min 0,000 mm 0,8 UV-I 86 W/m 14,3 C 9,7 km/h (2 Bft)
20.08.2016 16:18 19,6 C 19,7 C 70 % 1013,7 hPa 0,0 mm 3,0 km/h (1 Bft) SW 220 0 min 0,000 mm 0,8 UV-I 86 W/m 14,0 C 4,8 km/h (1 Bft)
20.08.2016 16:19 19,5 C 19,6 C 71 % 1013,8 hPa 0,0 mm 3,6 km/h (1 Bft) W-SW 248 0 min 0,000 mm 0,8 UV-I 86 W/m 14,1 C 6,4 km/h (2 Bft)
20.08.2016 16:20 19,5 C 19,6 C 70 % 1013,8 hPa 0,0 mm 2,9 km/h (1 Bft) W-SW 238 0 min 0,000 mm 0,8 UV-I 86 W/m 13,9 C 6,4 km/h (2 Bft)
20.08.2016 16:21 19,5 C 19,5 C 71 % 1013,8 hPa 0,0 mm 4,3 km/h (1 Bft) W-SW 246 0 min 0,000 mm 0,7 UV-I 86 W/m 14,1 C 6,4 km/h (2 Bft)
20.08.2016 16:22 19,4 C 19,5 C 69 % 1013,7 hPa 0,0 mm 4,2 km/h (1 Bft) W-SW 243 0 min 0,000 mm 0,7 UV-I 83 W/m 13,6 C 9,7 km/h (2 Bft)
20.08.2016 16:24 19,3 C 19,4 C 72 % 1013,8 hPa 0,0 mm 8,0 km/h (2 Bft) W-SW 253 0 min 0,000 mm 0,7 UV-I 79 W/m 14,1 C 14,5 km/h (3 Bft)
20.08.2016 16:25 19,3 C 19,3 C 71 % 1013,8 hPa 0,0 mm 10,0 km/h (2 Bft) W-SW 239 0 min 0,000 mm 0,7 UV-I 77 W/m 13,9 C 12,9 km/h (3 Bft)
20.08.2016 16:26 19,3 C 19,3 C 72 % 1013,9 hPa 0,0 mm 5,3 km/h (1 Bft) SW 217 0 min 0,000 mm 0,7 UV-I 77 W/m 14,1 C 11,3 km/h (2 Bft)
20.08.2016 16:27 19,2 C 19,3 C 76 % 1013,8 hPa 0,0 mm 1,9 km/h (1 Bft) SW 234 0 min 0,000 mm 0,7 UV-I 76 W/m 14,9 C 4,8 km/h (1 Bft)
20.08.2016 16:28 19,1 C 19,2 C 72 % 1013,9 hPa 0,0 mm 8,5 km/h (2 Bft) W-SW 254 0 min 0,000 mm 0,7 UV-I 76 W/m 13,9 C 12,9 km/h (3 Bft)
20.08.2016 16:29 19,1 C 19,1 C 73 % 1013,9 hPa 0,0 mm 7,8 km/h (2 Bft) W-SW 258 0 min 0,000 mm 0,7 UV-I 77 W/m 14,1 C 12,9 km/h (3 Bft)
20.08.2016 16:30 19,1 C 19,1 C 72 % 1013,9 hPa 0,0 mm 9,5 km/h (2 Bft) W 279 0 min 0,000 mm 0,7 UV-I 77 W/m 13,9 C 12,9 km/h (3 Bft)
20.08.2016 16:31 19,0 C 19,1 C 73 % 1013,9 hPa 0,0 mm 8,0 km/h (2 Bft) W-NW 284 0 min 0,000 mm 0,7 UV-I 79 W/m 14,0 C 11,3 km/h (2 Bft)
20.08.2016 16:32 19,0 C 19,0 C 73 % 1013,9 hPa 0,0 mm 5,7 km/h (1 Bft) NW 320 0 min 0,000 mm 0,7 UV-I 79 W/m 14,0 C 9,7 km/h (2 Bft)
20.08.2016 16:33 19,0 C 19,1 C 73 % 1013,9 hPa 0,0 mm 6,2 km/h (2 Bft) SW 234 0 min 0,000 mm 0,7 UV-I 79 W/m 14,0 C 11,3 km/h (2 Bft)
20.08.2016 16:34 19,0 C 19,1 C 73 % 1014,0 hPa 0,0 mm 5,8 km/h (2 Bft) S-SW 208 0 min 0,000 mm 0,7 UV-I 76 W/m 14,0 C 9,7 km/h (2 Bft)
20.08.2016 16:35 19,0 C 19,0 C 74 % 1014,0 hPa 0,0 mm 2,0 km/h (1 Bft) W-SW 239 0 min 0,000 mm 0,6 UV-I 74 W/m 14,3 C 3,2 km/h (1 Bft)
20.08.2016 16:36 18,9 C 19,0 C 73 % 1014,0 hPa 0,0 mm 2,7 km/h (1 Bft) W-SW 238 0 min 0,000 mm 0,6 UV-I 72 W/m 13,9 C 6,4 km/h (2 Bft)
20.08.2016 16:37 18,9 C 18,9 C 76 % 1014,1 hPa 0,0 mm 3,8 km/h (1 Bft) SW 225 0 min 0,000 mm 0,6 UV-I 69 W/m 14,6 C 9,7 km/h (2 Bft)
20.08.2016 16:38 18,9 C 18,9 C 75 % 1014,1 hPa 0,0 mm 12,1 km/h (2 Bft) W-SW 253 0 min 0,000 mm 0,6 UV-I 67 W/m 14,4 C 16,1 km/h (3 Bft)
20.08.2016 16:39 18,9 C 18,9 C 74 % 1014,1 hPa 0,0 mm 6,6 km/h (2 Bft) W-NW 301 0 min 0,000 mm 0,6 UV-I 65 W/m 14,2 C 12,9 km/h (3 Bft)
20.08.2016 16:40 18,9 C 18,9 C 76 % 1014,1 hPa 0,0 mm 5,9 km/h (2 Bft) W-NW 286 0 min 0,000 mm 0,6 UV-I 65 W/m 14,6 C 11,3 km/h (2 Bft)
20.08.2016 16:41 18,9 C 18,9 C 75 % 1014,1 hPa 0,0 mm 5,0 km/h (1 Bft) W-NW 302 0 min 0,000 mm 0,6 UV-I 65 W/m 14,4 C 6,4 km/h (2 Bft)
20.08.2016 16:42 18,9 C 18,9 C 76 % 1014,1 hPa 0,0 mm 6,7 km/h (2 Bft) W-SW 251 0 min 0,000 mm 0,6 UV-I 65 W/m 14,6 C 9,7 km/h (2 Bft)
20.08.2016 16:43 18,8 C 18,9 C 77 % 1014,1 hPa 0,0 mm 6,3 km/h (2 Bft) W-NW 296 0 min 0,000 mm 0,6 UV-I 65 W/m 14,7 C 12,9 km/h (3 Bft)
20.08.2016 16:44 18,8 C 18,8 C 78 % 1014,1 hPa 0,0 mm 4,0 km/h (1 Bft) W-NW 294 0 min 0,000 mm 0,6 UV-I 65 W/m 14,9 C 6,4 km/h (2 Bft)
20.08.2016 16:45 18,7 C 18,8 C 78 % 1014,1 hPa 0,0 mm 4,9 km/h (1 Bft) W 273 0 min 0,000 mm 0,5 UV-I 63 W/m 14,8 C 6,4 km/h (2 Bft)
20.08.2016 16:46 18,7 C 18,7 C 77 % 1014,1 hPa 0,0 mm 8,8 km/h (2 Bft) W-NW 282 0 min 0,000 mm 0,5 UV-I 62 W/m 14,6 C 14,5 km/h (3 Bft)
20.08.2016 16:47 18,6 C 18,7 C 78 % 1014,1 hPa 0,0 mm 11,3 km/h (2 Bft) W-NW 292 0 min 0,000 mm 0,5 UV-I 62 W/m 14,7 C 17,7 km/h (3 Bft)
20.08.2016 16:48 18,5 C 18,6 C 78 % 1014,1 hPa 0,0 mm 4,5 km/h (1 Bft) W-NW 298 0 min 0,000 mm 0,5 UV-I 60 W/m 14,6 C 8,0 km/h (2 Bft)
20.08.2016 16:49 18,4 C 18,5 C 78 % 1014,1 hPa 0,0 mm 11,5 km/h (2 Bft) W 261 0 min 0,000 mm 0,5 UV-I 60 W/m 14,5 C 17,7 km/h (3 Bft)
20.08.2016 16:50 18,3 C 18,4 C 79 % 1014,1 hPa 0,0 mm 7,4 km/h (2 Bft) W 279 0 min 0,000 mm 0,5 UV-I 58 W/m 14,6 C 11,3 km/h (2 Bft)
20.08.2016 16:51 18,2 C 18,3 C 79 % 1014,1 hPa 0,0 mm 8,2 km/h (2 Bft) W-NW 284 0 min 0,000 mm 0,5 UV-I 58 W/m 14,5 C 14,5 km/h (3 Bft)
20.08.2016 16:52 18,1 C 18,2 C 80 % 1014,1 hPa 0,0 mm 8,3 km/h (2 Bft) W-NW 292 0 min 0,000 mm 0,5 UV-I 58 W/m 14,6 C 14,5 km/h (3 Bft)
20.08.2016 16:53 17,9 C 18,1 C 80 % 1014,2 hPa 0,0 mm 4,8 km/h (1 Bft) W 279 0 min 0,000 mm 0,5 UV-I 58 W/m 14,4 C 6,4 km/h (2 Bft)
20.08.2016 16:54 17,8 C 17,9 C 82 % 1014,2 hPa 0,2 mm 2,0 km/h (1 Bft) W 259 0 min 0,000 mm 0,5 UV-I 56 W/m 14,7 C 3,2 km/h (1 Bft)
20.08.2016 16:55 17,6 C 17,8 C 82 % 1014,3 hPa 0,0 mm 2,5 km/h (1 Bft) W-SW 237 0 min 0,000 mm 0,5 UV-I 56 W/m 14,5 C 4,8 km/h (1 Bft)
20.08.2016 16:56 17,5 C 17,6 C 81 % 1014,3 hPa 0,0 mm 2,0 km/h (1 Bft) SW 222 0 min 0,000 mm 0,5 UV-I 56 W/m 14,2 C 4,8 km/h (1 Bft)
20.08.2016 16:57 17,3 C 17,5 C 82 % 1014,3 hPa 0,0 mm 1,6 km/h (1 Bft) SW 222 0 min 0,000 mm 0,5 UV-I 56 W/m 14,2 C 3,2 km/h (1 Bft)
20.08.2016 16:58 17,2 C 17,3 C 82 % 1014,3 hPa 0,0 mm 2,2 km/h (1 Bft) W 261 0 min 0,000 mm 0,0 UV-I 54 W/m 14,1 C 4,8 km/h (1 Bft)
20.08.2016 16:59 17,1 C 17,2 C 83 % 1014,3 hPa 0,0 mm 1,8 km/h (1 Bft) W-SW 248 0 min 0,000 mm 0,0 UV-I 53 W/m 14,2 C 6,4 km/h (2 Bft)
20.08.2016 17:00 16,9 C 17,1 C 83 % 1014,3 hPa 0,0 mm 2,4 km/h (1 Bft) S-SW 193 0 min 0,000 mm 0,0 UV-I 53 W/m 14,0 C 6,4 km/h (2 Bft)
20.08.2016 17:01 16,8 C 16,9 C 83 % 1014,3 hPa 0,2 mm 6,4 km/h (2 Bft) S 173 0 min 0,076 mm 0,0 UV-I 53 W/m 13,9 C 14,5 km/h (3 Bft)
20.08.2016 17:02 16,7 C 16,8 C 82 % 1014,3 hPa 0,0 mm 9,1 km/h (2 Bft) W-NW 288 0 min 0,001 mm 0,0 UV-I 51 W/m 13,6 C 16,1 km/h (3 Bft)
20.08.2016 17:03 16,6 C 16,7 C 83 % 1014,3 hPa 0,0 mm 7,9 km/h (2 Bft) S 180 0 min 0,000 mm 0,0 UV-I 51 W/m 13,7 C 12,9 km/h (3 Bft)
20.08.2016 17:04 16,5 C 16,6 C 82 % 1014,3 hPa 0,0 mm 3,0 km/h (1 Bft) W 262 0 min 0,000 mm 0,0 UV-I 51 W/m 13,4 C 6,4 km/h (2 Bft)
20.08.2016 17:05 16,4 C 16,5 C 82 % 1014,4 hPa 0,0 mm 4,1 km/h (1 Bft) S 177 0 min 0,000 mm 0,0 UV-I 51 W/m 13,3 C 8,0 km/h (2 Bft)
20.08.2016 17:06 16,3 C 16,4 C 83 % 1014,4 hPa 0,2 mm 2,4 km/h (1 Bft) W-SW 252 0 min 0,000 mm 0,0 UV-I 51 W/m 13,4 C 3,2 km/h (1 Bft)
20.08.2016 17:07 16,2 C 16,3 C 83 % 1014,5 hPa 0,0 mm 4,5 km/h (1 Bft) S-SW 211 0 min 0,000 mm 0,0 UV-I 51 W/m 13,3 C 11,3 km/h (2 Bft)
20.08.2016 17:08 16,1 C 16,2 C 83 % 1014,5 hPa 0,0 mm 2,2 km/h (1 Bft) SW 231 0 min 0,000 mm 0,0 UV-I 51 W/m 13,2 C 3,2 km/h (1 Bft)
20.08.2016 17:09 16,0 C 16,1 C 84 % 1014,5 hPa 0,0 mm 4,8 km/h (1 Bft) W-SW 250 0 min 0,000 mm 0,0 UV-I 51 W/m 13,3 C 9,7 km/h (2 Bft)
20.08.2016 17:11 15,8 C 16,0 C 84 % 1014,4 hPa 0,2 mm 1,0 km/h (0 Bft) S-SW 202 0 min 0,000 mm 0,0 UV-I 49 W/m 13,1 C 3,2 km/h (1 Bft)
20.08.2016 17:12 15,8 C 15,8 C 84 % 1014,4 hPa 0,0 mm 0,5 km/h (0 Bft) S-SW 202 0 min 0,000 mm 0,0 UV-I 49 W/m 13,1 C 1,6 km/h (1 Bft)
20.08.2016 17:14 15,6 C 15,8 C 85 % 1014,4 hPa 0,0 mm 1,9 km/h (1 Bft) S 188 0 min 0,000 mm 0,0 UV-I 46 W/m 13,1 C 4,8 km/h (1 Bft)
20.08.2016 17:15 15,4 C 15,6 C 86 % 1014,4 hPa 0,2 mm 3,7 km/h (1 Bft) S-SO 168 0 min 0,000 mm 0,0 UV-I 42 W/m 13,1 C 8,0 km/h (2 Bft)
20.08.2016 17:16 15,4 C 15,4 C 85 % 1014,6 hPa 0,0 mm 2,1 km/h (1 Bft) S-SO 168 0 min 0,000 mm 0,0 UV-I 40 W/m 12,9 C 3,2 km/h (1 Bft)
20.08.2016 17:17 15,3 C 15,4 C 87 % 1014,4 hPa 0,0 mm 2,4 km/h (1 Bft) S-SO 167 0 min 0,000 mm 0,0 UV-I 40 W/m 13,1 C 6,4 km/h (2 Bft)
20.08.2016 17:18 15,1 C 15,3 C 88 % 1014,6 hPa 0,0 mm 2,1 km/h (1 Bft) S-SO 168 0 min 0,000 mm 0,0 UV-I 39 W/m 13,1 C 4,8 km/h (1 Bft)
20.08.2016 17:19 15,1 C 15,1 C 88 % 1014,5 hPa 0,0 mm 1,4 km/h (1 Bft) S-SO 168 0 min 0,000 mm 0,0 UV-I 39 W/m 13,1 C 3,2 km/h (1 Bft)
20.08.2016 17:20 14,9 C 15,1 C 89 % 1014,6 hPa 0,0 mm 2,7 km/h (1 Bft) S-SW 202 0 min 0,000 mm 0,0 UV-I 39 W/m 13,1 C 4,8 km/h (1 Bft)
20.08.2016 17:21 14,9 C 14,9 C 89 % 1014,6 hPa 0,0 mm 3,5 km/h (1 Bft) S-SO 165 0 min 0,000 mm 0,0 UV-I 40 W/m 13,1 C 8,0 km/h (2 Bft)
20.08.2016 17:22 14,9 C 14,9 C 89 % 1014,6 hPa 0,0 mm 3,2 km/h (1 Bft) S-SW 194 0 min 0,000 mm 0,0 UV-I 40 W/m 13,1 C 6,4 km/h (2 Bft)
20.08.2016 17:23 14,8 C 14,9 C 90 % 1014,6 hPa 0,0 mm 1,9 km/h (1 Bft) S-SW 194 0 min 0,000 mm 0,0 UV-I 42 W/m 13,2 C 3,2 km/h (1 Bft)
20.08.2016 17:24 14,8 C 14,9 C 90 % 1014,6 hPa 0,0 mm 3,1 km/h (1 Bft) S-SO 155 0 min 0,000 mm 0,0 UV-I 40 W/m 13,2 C 4,8 km/h (1 Bft)
20.08.2016 17:25 14,8 C 14,9 C 90 % 1014,5 hPa 0,0 mm 3,0 km/h (1 Bft) S 181 0 min 0,000 mm 0,0 UV-I 40 W/m 13,2 C 4,8 km/h (1 Bft)
20.08.2016 17:26 14,8 C 14,8 C 90 % 1014,5 hPa 0,2 mm 1,4 km/h (1 Bft) S 181 0 min 0,000 mm 0,0 UV-I 39 W/m 13,2 C 3,2 km/h (1 Bft)
20.08.2016 17:27 14,8 C 14,8 C 90 % 1014,5 hPa 0,0 mm 1,3 km/h (1 Bft) S 181 0 min 0,000 mm 0,0 UV-I 35 W/m 13,2 C 1,6 km/h (1 Bft)
20.08.2016 17:28 14,8 C 14,8 C 90 % 1014,5 hPa 0,0 mm 0,8 km/h (0 Bft) S 181 0 min 0,000 mm 0,0 UV-I 35 W/m 13,2 C 1,6 km/h (1 Bft)
20.08.2016 17:29 14,8 C 14,8 C 90 % 1014,5 hPa 0,0 mm 1,2 km/h (1 Bft) S 181 0 min 0,000 mm 0,0 UV-I 33 W/m 13,2 C 1,6 km/h (1 Bft)
20.08.2016 17:30 14,8 C 14,8 C 88 % 1014,5 hPa 0,0 mm 1,0 km/h (0 Bft) S 181 0 min 0,000 mm 0,0 UV-I 33 W/m 12,8 C 1,6 km/h (1 Bft)
20.08.2016 17:31 14,8 C 14,8 C 89 % 1014,5 hPa 0,0 mm 2,3 km/h (1 Bft) S 183 0 min 0,000 mm 0,0 UV-I 32 W/m 13,0 C 4,8 km/h (1 Bft)
20.08.2016 17:32 14,9 C 14,9 C 88 % 1014,5 hPa 0,0 mm 2,6 km/h (1 Bft) S-SW 192 0 min 0,000 mm 0,0 UV-I 32 W/m 12,9 C 4,8 km/h (1 Bft)
20.08.2016 17:33 14,9 C 14,9 C 87 % 1014,6 hPa 0,0 mm 3,6 km/h (1 Bft) S 178 0 min 0,000 mm 0,0 UV-I 32 W/m 12,8 C 6,4 km/h (2 Bft)
20.08.2016 17:34 14,9 C 14,9 C 89 % 1014,6 hPa 0,0 mm 3,7 km/h (1 Bft) S-SO 163 0 min 0,000 mm 0,0 UV-I 30 W/m 13,1 C 6,4 km/h (2 Bft)
20.08.2016 17:35 14,8 C 14,9 C 89 % 1014,6 hPa 0,0 mm 2,9 km/h (1 Bft) S-SO 163 0 min 0,000 mm 0,0 UV-I 30 W/m 13,0 C 3,2 km/h (1 Bft)
20.08.2016 17:36 14,7 C 14,8 C 89 % 1014,6 hPa 0,0 mm 2,3 km/h (1 Bft) S-SO 160 0 min 0,000 mm 0,0 UV-I 30 W/m 12,9 C 3,2 km/h (1 Bft)
20.08.2016 17:37 14,6 C 14,7 C 90 % 1014,6 hPa 0,0 mm 2,0 km/h (1 Bft) S 173 0 min 0,000 mm 0,0 UV-I 30 W/m 13,0 C 4,8 km/h (1 Bft)
20.08.2016 17:38 14,6 C 14,6 C 90 % 1014,7 hPa 0,0 mm 0,9 km/h (0 Bft) S 173 0 min 0,000 mm 0,0 UV-I 30 W/m 13,0 C 1,6 km/h (1 Bft)
20.08.2016 17:39 14,6 C 14,6 C 90 % 1014,6 hPa 0,0 mm 0,0 km/h (0 Bft) S 173 0 min 0,000 mm 0,0 UV-I 30 W/m 13,0 C 0,0 km/h (0 Bft)
20.08.2016 17:40 14,6 C 14,6 C 90 % 1014,6 hPa 0,2 mm 1,6 km/h (1 Bft) SW 222 0 min 0,000 mm 0,0 UV-I 30 W/m 13,0 C 3,2 km/h (1 Bft)
20.08.2016 17:41 14,5 C 14,6 C 91 % 1014,6 hPa 0,0 mm 0,8 km/h (0 Bft) SW 222 0 min 0,000 mm 0,0 UV-I 30 W/m 13,0 C 1,6 km/h (1 Bft)
20.08.2016 17:42 14,6 C 14,6 C 89 % 1014,6 hPa 0,0 mm 1,7 km/h (1 Bft) SW 225 0 min 0,000 mm 0,0 UV-I 30 W/m 12,8 C 3,2 km/h (1 Bft)
20.08.2016 17:43 14,7 C 14,7 C 89 % 1014,6 hPa 0,0 mm 0,9 km/h (0 Bft) SW 223 0 min 0,000 mm 0,0 UV-I 30 W/m 12,9 C 1,6 km/h (1 Bft)
20.08.2016 17:44 14,8 C 14,8 C 89 % 1014,6 hPa 0,0 mm 1,5 km/h (1 Bft) S-SW 213 0 min 0,000 mm 0,0 UV-I 32 W/m 13,0 C 3,2 km/h (1 Bft)
20.08.2016 17:45 14,8 C 14,8 C 88 % 1014,7 hPa 0,0 mm 1,8 km/h (1 Bft) S-SW 212 0 min 0,000 mm 0,0 UV-I 32 W/m 12,8 C 3,2 km/h (1 Bft)
20.08.2016 17:46 14,8 C 14,8 C 90 % 1014,7 hPa 0,0 mm 1,8 km/h (1 Bft) S-SW 212 0 min 0,000 mm 0,0 UV-I 33 W/m 13,2 C 3,2 km/h (1 Bft)
20.08.2016 17:47 14,8 C 14,8 C 90 % 1014,6 hPa 0,0 mm 2,8 km/h (1 Bft) S-SW 211 0 min 0,000 mm 0,0 UV-I 33 W/m 13,2 C 3,2 km/h (1 Bft)
20.08.2016 17:48 14,7 C 14,8 C 90 % 1014,6 hPa 0,0 mm 1,5 km/h (1 Bft) S-SW 207 0 min 0,000 mm 0,0 UV-I 33 W/m 13,1 C 3,2 km/h (1 Bft)
20.08.2016 17:49 14,7 C 14,7 C 91 % 1014,7 hPa 0,2 mm 0,9 km/h (0 Bft) S-SW 207 0 min 0,000 mm 0,0 UV-I 33 W/m 13,2 C 1,6 km/h (1 Bft)
20.08.2016 17:50 14,7 C 14,7 C 91 % 1014,6 hPa 0,0 mm 0,2 km/h (0 Bft) S-SW 207 0 min 0,000 mm 0,0 UV-I 35 W/m 13,2 C 1,6 km/h (1 Bft)
20.08.2016 17:51 14,7 C 14,7 C 91 % 1014,6 hPa 0,0 mm 2,7 km/h (1 Bft) S-SW 194 0 min 0,000 mm 0,0 UV-I 35 W/m 13,2 C 3,2 km/h (1 Bft)
20.08.2016 17:52 14,7 C 14,7 C 91 % 1014,7 hPa 0,0 mm 3,2 km/h (1 Bft) S 173 0 min 0,000 mm 0,0 UV-I 35 W/m 13,2 C 4,8 km/h (1 Bft)
20.08.2016 17:53 14,7 C 14,7 C 91 % 1014,7 hPa 0,0 mm 1,4 km/h (1 Bft) SO 146 0 min 0,000 mm 0,0 UV-I 35 W/m 13,2 C 3,2 km/h (1 Bft)
20.08.2016 17:54 14,6 C 14,7 C 91 % 1014,7 hPa 0,0 mm 2,7 km/h (1 Bft) S-SO 161 0 min 0,000 mm 0,0 UV-I 35 W/m 13,1 C 3,2 km/h (1 Bft)
20.08.2016 17:55 14,6 C 14,6 C 91 % 1014,7 hPa 0,0 mm 2,3 km/h (1 Bft) S-SO 161 0 min 0,000 mm 0,0 UV-I 33 W/m 13,1 C 3,2 km/h (1 Bft)
20.08.2016 17:56 14,6 C 14,6 C 92 % 1014,7 hPa 0,0 mm 2,9 km/h (1 Bft) S-SO 161 0 min 0,000 mm 0,0 UV-I 33 W/m 13,3 C 3,2 km/h (1 Bft)
20.08.2016 17:57 14,6 C 14,6 C 92 % 1014,7 hPa 0,2 mm 1,6 km/h (1 Bft) S-SO 161 0 min 0,000 mm 0,0 UV-I 32 W/m 13,3 C 3,2 km/h (1 Bft)
20.08.2016 17:58 14,6 C 14,6 C 92 % 1014,8 hPa 0,0 mm 2,5 km/h (1 Bft) S-SW 207 0 min 0,000 mm 0,0 UV-I 32 W/m 13,3 C 3,2 km/h (1 Bft)
20.08.2016 17:59 14,5 C 14,6 C 92 % 1014,8 hPa 0,0 mm 1,1 km/h (1 Bft) S-SW 207 0 min 0,000 mm 0,0 UV-I 30 W/m 13,2 C 1,6 km/h (1 Bft)
20.08.2016 18:00 14,6 C 14,6 C 92 % 1014,7 hPa 0,0 mm 1,5 km/h (1 Bft) S-SW 207 0 min 0,000 mm 0,0 UV-I 30 W/m 13,3 C 3,2 km/h (1 Bft)
20.08.2016 18:01 14,5 C 14,6 C 92 % 1014,7 hPa 0,0 mm 1,0 km/h (0 Bft) S-SW 207 0 min 0,025 mm 0,0 UV-I 30 W/m 13,2 C 1,6 km/h (1 Bft)
20.08.2016 18:02 14,5 C 14,6 C 92 % 1014,8 hPa 0,0 mm 0,3 km/h (0 Bft) S-SW 207 0 min 0,000 mm 0,0 UV-I 32 W/m 13,2 C 1,6 km/h (1 Bft)
20.08.2016 18:03 14,5 C 14,6 C 92 % 1014,7 hPa 0,0 mm 1,7 km/h (1 Bft) S-SW 207 0 min 0,000 mm 0,0 UV-I 33 W/m 13,2 C 3,2 km/h (1 Bft)
20.08.2016 18:04 14,6 C 14,6 C 92 % 1014,7 hPa 0,0 mm 3,0 km/h (1 Bft) S-SW 201 0 min 0,000 mm 0,0 UV-I 33 W/m 13,3 C 3,2 km/h (1 Bft)
20.08.2016 18:05 14,6 C 14,6 C 92 % 1014,7 hPa 0,2 mm 2,5 km/h (1 Bft) S 182 0 min 0,000 mm 0,0 UV-I 35 W/m 13,3 C 3,2 km/h (1 Bft)
20.08.2016 18:06 14,5 C 14,6 C 92 % 1014,8 hPa 0,0 mm 1,7 km/h (1 Bft) S 182 0 min 0,000 mm 0,0 UV-I 35 W/m 13,2 C 3,2 km/h (1 Bft)
20.08.2016 18:07 14,5 C 14,5 C 92 % 1014,7 hPa 0,0 mm 2,7 km/h (1 Bft) S-SW 192 0 min 0,000 mm 0,0 UV-I 37 W/m 13,2 C 4,8 km/h (1 Bft)
20.08.2016 18:08 14,6 C 14,6 C 91 % 1014,8 hPa 0,0 mm 1,5 km/h (1 Bft) S-SW 192 0 min 0,000 mm 0,0 UV-I 40 W/m 13,1 C 3,2 km/h (1 Bft)
20.08.2016 18:09 14,6 C 14,6 C 90 % 1014,8 hPa 0,0 mm 2,2 km/h (1 Bft) S-SW 192 0 min 0,000 mm 0,0 UV-I 42 W/m 13,0 C 3,2 km/h (1 Bft)
20.08.2016 18:10 14,7 C 14,7 C 91 % 1014,8 hPa 0,0 mm 3,1 km/h (1 Bft) S-SW 194 0 min 0,000 mm 0,0 UV-I 44 W/m 13,2 C 4,8 km/h (1 Bft)
20.08.2016 18:11 14,7 C 14,7 C 90 % 1014,8 hPa 0,0 mm 3,8 km/h (1 Bft) S 179 0 min 0,000 mm 0,0 UV-I 46 W/m 13,1 C 6,4 km/h (2 Bft)
20.08.2016 18:12 14,7 C 14,7 C 89 % 1014,9 hPa 0,0 mm 4,4 km/h (1 Bft) S 178 0 min 0,000 mm 0,0 UV-I 46 W/m 12,9 C 8,0 km/h (2 Bft)
20.08.2016 18:13 14,8 C 14,8 C 88 % 1014,8 hPa 0,2 mm 5,0 km/h (1 Bft) S-SW 192 0 min 0,000 mm 0,0 UV-I 47 W/m 12,8 C 8,0 km/h (2 Bft)
20.08.2016 18:14 14,7 C 14,8 C 89 % 1014,9 hPa 0,0 mm 3,4 km/h (1 Bft) S-SW 200 0 min 0,000 mm 0,0 UV-I 44 W/m 12,9 C 4,8 km/h (1 Bft)
20.08.2016 18:15 14,7 C 14,8 C 89 % 1014,9 hPa 0,0 mm 6,1 km/h (2 Bft) S-SW 206 0 min 0,000 mm 0,0 UV-I 42 W/m 12,9 C 9,7 km/h (2 Bft)
20.08.2016 18:16 14,7 C 14,8 C 90 % 1014,9 hPa 0,0 mm 3,0 km/h (1 Bft) S 185 0 min 0,000 mm 0,0 UV-I 40 W/m 13,1 C 6,4 km/h (2 Bft)
20.08.2016 18:17 14,7 C 14,7 C 90 % 1014,9 hPa 0,0 mm 1,9 km/h (1 Bft) S 182 0 min 0,000 mm 0,0 UV-I 39 W/m 13,1 C 6,4 km/h (2 Bft)
20.08.2016 18:18 14,7 C 14,7 C 90 % 1014,8 hPa 0,0 mm 3,3 km/h (1 Bft) S 184 0 min 0,000 mm 0,0 UV-I 37 W/m 13,1 C 4,8 km/h (1 Bft)
20.08.2016 18:19 14,7 C 14,7 C 90 % 1014,9 hPa 0,0 mm 3,4 km/h (1 Bft) S 184 0 min 0,000 mm 0,0 UV-I 35 W/m 13,1 C 4,8 km/h (1 Bft)
20.08.2016 18:20 14,7 C 14,7 C 91 % 1014,9 hPa 0,0 mm 2,6 km/h (1 Bft) S 188 0 min 0,000 mm 0,0 UV-I 33 W/m 13,2 C 3,2 km/h (1 Bft)
20.08.2016 18:21 14,6 C 14,7 C 91 % 1014,8 hPa 0,0 mm 2,6 km/h (1 Bft) S-SO 163 0 min 0,000 mm 0,0 UV-I 32 W/m 13,1 C 6,4 km/h (2 Bft)
20.08.2016 18:22 14,6 C 14,6 C 91 % 1014,9 hPa 0,0 mm 3,3 km/h (1 Bft) S 175 0 min 0,000 mm 0,0 UV-I 32 W/m 13,1 C 4,8 km/h (1 Bft)
20.08.2016 18:23 14,6 C 14,6 C 89 % 1014,8 hPa 0,0 mm 3,6 km/h (1 Bft) S-SW 198 0 min 0,000 mm 0,0 UV-I 30 W/m 12,8 C 6,4 km/h (2 Bft)
20.08.2016 18:24 14,6 C 14,6 C 88 % 1014,8 hPa 0,0 mm 4,0 km/h (1 Bft) S 178 0 min 0,000 mm 0,0 UV-I 30 W/m 12,6 C 6,4 km/h (2 Bft)
20.08.2016 18:25 14,7 C 14,7 C 89 % 1014,9 hPa 0,0 mm 3,1 km/h (1 Bft) S 175 0 min 0,000 mm 0,0 UV-I 30 W/m 12,9 C 4,8 km/h (1 Bft)
20.08.2016 18:26 14,7 C 14,7 C 89 % 1014,9 hPa 0,0 mm 2,2 km/h (1 Bft) S 175 0 min 0,000 mm 0,0 UV-I 30 W/m 12,9 C 3,2 km/h (1 Bft)
20.08.2016 18:27 14,7 C 14,7 C 90 % 1014,9 hPa 0,0 mm 1,7 km/h (1 Bft) S 176 0 min 0,000 mm 0,0 UV-I 30 W/m 13,1 C 4,8 km/h (1 Bft)
20.08.2016 18:28 14,7 C 14,7 C 88 % 1014,8 hPa 0,0 mm 2,4 km/h (1 Bft) S 185 0 min 0,000 mm 0,0 UV-I 30 W/m 12,7 C 4,8 km/h (1 Bft)
20.08.2016 18:29 14,7 C 14,7 C 90 % 1014,8 hPa 0,0 mm 0,4 km/h (0 Bft) S 185 0 min 0,000 mm 0,0 UV-I 30 W/m 13,1 C 1,6 km/h (1 Bft)
20.08.2016 18:30 14,6 C 14,7 C 90 % 1014,8 hPa 0,0 mm 0,3 km/h (0 Bft) S 185 0 min 0,000 mm 0,0 UV-I 30 W/m 13,0 C 1,6 km/h (1 Bft)
20.08.2016 18:31 14,6 C 14,6 C 90 % 1014,8 hPa 0,2 mm 1,8 km/h (1 Bft) S 185 0 min 0,000 mm 0,0 UV-I 30 W/m 13,0 C 3,2 km/h (1 Bft)
20.08.2016 18:32 14,6 C 14,6 C 89 % 1014,7 hPa 0,0 mm 2,1 km/h (1 Bft) S 185 0 min 0,000 mm 0,0 UV-I 32 W/m 12,8 C 3,2 km/h (1 Bft)
20.08.2016 18:33 14,6 C 14,6 C 90 % 1014,7 hPa 0,0 mm 2,1 km/h (1 Bft) S 185 0 min 0,000 mm 0,0 UV-I 32 W/m 13,0 C 3,2 km/h (1 Bft)
20.08.2016 18:34 14,5 C 14,6 C 90 % 1014,7 hPa 0,0 mm 1,7 km/h (1 Bft) S 185 0 min 0,000 mm 0,0 UV-I 32 W/m 12,9 C 3,2 km/h (1 Bft)
20.08.2016 18:35 14,4 C 14,5 C 91 % 1014,8 hPa 0,0 mm 1,4 km/h (1 Bft) S 185 0 min 0,000 mm 0,0 UV-I 33 W/m 12,9 C 3,2 km/h (1 Bft)
20.08.2016 18:36 14,4 C 14,4 C 91 % 1014,8 hPa 0,0 mm 0,7 km/h (0 Bft) S 185 0 min 0,000 mm 0,0 UV-I 33 W/m 12,9 C 3,2 km/h (1 Bft)
20.08.2016 18:37 14,3 C 14,4 C 91 % 1014,8 hPa 0,0 mm 1,9 km/h (1 Bft) S 185 0 min 0,000 mm 0,0 UV-I 33 W/m 12,8 C 3,2 km/h (1 Bft)
20.08.2016 18:38 14,3 C 14,3 C 91 % 1014,7 hPa 0,0 mm 0,9 km/h (0 Bft) S 185 0 min 0,000 mm 0,0 UV-I 35 W/m 12,8 C 1,6 km/h (1 Bft)
20.08.2016 18:39 14,2 C 14,3 C 92 % 1014,7 hPa 0,0 mm 1,8 km/h (1 Bft) S 185 0 min 0,000 mm 0,0 UV-I 35 W/m 12,9 C 3,2 km/h (1 Bft)
20.08.2016 18:40 14,1 C 14,2 C 92 % 1014,6 hPa 0,0 mm 2,1 km/h (1 Bft) S 185 0 min 0,000 mm 0,0 UV-I 35 W/m 12,8 C 3,2 km/h (1 Bft)
20.08.2016 18:41 14,1 C 14,2 C 92 % 1014,7 hPa 0,0 mm 2,5 km/h (1 Bft) S 185 0 min 0,000 mm 0,0 UV-I 35 W/m 12,8 C 3,2 km/h (1 Bft)
20.08.2016 18:42 14,2 C 14,2 C 92 % 1014,6 hPa 0,0 mm 3,0 km/h (1 Bft) S 182 0 min 0,000 mm 0,0 UV-I 35 W/m 12,9 C 3,2 km/h (1 Bft)
20.08.2016 18:43 14,2 C 14,2 C 92 % 1014,6 hPa 0,0 mm 3,2 km/h (1 Bft) S 182 0 min 0,000 mm 0,0 UV-I 33 W/m 12,9 C 4,8 km/h (1 Bft)
20.08.2016 18:44 14,2 C 14,2 C 92 % 1014,7 hPa 0,0 mm 3,1 km/h (1 Bft) S 176 0 min 0,000 mm 0,0 UV-I 33 W/m 12,9 C 4,8 km/h (1 Bft)
20.08.2016 18:45 14,1 C 14,2 C 92 % 1014,6 hPa 0,0 mm 2,4 km/h (1 Bft) S 176 0 min 0,000 mm 0,0 UV-I 33 W/m 12,8 C 3,2 km/h (1 Bft)
20.08.2016 18:46 14,1 C 14,2 C 92 % 1014,7 hPa 0,0 mm 1,9 km/h (1 Bft) S 176 0 min 0,000 mm 0,0 UV-I 32 W/m 12,8 C 3,2 km/h (1 Bft)
20.08.2016 18:47 14,2 C 14,2 C 92 % 1014,7 hPa 0,0 mm 1,0 km/h (0 Bft) S 176 0 min 0,000 mm 0,0 UV-I 32 W/m 12,9 C 3,2 km/h (1 Bft)
20.08.2016 18:48 14,2 C 14,2 C 92 % 1014,6 hPa 0,0 mm 1,1 km/h (1 Bft) S 176 0 min 0,000 mm 0,0 UV-I 32 W/m 12,9 C 1,6 km/h (1 Bft)
20.08.2016 18:49 14,2 C 14,2 C 92 % 1014,6 hPa 0,0 mm 0,9 km/h (0 Bft) S 176 0 min 0,000 mm 0,0 UV-I 32 W/m 12,9 C 1,6 km/h (1 Bft)
20.08.2016 18:50 14,2 C 14,2 C 93 % 1014,5 hPa 0,0 mm 1,9 km/h (1 Bft) S 176 0 min 0,000 mm 0,0 UV-I 30 W/m 13,1 C 3,2 km/h (1 Bft)
20.08.2016 18:51 14,2 C 14,2 C 93 % 1014,6 hPa 0,0 mm 1,0 km/h (0 Bft) S 176 0 min 0,000 mm 0,0 UV-I 30 W/m 13,1 C 1,6 km/h (1 Bft)
20.08.2016 18:52 14,2 C 14,2 C 93 % 1014,5 hPa 0,0 mm 1,4 km/h (1 Bft) S 176 0 min 0,000 mm 0,0 UV-I 30 W/m 13,1 C 1,6 km/h (1 Bft)
20.08.2016 18:53 14,2 C 14,2 C 93 % 1014,6 hPa 0,0 mm 0,2 km/h (0 Bft) S 176 0 min 0,000 mm 0,0 UV-I 30 W/m 13,1 C 1,6 km/h (1 Bft)
20.08.2016 18:54 14,2 C 14,2 C 93 % 1014,6 hPa 0,0 mm 0,0 km/h (0 Bft) S 176 0 min 0,000 mm 0,0 UV-I 30 W/m 13,1 C 0,0 km/h (0 Bft)
20.08.2016 18:55 14,2 C 14,2 C 93 % 1014,7 hPa 0,0 mm 0,0 km/h (0 Bft) S 176 0 min 0,000 mm 0,0 UV-I 30 W/m 13,1 C 0,0 km/h (0 Bft)
20.08.2016 18:56 14,2 C 14,2 C 93 % 1014,6 hPa 0,0 mm 0,4 km/h (0 Bft) S 176 0 min 0,000 mm 0,0 UV-I 30 W/m 13,1 C 1,6 km/h (1 Bft)
20.08.2016 18:57 14,2 C 14,3 C 93 % 1014,6 hPa 0,0 mm 1,7 km/h (1 Bft) S 176 0 min 0,000 mm 0,0 UV-I 30 W/m 13,1 C 3,2 km/h (1 Bft)
20.08.2016 18:58 14,2 C 14,2 C 93 % 1014,6 hPa 0,0 mm 2,4 km/h (1 Bft) S 176 0 min 0,000 mm 0,0 UV-I 30 W/m 13,1 C 3,2 km/h (1 Bft)
20.08.2016 18:59 14,2 C 14,2 C 93 % 1014,6 hPa 0,0 mm 3,0 km/h (1 Bft) S-SO 160 0 min 0,000 mm 0,0 UV-I 30 W/m 13,1 C 6,4 km/h (2 Bft)
20.08.2016 19:00 14,2 C 14,2 C 93 % 1014,7 hPa 0,0 mm 2,5 km/h (1 Bft) S-SO 167 0 min 0,000 mm 0,0 UV-I 30 W/m 13,1 C 6,4 km/h (2 Bft)
20.08.2016 19:01 14,2 C 14,2 C 93 % 1014,7 hPa 0,0 mm 1,3 km/h (1 Bft) S-SO 167 0 min 0,025 mm 0,0 UV-I 30 W/m 13,1 C 4,8 km/h (1 Bft)
20.08.2016 19:02 14,2 C 14,2 C 93 % 1014,8 hPa 0,0 mm 1,4 km/h (1 Bft) S-SW 202 0 min 0,000 mm 0,0 UV-I 30 W/m 13,1 C 4,8 km/h (1 Bft)
20.08.2016 19:03 14,2 C 14,2 C 93 % 1014,8 hPa 0,0 mm 2,6 km/h (1 Bft) S 170 0 min 0,000 mm 0,0 UV-I 30 W/m 13,1 C 3,2 km/h (1 Bft)
20.08.2016 19:04 14,2 C 14,2 C 93 % 1014,8 hPa 0,2 mm 2,1 km/h (1 Bft) S 170 0 min 0,000 mm 0,0 UV-I 30 W/m 13,1 C 3,2 km/h (1 Bft)
20.08.2016 19:05 14,2 C 14,2 C 93 % 1014,8 hPa 0,0 mm 2,6 km/h (1 Bft) S-SO 150 0 min 0,000 mm 0,0 UV-I 30 W/m 13,1 C 4,8 km/h (1 Bft)
20.08.2016 19:06 14,2 C 14,2 C 94 % 1014,8 hPa 0,0 mm 2,7 km/h (1 Bft) S-SO 150 0 min 0,000 mm 0,0 UV-I 30 W/m 13,2 C 4,8 km/h (1 Bft)
20.08.2016 19:07 14,2 C 14,2 C 94 % 1014,8 hPa 0,0 mm 3,1 km/h (1 Bft) S-SO 150 0 min 0,000 mm 0,0 UV-I 30 W/m 13,2 C 4,8 km/h (1 Bft)
20.08.2016 19:08 14,2 C 14,2 C 94 % 1014,8 hPa 0,0 mm 2,6 km/h (1 Bft) S-SO 150 0 min 0,000 mm 0,0 UV-I 30 W/m 13,2 C 3,2 km/h (1 Bft)
20.08.2016 19:09 14,2 C 14,2 C 94 % 1014,8 hPa 0,0 mm 2,6 km/h (1 Bft) S-SW 202 0 min 0,000 mm 0,0 UV-I 30 W/m 13,2 C 4,8 km/h (1 Bft)
20.08.2016 19:10 14,2 C 14,2 C 94 % 1014,8 hPa 0,0 mm 2,2 km/h (1 Bft) S-SW 200 0 min 0,000 mm 0,0 UV-I 30 W/m 13,2 C 3,2 km/h (1 Bft)
20.08.2016 19:11 14,2 C 14,3 C 94 % 1014,8 hPa 0,0 mm 2,0 km/h (1 Bft) S-SW 200 0 min 0,000 mm 0,0 UV-I 28 W/m 13,2 C 3,2 km/h (1 Bft)
20.08.2016 19:12 14,2 C 14,2 C 94 % 1014,8 hPa 0,0 mm 1,4 km/h (1 Bft) S-SW 200 0 min 0,000 mm 0,0 UV-I 28 W/m 13,2 C 3,2 km/h (1 Bft)
20.08.2016 19:13 14,2 C 14,3 C 94 % 1014,8 hPa 0,0 mm 0,9 km/h (0 Bft) S-SW 195 0 min 0,000 mm 0,0 UV-I 26 W/m 13,2 C 1,6 km/h (1 Bft)
20.08.2016 19:14 14,3 C 14,3 C 94 % 1014,8 hPa 0,0 mm 2,2 km/h (1 Bft) S 188 0 min 0,000 mm 0,0 UV-I 26 W/m 13,3 C 3,2 km/h (1 Bft)
20.08.2016 19:15 14,3 C 14,3 C 94 % 1014,9 hPa 0,0 mm 1,1 km/h (1 Bft) S 188 0 min 0,000 mm 0,0 UV-I 26 W/m 13,3 C 3,2 km/h (1 Bft)
20.08.2016 19:16 14,3 C 14,3 C 93 % 1014,9 hPa 0,0 mm 2,1 km/h (1 Bft) S 188 0 min 0,000 mm 0,0 UV-I 25 W/m 13,2 C 3,2 km/h (1 Bft)
20.08.2016 19:17 14,4 C 14,4 C 93 % 1014,9 hPa 0,0 mm 2,2 km/h (1 Bft) S 188 0 min 0,000 mm 0,0 UV-I 25 W/m 13,3 C 3,2 km/h (1 Bft)
20.08.2016 19:18 14,4 C 14,4 C 93 % 1014,9 hPa 0,0 mm 2,3 km/h (1 Bft) S 188 0 min 0,000 mm 0,0 UV-I 21 W/m 13,3 C 3,2 km/h (1 Bft)
20.08.2016 19:19 14,4 C 14,4 C 93 % 1014,9 hPa 0,0 mm 1,3 km/h (1 Bft) S 188 0 min 0,000 mm 0,0 UV-I 21 W/m 13,3 C 3,2 km/h (1 Bft)
20.08.2016 19:20 14,4 C 14,4 C 93 % 1015,0 hPa 0,0 mm 1,2 km/h (1 Bft) S 188 0 min 0,000 mm 0,0 UV-I 21 W/m 13,3 C 3,2 km/h (1 Bft)
20.08.2016 19:21 14,4 C 14,4 C 93 % 1015,0 hPa 0,0 mm 2,9 km/h (1 Bft) S-SW 194 0 min 0,000 mm 0,0 UV-I 21 W/m 13,3 C 4,8 km/h (1 Bft)
20.08.2016 19:22 14,4 C 14,4 C 93 % 1015,0 hPa 0,0 mm 3,3 km/h (1 Bft) S 186 0 min 0,000 mm 0,0 UV-I 21 W/m 13,3 C 4,8 km/h (1 Bft)
20.08.2016 19:23 14,4 C 14,4 C 93 % 1015,1 hPa 0,0 mm 5,3 km/h (1 Bft) S-SW 201 0 min 0,000 mm 0,0 UV-I 19 W/m 13,3 C 8,0 km/h (2 Bft)
20.08.2016 19:24 14,4 C 14,4 C 92 % 1015,1 hPa 0,0 mm 6,4 km/h (2 Bft) S 182 0 min 0,000 mm 0,0 UV-I 19 W/m 13,1 C 9,7 km/h (2 Bft)
20.08.2016 19:25 14,5 C 14,5 C 92 % 1015,1 hPa 0,0 mm 4,5 km/h (1 Bft) S-SW 194 0 min 0,000 mm 0,0 UV-I 19 W/m 13,2 C 8,0 km/h (2 Bft)
20.08.2016 19:26 14,6 C 14,6 C 92 % 1015,1 hPa 0,0 mm 1,9 km/h (1 Bft) S-SW 194 0 min 0,000 mm 0,0 UV-I 18 W/m 13,3 C 3,2 km/h (1 Bft)
20.08.2016 19:27 14,6 C 14,6 C 93 % 1015,1 hPa 0,0 mm 1,9 km/h (1 Bft) S-SW 194 0 min 0,000 mm 0,0 UV-I 18 W/m 13,5 C 3,2 km/h (1 Bft)
20.08.2016 19:28 14,6 C 14,6 C 92 % 1015,1 hPa 0,0 mm 2,2 km/h (1 Bft) S-SW 193 0 min 0,000 mm 0,0 UV-I 18 W/m 13,3 C 3,2 km/h (1 Bft)
20.08.2016 19:29 14,5 C 14,6 C 92 % 1015,1 hPa 0,0 mm 3,6 km/h (1 Bft) SO 141 0 min 0,000 mm 0,0 UV-I 18 W/m 13,2 C 6,4 km/h (2 Bft)
20.08.2016 19:30 14,4 C 14,5 C 93 % 1015,1 hPa 0,0 mm 3,3 km/h (1 Bft) O-SO 119 0 min 0,000 mm 0,0 UV-I 16 W/m 13,3 C 4,8 km/h (1 Bft)
20.08.2016 19:31 14,4 C 14,4 C 93 % 1015,1 hPa 0,0 mm 2,1 km/h (1 Bft) O-SO 119 0 min 0,000 mm 0,0 UV-I 16 W/m 13,3 C 3,2 km/h (1 Bft)
20.08.2016 19:32 14,4 C 14,4 C 93 % 1015,1 hPa 0,0 mm 2,4 km/h (1 Bft) O-SO 119 0 min 0,000 mm 0,0 UV-I 16 W/m 13,3 C 3,2 km/h (1 Bft)
20.08.2016 19:33 14,3 C 14,4 C 93 % 1015,0 hPa 0,0 mm 2,7 km/h (1 Bft) O-SO 119 0 min 0,000 mm 0,0 UV-I 16 W/m 13,2 C 3,2 km/h (1 Bft)
20.08.2016 19:34 14,3 C 14,4 C 93 % 1015,0 hPa 0,0 mm 2,6 km/h (1 Bft) O-SO 119 0 min 0,000 mm 0,0 UV-I 16 W/m 13,2 C 3,2 km/h (1 Bft)
20.08.2016 19:35 14,3 C 14,3 C 93 % 1015,0 hPa 0,0 mm 2,3 km/h (1 Bft) O-SO 121 0 min 0,000 mm 0,0 UV-I 14 W/m 13,2 C 4,8 km/h (1 Bft)
20.08.2016 19:36 14,2 C 14,3 C 93 % 1015,0 hPa 0,0 mm 3,4 km/h (1 Bft) O-SO 121 0 min 0,000 mm 0,0 UV-I 14 W/m 13,1 C 4,8 km/h (1 Bft)
20.08.2016 19:37 14,2 C 14,2 C 93 % 1015,0 hPa 0,0 mm 3,1 km/h (1 Bft) O-SO 123 0 min 0,000 mm 0,0 UV-I 14 W/m 13,1 C 4,8 km/h (1 Bft)
20.08.2016 19:38 14,2 C 14,2 C 93 % 1015,0 hPa 0,0 mm 3,8 km/h (1 Bft) SO 126 0 min 0,000 mm 0,0 UV-I 14 W/m 13,1 C 4,8 km/h (1 Bft)
20.08.2016 19:39 14,2 C 14,2 C 93 % 1015,0 hPa 0,0 mm 4,0 km/h (1 Bft) SO 133 0 min 0,000 mm 0,0 UV-I 14 W/m 13,1 C 4,8 km/h (1 Bft)
20.08.2016 19:40 14,2 C 14,2 C 93 % 1015,0 hPa 0,0 mm 1,9 km/h (1 Bft) SO 133 0 min 0,000 mm 0,0 UV-I 14 W/m 13,1 C 3,2 km/h (1 Bft)
20.08.2016 19:41 14,2 C 14,2 C 93 % 1015,0 hPa 0,0 mm 1,7 km/h (1 Bft) SO 133 0 min 0,000 mm 0,0 UV-I 14 W/m 13,1 C 3,2 km/h (1 Bft)
20.08.2016 19:42 14,2 C 14,2 C 93 % 1015,1 hPa 0,0 mm 1,1 km/h (1 Bft) SO 133 0 min 0,000 mm 0,0 UV-I 12 W/m 13,1 C 1,6 km/h (1 Bft)
20.08.2016 19:43 14,2 C 14,2 C 93 % 1015,1 hPa 0,0 mm 0,8 km/h (0 Bft) SO 133 0 min 0,000 mm 0,0 UV-I 12 W/m 13,1 C 3,2 km/h (1 Bft)
20.08.2016 19:44 14,2 C 14,2 C 93 % 1015,1 hPa 0,0 mm 0,1 km/h (0 Bft) SO 133 0 min 0,000 mm 0,0 UV-I 11 W/m 13,1 C 1,6 km/h (1 Bft)
20.08.2016 19:45 14,2 C 14,2 C 93 % 1015,1 hPa 0,0 mm 0,0 km/h (0 Bft) SO 133 0 min 0,000 mm 0,0 UV-I 11 W/m 13,1 C 0,0 km/h (0 Bft)
20.08.2016 19:46 14,2 C 14,2 C 93 % 1015,1 hPa 0,0 mm 2,1 km/h (1 Bft) SO 133 0 min 0,000 mm 0,0 UV-I 9 W/m 13,1 C 3,2 km/h (1 Bft)
20.08.2016 19:47 14,1 C 14,2 C 94 % 1015,0 hPa 0,0 mm 1,0 km/h (0 Bft) SO 133 0 min 0,000 mm 0,0 UV-I 9 W/m 13,1 C 1,6 km/h (1 Bft)
20.08.2016 19:48 14,2 C 14,2 C 94 % 1015,0 hPa 0,0 mm 2,3 km/h (1 Bft) SO 133 0 min 0,000 mm 0,0 UV-I 7 W/m 13,2 C 3,2 km/h (1 Bft)
20.08.2016 19:49 14,2 C 14,2 C 94 % 1015,0 hPa 0,0 mm 3,6 km/h (1 Bft) SO 133 0 min 0,000 mm 0,0 UV-I 7 W/m 13,2 C 4,8 km/h (1 Bft)
20.08.2016 19:50 14,2 C 14,2 C 94 % 1015,0 hPa 0,0 mm 3,4 km/h (1 Bft) SO 131 0 min 0,000 mm 0,0 UV-I 5 W/m 13,2 C 4,8 km/h (1 Bft)
20.08.2016 19:51 14,2 C 14,2 C 94 % 1015,0 hPa 0,0 mm 2,0 km/h (1 Bft) SO 131 0 min 0,000 mm 0,0 UV-I 5 W/m 13,2 C 3,2 km/h (1 Bft)
20.08.2016 19:52 14,2 C 14,2 C 94 % 1015,0 hPa 0,0 mm 0,9 km/h (0 Bft) SO 131 0 min 0,000 mm 0,0 UV-I 5 W/m 13,2 C 1,6 km/h (1 Bft)
20.08.2016 19:53 14,2 C 14,2 C 94 % 1015,0 hPa 0,0 mm 0,0 km/h (0 Bft) SO 131 0 min 0,000 mm 0,0 UV-I 5 W/m 13,2 C 0,0 km/h (0 Bft)
20.08.2016 19:54 14,2 C 14,2 C 94 % 1015,0 hPa 0,0 mm 1,3 km/h (1 Bft) SO 131 0 min 0,000 mm 0,0 UV-I 5 W/m 13,2 C 3,2 km/h (1 Bft)
20.08.2016 19:55 14,2 C 14,3 C 95 % 1015,0 hPa 0,0 mm 2,4 km/h (1 Bft) SO 140 0 min 0,000 mm 0,0 UV-I 0 W/m 13,4 C 3,2 km/h (1 Bft)
20.08.2016 19:56 14,2 C 14,3 C 94 % 1015,1 hPa 0,0 mm 0,0 km/h (0 Bft) SO 140 0 min 0,000 mm 0,0 UV-I 0 W/m 13,2 C 0,0 km/h (0 Bft)
20.08.2016 19:57 14,3 C 14,3 C 94 % 1015,2 hPa 0,0 mm 0,3 km/h (0 Bft) SO 140 0 min 0,000 mm 0,0 UV-I 0 W/m 13,3 C 1,6 km/h (1 Bft)
20.08.2016 19:58 14,3 C 14,3 C 94 % 1015,2 hPa 0,0 mm 1,6 km/h (1 Bft) SO 140 0 min 0,000 mm 0,0 UV-I 0 W/m 13,3 C 1,6 km/h (1 Bft)
20.08.2016 19:59 14,3 C 14,3 C 94 % 1015,2 hPa 0,0 mm 0,2 km/h (0 Bft) SO 140 0 min 0,000 mm 0,0 UV-I 0 W/m 13,3 C 1,6 km/h (1 Bft)
20.08.2016 20:00 14,3 C 14,3 C 94 % 1015,2 hPa 0,0 mm 0,2 km/h (0 Bft) SO 140 0 min 0,000 mm 0,0 UV-I 0 W/m 13,3 C 1,6 km/h (1 Bft)
20.08.2016 20:01 14,3 C 14,3 C 94 % 1015,2 hPa 0,0 mm 0,6 km/h (0 Bft) SO 140 0 min 0,000 mm 0,0 UV-I 0 W/m 13,3 C 1,6 km/h (1 Bft)
20.08.2016 20:02 14,3 C 14,3 C 94 % 1015,2 hPa 0,0 mm 0,0 km/h (0 Bft) SO 140 0 min 0,000 mm 0,0 UV-I 0 W/m 13,3 C 0,0 km/h (0 Bft)
20.08.2016 20:03 14,3 C 14,3 C 94 % 1015,3 hPa 0,0 mm 0,0 km/h (0 Bft) SO 140 0 min 0,000 mm 0,0 UV-I 0 W/m 13,3 C 1,6 km/h (1 Bft)
20.08.2016 20:05 14,3 C 14,3 C 94 % 1015,2 hPa 0,0 mm 0,1 km/h (0 Bft) SO 140 0 min 0,000 mm 0,0 UV-I 0 W/m 13,3 C 1,6 km/h (1 Bft)
20.08.2016 20:06 14,3 C 14,3 C 94 % 1015,2 hPa 0,0 mm 0,6 km/h (0 Bft) SO 140 0 min 0,000 mm 0,0 UV-I 0 W/m 13,3 C 1,6 km/h (1 Bft)
20.08.2016 20:07 14,3 C 14,3 C 94 % 1015,2 hPa 0,0 mm 3,1 km/h (1 Bft) SO 140 0 min 0,000 mm 0,0 UV-I 0 W/m 13,3 C 4,8 km/h (1 Bft)
20.08.2016 20:09 14,3 C 14,4 C 94 % 1015,2 hPa 0,0 mm 2,6 km/h (1 Bft) SO 140 0 min 0,000 mm 0,0 UV-I 0 W/m 13,3 C 3,2 km/h (1 Bft)
20.08.2016 20:10 14,3 C 14,4 C 93 % 1015,2 hPa 0,0 mm 2,9 km/h (1 Bft) SO 140 0 min 0,000 mm 0,0 UV-I 0 W/m 13,2 C 4,8 km/h (1 Bft)
20.08.2016 20:11 14,4 C 14,4 C 94 % 1015,2 hPa 0,0 mm 2,2 km/h (1 Bft) SO 140 0 min 0,000 mm 0,0 UV-I 0 W/m 13,4 C 3,2 km/h (1 Bft)
20.08.2016 20:12 14,3 C 14,4 C 94 % 1015,2 hPa 0,0 mm 0,7 km/h (0 Bft) SO 140 0 min 0,000 mm 0,0 UV-I 0 W/m 13,3 C 1,6 km/h (1 Bft)
20.08.2016 20:13 14,4 C 14,4 C 94 % 1015,2 hPa 0,0 mm 0,0 km/h (0 Bft) SO 140 0 min 0,000 mm 0,0 UV-I 0 W/m 13,4 C 0,0 km/h (0 Bft)
20.08.2016 20:14 14,3 C 14,4 C 94 % 1015,2 hPa 0,0 mm 0,0 km/h (0 Bft) SO 140 0 min 0,000 mm 0,0 UV-I 0 W/m 13,3 C 0,0 km/h (0 Bft)
20.08.2016 20:15 14,4 C 14,4 C 94 % 1015,2 hPa 0,0 mm 0,0 km/h (0 Bft) SO 140 0 min 0,000 mm 0,0 UV-I 0 W/m 13,4 C 0,0 km/h (0 Bft)
20.08.2016 20:16 14,3 C 14,4 C 94 % 1015,2 hPa 0,0 mm 0,1 km/h (0 Bft) SO 140 0 min 0,000 mm 0,0 UV-I 0 W/m 13,3 C 1,6 km/h (1 Bft)
20.08.2016 20:17 14,4 C 14,4 C 94 % 1015,1 hPa 0,0 mm 1,4 km/h (1 Bft) SO 140 0 min 0,000 mm 0,0 UV-I 0 W/m 13,4 C 1,6 km/h (1 Bft)
20.08.2016 20:18 14,3 C 14,4 C 94 % 1015,0 hPa 0,0 mm 0,9 km/h (0 Bft) SO 140 0 min 0,000 mm 0,0 UV-I 0 W/m 13,3 C 1,6 km/h (1 Bft)
20.08.2016 20:19 14,3 C 14,4 C 94 % 1015,0 hPa 0,0 mm 0,3 km/h (0 Bft) SO 140 0 min 0,000 mm 0,0 UV-I 0 W/m 13,3 C 1,6 km/h (1 Bft)
20.08.2016 20:20 14,3 C 14,4 C 94 % 1015,0 hPa 0,0 mm 0,0 km/h (0 Bft) SO 140 0 min 0,000 mm 0,0 UV-I 0 W/m 13,3 C 0,0 km/h (0 Bft)
20.08.2016 20:21 14,3 C 14,3 C 94 % 1015,0 hPa 0,0 mm 0,0 km/h (0 Bft) SO 140 0 min 0,000 mm 0,0 UV-I 0 W/m 13,3 C 0,0 km/h (0 Bft)
20.08.2016 20:22 14,3 C 14,4 C 94 % 1015,0 hPa 0,0 mm 0,6 km/h (0 Bft) SO 140 0 min 0,000 mm 0,0 UV-I 0 W/m 13,3 C 1,6 km/h (1 Bft)
20.08.2016 20:23 14,3 C 14,4 C 94 % 1015,0 hPa 0,0 mm 0,7 km/h (0 Bft) SO 140 0 min 0,000 mm 0,0 UV-I 0 W/m 13,3 C 1,6 km/h (1 Bft)
20.08.2016 20:24 14,3 C 14,4 C 94 % 1015,0 hPa 0,0 mm 0,5 km/h (0 Bft) SO 140 0 min 0,000 mm 0,0 UV-I 0 W/m 13,3 C 1,6 km/h (1 Bft)
20.08.2016 20:25 14,3 C 14,3 C 94 % 1015,0 hPa 0,0 mm 1,1 km/h (1 Bft) SO 140 0 min 0,000 mm 0,0 UV-I 0 W/m 13,3 C 1,6 km/h (1 Bft)
20.08.2016 20:26 14,3 C 14,4 C 94 % 1015,0 hPa 0,0 mm 0,0 km/h (0 Bft) SO 140 0 min 0,000 mm 0,0 UV-I 0 W/m 13,3 C 0,0 km/h (0 Bft)
20.08.2016 20:27 14,4 C 14,4 C 94 % 1015,0 hPa 0,0 mm 0,2 km/h (0 Bft) SO 140 0 min 0,000 mm 0,0 UV-I 0 W/m 13,4 C 1,6 km/h (1 Bft)
20.08.2016 20:28 14,4 C 14,4 C 94 % 1015,0 hPa 0,0 mm 0,0 km/h (0 Bft) SO 140 0 min 0,000 mm 0,0 UV-I 0 W/m 13,4 C 0,0 km/h (0 Bft)
20.08.2016 20:29 14,4 C 14,4 C 95 % 1015,0 hPa 0,0 mm 0,2 km/h (0 Bft) SO 140 0 min 0,000 mm 0,0 UV-I 0 W/m 13,6 C 1,6 km/h (1 Bft)
20.08.2016 20:30 14,4 C 14,4 C 94 % 1015,1 hPa 0,0 mm 1,5 km/h (1 Bft) SO 140 0 min 0,000 mm 0,0 UV-I 0 W/m 13,4 C 1,6 km/h (1 Bft)
20.08.2016 20:31 14,6 C 14,6 C 94 % 1015,1 hPa 0,0 mm 2,0 km/h (1 Bft) SW 229 0 min 0,000 mm 0,0 UV-I 0 W/m 13,6 C 3,2 km/h (1 Bft)
20.08.2016 20:32 14,6 C 14,6 C 95 % 1015,0 hPa 0,0 mm 0,2 km/h (0 Bft) SW 229 0 min 0,000 mm 0,0 UV-I 0 W/m 13,8 C 1,6 km/h (1 Bft)
20.08.2016 20:33 14,6 C 14,7 C 95 % 1015,1 hPa 0,0 mm 0,0 km/h (0 Bft) SW 229 0 min 0,000 mm 0,0 UV-I 0 W/m 13,8 C 0,0 km/h (0 Bft)
20.08.2016 20:34 14,6 C 14,7 C 94 % 1015,0 hPa 0,0 mm 0,0 km/h (0 Bft) SW 229 0 min 0,000 mm 0,0 UV-I 0 W/m 13,6 C 0,0 km/h (0 Bft)
20.08.2016 20:35 14,6 C 14,6 C 94 % 1015,0 hPa 0,0 mm 0,0 km/h (0 Bft) SW 229 0 min 0,000 mm 0,0 UV-I 0 W/m 13,6 C 0,0 km/h (0 Bft)
20.08.2016 20:36 14,6 C 14,7 C 94 % 1015,0 hPa 0,0 mm 0,0 km/h (0 Bft) SW 229 0 min 0,000 mm 0,0 UV-I 0 W/m 13,6 C 0,0 km/h (0 Bft)
20.08.2016 20:37 14,6 C 14,6 C 94 % 1015,0 hPa 0,0 mm 0,0 km/h (0 Bft) SW 223 0 min 0,000 mm 0,0 UV-I 0 W/m 13,6 C 0,0 km/h (0 Bft)
20.08.2016 20:38 14,6 C 14,6 C 94 % 1015,0 hPa 0,0 mm 0,0 km/h (0 Bft) SW 223 0 min 0,000 mm 0,0 UV-I 0 W/m 13,6 C 0,0 km/h (0 Bft)
20.08.2016 20:39 14,6 C 14,6 C 94 % 1015,0 hPa 0,0 mm 0,0 km/h (0 Bft) SW 223 0 min 0,000 mm 0,0 UV-I 0 W/m 13,6 C 0,0 km/h (0 Bft)
20.08.2016 20:40 14,6 C 14,6 C 94 % 1015,0 hPa 0,0 mm 0,0 km/h (0 Bft) SW 223 0 min 0,000 mm 0,0 UV-I 0 W/m 13,6 C 0,0 km/h (0 Bft)
20.08.2016 20:41 14,6 C 14,6 C 95 % 1015,0 hPa 0,0 mm 0,0 km/h (0 Bft) SW 223 0 min 0,000 mm 0,0 UV-I 0 W/m 13,8 C 0,0 km/h (0 Bft)
20.08.2016 20:42 14,6 C 14,6 C 95 % 1015,0 hPa 0,0 mm 0,0 km/h (0 Bft) SW 223 0 min 0,000 mm 0,0 UV-I 0 W/m 13,8 C 0,0 km/h (0 Bft)
20.08.2016 20:43 14,6 C 14,6 C 95 % 1014,9 hPa 0,0 mm 0,0 km/h (0 Bft) SW 223 0 min 0,000 mm 0,0 UV-I 0 W/m 13,8 C 0,0 km/h (0 Bft)
20.08.2016 20:44 14,6 C 14,6 C 95 % 1014,9 hPa 0,0 mm 0,0 km/h (0 Bft) SW 223 0 min 0,000 mm 0,0 UV-I 0 W/m 13,8 C 0,0 km/h (0 Bft)
20.08.2016 20:45 14,6 C 14,6 C 95 % 1015,0 hPa 0,0 mm 0,7 km/h (0 Bft) SW 223 0 min 0,000 mm 0,0 UV-I 0 W/m 13,8 C 1,6 km/h (1 Bft)
20.08.2016 20:46 14,6 C 14,6 C 95 % 1015,0 hPa 0,0 mm 1,7 km/h (1 Bft) W-NW 303 0 min 0,000 mm 0,0 UV-I 0 W/m 13,8 C 4,8 km/h (1 Bft)
20.08.2016 20:47 14,6 C 14,6 C 95 % 1015,0 hPa 0,0 mm 3,2 km/h (1 Bft) W 269 0 min 0,000 mm 0,0 UV-I 0 W/m 13,8 C 4,8 km/h (1 Bft)
20.08.2016 20:48 14,7 C 14,7 C 95 % 1015,0 hPa 0,0 mm 2,9 km/h (1 Bft) W 269 0 min 0,000 mm 0,0 UV-I 0 W/m 13,9 C 3,2 km/h (1 Bft)
20.08.2016 20:49 14,7 C 14,7 C 95 % 1015,1 hPa 0,0 mm 1,5 km/h (1 Bft) W 269 0 min 0,000 mm 0,0 UV-I 0 W/m 13,9 C 3,2 km/h (1 Bft)
20.08.2016 20:50 14,7 C 14,7 C 95 % 1015,0 hPa 0,0 mm 1,3 km/h (1 Bft) W 269 0 min 0,000 mm 0,0 UV-I 0 W/m 13,9 C 3,2 km/h (1 Bft)
20.08.2016 20:51 14,7 C 14,7 C 95 % 1015,2 hPa 0,0 mm 0,6 km/h (0 Bft) W 269 0 min 0,000 mm 0,0 UV-I 0 W/m 13,9 C 1,6 km/h (1 Bft)
20.08.2016 20:52 14,7 C 14,7 C 95 % 1015,2 hPa 0,0 mm 0,6 km/h (0 Bft) W 269 0 min 0,000 mm 0,0 UV-I 0 W/m 13,9 C 1,6 km/h (1 Bft)
20.08.2016 20:53 14,7 C 14,7 C 95 % 1015,2 hPa 0,0 mm 0,6 km/h (0 Bft) W 269 0 min 0,000 mm 0,0 UV-I 0 W/m 13,9 C 1,6 km/h (1 Bft)
20.08.2016 20:54 14,7 C 14,7 C 95 % 1015,2 hPa 0,0 mm 0,3 km/h (0 Bft) W 269 0 min 0,000 mm 0,0 UV-I 0 W/m 13,9 C 1,6 km/h (1 Bft)
20.08.2016 20:55 14,7 C 14,7 C 95 % 1015,3 hPa 0,0 mm 0,1 km/h (0 Bft) W 269 0 min 0,000 mm 0,0 UV-I 0 W/m 13,9 C 1,6 km/h (1 Bft)
20.08.2016 20:56 14,7 C 14,7 C 95 % 1015,2 hPa 0,0 mm 0,4 km/h (0 Bft) W 269 0 min 0,000 mm 0,0 UV-I 0 W/m 13,9 C 1,6 km/h (1 Bft)
20.08.2016 20:57 14,7 C 14,7 C 95 % 1015,2 hPa 0,0 mm 0,7 km/h (0 Bft) W 269 0 min 0,000 mm 0,0 UV-I 0 W/m 13,9 C 1,6 km/h (1 Bft)
20.08.2016 20:58 14,7 C 14,7 C 95 % 1015,2 hPa 0,0 mm 0,2 km/h (0 Bft) W 269 0 min 0,000 mm 0,0 UV-I 0 W/m 13,9 C 1,6 km/h (1 Bft)
20.08.2016 20:59 14,7 C 14,7 C 95 % 1015,2 hPa 0,0 mm 0,0 km/h (0 Bft) W 269 0 min 0,000 mm 0,0 UV-I 0 W/m 13,9 C 0,0 km/h (0 Bft)
20.08.2016 21:00 14,7 C 14,8 C 95 % 1015,2 hPa 0,0 mm 0,1 km/h (0 Bft) W 269 0 min 0,000 mm 0,0 UV-I 0 W/m 13,9 C 1,6 km/h (1 Bft)
20.08.2016 21:01 14,8 C 14,8 C 95 % 1015,1 hPa 0,0 mm 0,1 km/h (0 Bft) W 269 0 min 0,000 mm 0,0 UV-I 0 W/m 14,0 C 1,6 km/h (1 Bft)
20.08.2016 21:02 14,8 C 14,8 C 95 % 1015,1 hPa 0,0 mm 0,7 km/h (0 Bft) W 269 0 min 0,000 mm 0,0 UV-I 0 W/m 14,0 C 1,6 km/h (1 Bft)
20.08.2016 21:03 14,8 C 14,8 C 95 % 1015,2 hPa 0,0 mm 0,2 km/h (0 Bft) W 269 0 min 0,000 mm 0,0 UV-I 0 W/m 14,0 C 1,6 km/h (1 Bft)
20.08.2016 21:04 14,8 C 14,8 C 95 % 1015,2 hPa 0,0 mm 0,1 km/h (0 Bft) W 269 0 min 0,000 mm 0,0 UV-I 0 W/m 14,0 C 1,6 km/h (1 Bft)
20.08.2016 21:05 14,8 C 14,8 C 95 % 1015,1 hPa 0,0 mm 0,0 km/h (0 Bft) W 269 0 min 0,000 mm 0,0 UV-I 0 W/m 14,0 C 0,0 km/h (0 Bft)
20.08.2016 21:06 14,8 C 14,8 C 95 % 1015,1 hPa 0,0 mm 0,1 km/h (0 Bft) W 269 0 min 0,000 mm 0,0 UV-I 0 W/m 14,0 C 1,6 km/h (1 Bft)
20.08.2016 21:07 14,8 C 14,8 C 95 % 1015,1 hPa 0,0 mm 1,4 km/h (1 Bft) W-NW 303 0 min 0,000 mm 0,0 UV-I 0 W/m 14,0 C 3,2 km/h (1 Bft)
20.08.2016 21:08 14,8 C 14,8 C 95 % 1015,1 hPa 0,0 mm 0,9 km/h (0 Bft) W-NW 303 0 min 0,000 mm 0,0 UV-I 0 W/m 14,0 C 3,2 km/h (1 Bft)
20.08.2016 21:09 14,8 C 14,8 C 95 % 1015,1 hPa 0,0 mm 0,3 km/h (0 Bft) W-NW 303 0 min 0,000 mm 0,0 UV-I 0 W/m 14,0 C 1,6 km/h (1 Bft)
20.08.2016 21:10 14,8 C 14,8 C 95 % 1015,1 hPa 0,0 mm 0,4 km/h (0 Bft) W-NW 303 0 min 0,000 mm 0,0 UV-I 0 W/m 14,0 C 1,6 km/h (1 Bft)
20.08.2016 21:11 14,8 C 14,8 C 95 % 1015,1 hPa 0,0 mm 1,3 km/h (1 Bft) W-NW 303 0 min 0,000 mm 0,0 UV-I 0 W/m 14,0 C 1,6 km/h (1 Bft)
20.08.2016 21:12 14,8 C 14,8 C 95 % 1015,1 hPa 0,0 mm 1,3 km/h (1 Bft) W-NW 303 0 min 0,000 mm 0,0 UV-I 0 W/m 14,0 C 3,2 km/h (1 Bft)
20.08.2016 21:13 14,8 C 14,8 C 95 % 1015,1 hPa 0,0 mm 1,6 km/h (1 Bft) W-NW 303 0 min 0,000 mm 0,0 UV-I 0 W/m 14,0 C 3,2 km/h (1 Bft)
20.08.2016 21:14 14,8 C 14,8 C 95 % 1015,1 hPa 0,0 mm 1,6 km/h (1 Bft) NW 306 0 min 0,000 mm 0,0 UV-I 0 W/m 14,0 C 3,2 km/h (1 Bft)
20.08.2016 21:15 14,8 C 14,8 C 94 % 1015,1 hPa 0,0 mm 1,8 km/h (1 Bft) NW 306 0 min 0,000 mm 0,0 UV-I 0 W/m 13,8 C 3,2 km/h (1 Bft)
20.08.2016 21:16 14,8 C 14,8 C 94 % 1015,2 hPa 0,0 mm 1,9 km/h (1 Bft) W-NW 299 0 min 0,000 mm 0,0 UV-I 0 W/m 13,8 C 3,2 km/h (1 Bft)
20.08.2016 21:17 14,9 C 14,9 C 94 % 1015,2 hPa 0,0 mm 1,7 km/h (1 Bft) W-NW 292 0 min 0,000 mm 0,0 UV-I 0 W/m 13,9 C 3,2 km/h (1 Bft)
20.08.2016 21:18 14,9 C 14,9 C 94 % 1015,2 hPa 0,0 mm 2,5 km/h (1 Bft) W-NW 292 0 min 0,000 mm 0,0 UV-I 0 W/m 13,9 C 3,2 km/h (1 Bft)
20.08.2016 21:19 14,9 C 14,9 C 94 % 1015,2 hPa 0,0 mm 3,1 km/h (1 Bft) W 277 0 min 0,000 mm 0,0 UV-I 0 W/m 13,9 C 4,8 km/h (1 Bft)
20.08.2016 21:20 14,9 C 15,0 C 94 % 1015,2 hPa 0,0 mm 3,8 km/h (1 Bft) W-SW 246 0 min 0,000 mm 0,0 UV-I 0 W/m 13,9 C 4,8 km/h (1 Bft)
20.08.2016 21:21 14,9 C 14,9 C 94 % 1015,3 hPa 0,0 mm 3,8 km/h (1 Bft) W-SW 240 0 min 0,000 mm 0,0 UV-I 0 W/m 13,9 C 4,8 km/h (1 Bft)
20.08.2016 21:22 14,9 C 15,0 C 94 % 1015,3 hPa 0,0 mm 2,1 km/h (1 Bft) W-SW 240 0 min 0,000 mm 0,0 UV-I 0 W/m 13,9 C 3,2 km/h (1 Bft)
20.08.2016 21:23 14,9 C 14,9 C 94 % 1015,3 hPa 0,0 mm 1,4 km/h (1 Bft) W-SW 240 0 min 0,000 mm 0,0 UV-I 0 W/m 13,9 C 1,6 km/h (1 Bft)
20.08.2016 21:24 14,9 C 14,9 C 93 % 1015,4 hPa 0,0 mm 1,7 km/h (1 Bft) SW 231 0 min 0,000 mm 0,0 UV-I 0 W/m 13,8 C 3,2 km/h (1 Bft)
20.08.2016 21:25 14,9 C 14,9 C 93 % 1015,4 hPa 0,0 mm 1,6 km/h (1 Bft) SW 231 0 min 0,000 mm 0,0 UV-I 0 W/m 13,8 C 3,2 km/h (1 Bft)
20.08.2016 21:26 14,9 C 15,0 C 93 % 1015,3 hPa 0,0 mm 2,2 km/h (1 Bft) W-SW 244 0 min 0,000 mm 0,0 UV-I 0 W/m 13,8 C 4,8 km/h (1 Bft)
20.08.2016 21:27 15,0 C 15,0 C 93 % 1015,4 hPa 0,0 mm 1,9 km/h (1 Bft) W-SW 244 0 min 0,000 mm 0,0 UV-I 0 W/m 13,9 C 3,2 km/h (1 Bft)
20.08.2016 21:28 15,0 C 15,0 C 93 % 1015,4 hPa 0,0 mm 0,1 km/h (0 Bft) W-SW 244 0 min 0,000 mm 0,0 UV-I 0 W/m 13,9 C 1,6 km/h (1 Bft)
20.08.2016 21:29 14,9 C 15,0 C 93 % 1015,4 hPa 0,0 mm 0,5 km/h (0 Bft) W-SW 244 0 min 0,000 mm 0,0 UV-I 0 W/m 13,8 C 1,6 km/h (1 Bft)
20.08.2016 21:30 14,9 C 15,0 C 93 % 1015,4 hPa 0,0 mm 2,2 km/h (1 Bft) SW 227 0 min 0,000 mm 0,0 UV-I 0 W/m 13,8 C 3,2 km/h (1 Bft)
20.08.2016 21:31 14,9 C 14,9 C 93 % 1015,4 hPa 0,0 mm 2,8 km/h (1 Bft) S-SW 202 0 min 0,000 mm 0,0 UV-I 0 W/m 13,8 C 3,2 km/h (1 Bft)
20.08.2016 21:32 14,9 C 14,9 C 94 % 1015,3 hPa 0,0 mm 1,5 km/h (1 Bft) S-SW 202 0 min 0,000 mm 0,0 UV-I 0 W/m 13,9 C 1,6 km/h (1 Bft)
20.08.2016 21:33 14,8 C 14,9 C 94 % 1015,4 hPa 0,0 mm 1,8 km/h (1 Bft) S-SW 202 0 min 0,000 mm 0,0 UV-I 0 W/m 13,8 C 3,2 km/h (1 Bft)
20.08.2016 21:34 14,8 C 14,9 C 94 % 1015,3 hPa 0,0 mm 1,7 km/h (1 Bft) S-SW 202 0 min 0,000 mm 0,0 UV-I 0 W/m 13,8 C 3,2 km/h (1 Bft)
20.08.2016 21:35 14,8 C 14,8 C 94 % 1015,3 hPa 0,0 mm 0,4 km/h (0 Bft) S-SW 202 0 min 0,000 mm 0,0 UV-I 0 W/m 13,8 C 1,6 km/h (1 Bft)
20.08.2016 21:36 14,8 C 14,8 C 94 % 1015,3 hPa 0,0 mm 0,0 km/h (0 Bft) S-SW 202 0 min 0,000 mm 0,0 UV-I 0 W/m 13,8 C 0,0 km/h (0 Bft)
20.08.2016 21:37 14,8 C 14,8 C 94 % 1015,2 hPa 0,0 mm 0,0 km/h (0 Bft) S-SW 202 0 min 0,000 mm 0,0 UV-I 0 W/m 13,8 C 0,0 km/h (0 Bft)
20.08.2016 21:38 14,8 C 14,8 C 94 % 1015,3 hPa 0,0 mm 0,0 km/h (0 Bft) S-SW 202 0 min 0,000 mm 0,0 UV-I 0 W/m 13,8 C 0,0 km/h (0 Bft)
20.08.2016 21:39 14,8 C 14,8 C 94 % 1015,2 hPa 0,0 mm 0,0 km/h (0 Bft) S-SW 202 0 min 0,000 mm 0,0 UV-I 0 W/m 13,8 C 0,0 km/h (0 Bft)
20.08.2016 21:40 14,8 C 14,8 C 94 % 1015,3 hPa 0,0 mm 0,0 km/h (0 Bft) S-SW 202 0 min 0,000 mm 0,0 UV-I 0 W/m 13,8 C 0,0 km/h (0 Bft)
20.08.2016 21:41 14,8 C 14,8 C 94 % 1015,2 hPa 0,0 mm 0,0 km/h (0 Bft) S-SW 202 0 min 0,000 mm 0,0 UV-I 0 W/m 13,8 C 0,0 km/h (0 Bft)
20.08.2016 21:42 14,8 C 14,8 C 94 % 1015,2 hPa 0,0 mm 0,0 km/h (0 Bft) S-SW 202 0 min 0,000 mm 0,0 UV-I 0 W/m 13,8 C 0,0 km/h (0 Bft)
20.08.2016 21:43 14,8 C 14,8 C 94 % 1015,2 hPa 0,0 mm 0,0 km/h (0 Bft) S-SW 202 0 min 0,000 mm 0,0 UV-I 0 W/m 13,8 C 0,0 km/h (0 Bft)
20.08.2016 21:44 14,8 C 14,8 C 94 % 1015,2 hPa 0,0 mm 0,0 km/h (0 Bft) S-SW 202 0 min 0,000 mm 0,0 UV-I 0 W/m 13,8 C 0,0 km/h (0 Bft)
20.08.2016 21:45 14,8 C 14,8 C 94 % 1015,2 hPa 0,0 mm 0,0 km/h (0 Bft) S-SW 202 0 min 0,000 mm 0,0 UV-I 0 W/m 13,8 C 0,0 km/h (0 Bft)
20.08.2016 21:46 14,8 C 14,8 C 94 % 1015,3 hPa 0,0 mm 0,0 km/h (0 Bft) S-SW 202 0 min 0,000 mm 0,0 UV-I 0 W/m 13,8 C 0,0 km/h (0 Bft)
20.08.2016 21:47 14,8 C 14,9 C 94 % 1015,2 hPa 0,0 mm 0,0 km/h (0 Bft) S-SW 203 0 min 0,000 mm 0,0 UV-I 0 W/m 13,8 C 0,0 km/h (0 Bft)
20.08.2016 21:48 14,9 C 14,9 C 95 % 1015,3 hPa 0,0 mm 0,0 km/h (0 Bft) S-SW 203 0 min 0,000 mm 0,0 UV-I 0 W/m 14,1 C 0,0 km/h (0 Bft)
20.08.2016 21:49 14,9 C 14,9 C 94 % 1015,4 hPa 0,0 mm 0,0 km/h (0 Bft) S-SW 204 0 min 0,000 mm 0,0 UV-I 0 W/m 13,9 C 0,0 km/h (0 Bft)
20.08.2016 21:50 14,9 C 14,9 C 94 % 1015,4 hPa 0,0 mm 0,7 km/h (0 Bft) W-SW 241 0 min 0,000 mm 0,0 UV-I 0 W/m 13,9 C 3,2 km/h (1 Bft)
20.08.2016 21:51 14,9 C 14,9 C 94 % 1015,5 hPa 0,0 mm 2,8 km/h (1 Bft) W-SW 255 0 min 0,000 mm 0,0 UV-I 0 W/m 13,9 C 3,2 km/h (1 Bft)
20.08.2016 21:52 14,9 C 14,9 C 94 % 1015,5 hPa 0,0 mm 2,3 km/h (1 Bft) W-SW 255 0 min 0,000 mm 0,0 UV-I 0 W/m 13,9 C 3,2 km/h (1 Bft)
20.08.2016 21:53 14,9 C 14,9 C 94 % 1015,5 hPa 0,0 mm 1,8 km/h (1 Bft) W-SW 254 0 min 0,000 mm 0,0 UV-I 0 W/m 13,9 C 3,2 km/h (1 Bft)
20.08.2016 21:54 14,9 C 14,9 C 94 % 1015,5 hPa 0,0 mm 0,4 km/h (0 Bft) W-SW 254 0 min 0,000 mm 0,0 UV-I 0 W/m 13,9 C 1,6 km/h (1 Bft)
20.08.2016 21:55 14,9 C 14,9 C 94 % 1015,5 hPa 0,0 mm 0,3 km/h (0 Bft) W-SW 254 0 min 0,000 mm 0,0 UV-I 0 W/m 13,9 C 1,6 km/h (1 Bft)
20.08.2016 21:56 14,9 C 15,0 C 94 % 1015,5 hPa 0,0 mm 0,0 km/h (0 Bft) W-SW 254 0 min 0,000 mm 0,0 UV-I 0 W/m 13,9 C 0,0 km/h (0 Bft)
20.08.2016 21:57 14,9 C 14,9 C 94 % 1015,5 hPa 0,0 mm 0,0 km/h (0 Bft) W-SW 254 0 min 0,000 mm 0,0 UV-I 0 W/m 13,9 C 0,0 km/h (0 Bft)
20.08.2016 21:58 14,9 C 14,9 C 94 % 1015,5 hPa 0,0 mm 0,0 km/h (0 Bft) W-SW 254 0 min 0,000 mm 0,0 UV-I 0 W/m 13,9 C 0,0 km/h (0 Bft)
20.08.2016 21:59 14,9 C 14,9 C 94 % 1015,5 hPa 0,0 mm 0,0 km/h (0 Bft) W-SW 254 0 min 0,000 mm 0,0 UV-I 0 W/m 13,9 C 0,0 km/h (0 Bft)
20.08.2016 22:00 14,9 C 14,9 C 94 % 1015,4 hPa 0,0 mm 0,0 km/h (0 Bft) W-SW 254 0 min 0,000 mm 0,0 UV-I 0 W/m 13,9 C 0,0 km/h (0 Bft)
20.08.2016 22:01 14,9 C 14,9 C 94 % 1015,4 hPa 0,0 mm 0,0 km/h (0 Bft) W-SW 254 0 min 0,000 mm 0,0 UV-I 0 W/m 13,9 C 0,0 km/h (0 Bft)
20.08.2016 22:02 14,9 C 14,9 C 95 % 1015,4 hPa 0,0 mm 0,0 km/h (0 Bft) W-SW 254 0 min 0,000 mm 0,0 UV-I 0 W/m 14,1 C 0,0 km/h (0 Bft)
20.08.2016 22:03 14,8 C 14,9 C 94 % 1015,3 hPa 0,0 mm 0,0 km/h (0 Bft) W-SW 254 0 min 0,000 mm 0,0 UV-I 0 W/m 13,8 C 0,0 km/h (0 Bft)
20.08.2016 22:04 14,9 C 14,9 C 95 % 1015,3 hPa 0,0 mm 0,0 km/h (0 Bft) W-SW 254 0 min 0,000 mm 0,0 UV-I 0 W/m 14,1 C 0,0 km/h (0 Bft)
20.08.2016 22:05 14,8 C 14,9 C 95 % 1015,3 hPa 0,0 mm 0,0 km/h (0 Bft) W-SW 254 0 min 0,000 mm 0,0 UV-I 0 W/m 14,0 C 0,0 km/h (0 Bft)
20.08.2016 22:06 14,9 C 14,9 C 95 % 1015,3 hPa 0,0 mm 0,0 km/h (0 Bft) W-SW 254 0 min 0,000 mm 0,0 UV-I 0 W/m 14,1 C 0,0 km/h (0 Bft)
20.08.2016 22:07 14,9 C 14,9 C 95 % 1015,3 hPa 0,0 mm 0,0 km/h (0 Bft) W-SW 254 0 min 0,000 mm 0,0 UV-I 0 W/m 14,1 C 0,0 km/h (0 Bft)
20.08.2016 22:08 14,8 C 14,9 C 95 % 1015,3 hPa 0,0 mm 0,0 km/h (0 Bft) W-SW 254 0 min 0,000 mm 0,0 UV-I 0 W/m 14,0 C 0,0 km/h (0 Bft)
20.08.2016 22:09 14,9 C 14,9 C 95 % 1015,3 hPa 0,0 mm 0,0 km/h (0 Bft) W-SW 254 0 min 0,000 mm 0,0 UV-I 0 W/m 14,1 C 0,0 km/h (0 Bft)
20.08.2016 22:10 14,9 C 14,9 C 95 % 1015,3 hPa 0,0 mm 0,0 km/h (0 Bft) W-SW 254 0 min 0,000 mm 0,0 UV-I 0 W/m 14,1 C 0,0 km/h (0 Bft)
20.08.2016 22:11 14,8 C 14,9 C 95 % 1015,3 hPa 0,0 mm 0,0 km/h (0 Bft) W-SW 254 0 min 0,000 mm 0,0 UV-I 0 W/m 14,0 C 0,0 km/h (0 Bft)
20.08.2016 22:12 14,8 C 14,9 C 95 % 1015,3 hPa 0,0 mm 0,0 km/h (0 Bft) W-SW 254 0 min 0,000 mm 0,0 UV-I 0 W/m 14,0 C 0,0 km/h (0 Bft)
20.08.2016 22:13 14,8 C 14,9 C 95 % 1015,3 hPa 0,0 mm 0,0 km/h (0 Bft) W-SW 254 0 min 0,000 mm 0,0 UV-I 0 W/m 14,0 C 0,0 km/h (0 Bft)
20.08.2016 22:14 14,8 C 14,8 C 95 % 1015,3 hPa 0,0 mm 0,0 km/h (0 Bft) W-SW 254 0 min 0,000 mm 0,0 UV-I 0 W/m 14,0 C 0,0 km/h (0 Bft)
20.08.2016 22:15 14,8 C 14,8 C 95 % 1015,2 hPa 0,0 mm 0,0 km/h (0 Bft) W-SW 254 0 min 0,000 mm 0,0 UV-I 0 W/m 14,0 C 0,0 km/h (0 Bft)
20.08.2016 22:16 14,8 C 14,8 C 95 % 1015,3 hPa 0,0 mm 0,0 km/h (0 Bft) W-SW 254 0 min 0,000 mm 0,0 UV-I 0 W/m 14,0 C 0,0 km/h (0 Bft)
20.08.2016 22:17 14,8 C 14,8 C 95 % 1015,3 hPa 0,0 mm 0,0 km/h (0 Bft) W-SW 254 0 min 0,000 mm 0,0 UV-I 0 W/m 14,0 C 0,0 km/h (0 Bft)
20.08.2016 22:18 14,8 C 14,8 C 95 % 1015,3 hPa 0,0 mm 0,0 km/h (0 Bft) W-SW 254 0 min 0,000 mm 0,0 UV-I 0 W/m 14,0 C 0,0 km/h (0 Bft)
20.08.2016 22:19 14,8 C 14,8 C 95 % 1015,3 hPa 0,0 mm 0,0 km/h (0 Bft) W-SW 254 0 min 0,000 mm 0,0 UV-I 0 W/m 14,0 C 0,0 km/h (0 Bft)
20.08.2016 22:20 14,8 C 14,8 C 95 % 1015,3 hPa 0,0 mm 0,0 km/h (0 Bft) W-SW 254 0 min 0,000 mm 0,0 UV-I 0 W/m 14,0 C 0,0 km/h (0 Bft)
20.08.2016 22:21 14,8 C 14,8 C 95 % 1015,3 hPa 0,0 mm 0,0 km/h (0 Bft) W-SW 254 0 min 0,000 mm 0,0 UV-I 0 W/m 14,0 C 0,0 km/h (0 Bft)
20.08.2016 22:22 14,8 C 14,8 C 95 % 1015,3 hPa 0,0 mm 0,0 km/h (0 Bft) W-SW 254 0 min 0,000 mm 0,0 UV-I 0 W/m 14,0 C 0,0 km/h (0 Bft)
20.08.2016 22:23 14,8 C 14,8 C 95 % 1015,3 hPa 0,0 mm 0,0 km/h (0 Bft) W-SW 254 0 min 0,000 mm 0,0 UV-I 0 W/m 14,0 C 0,0 km/h (0 Bft)
20.08.2016 22:24 14,8 C 14,8 C 95 % 1015,4 hPa 0,0 mm 0,0 km/h (0 Bft) W-SW 254 0 min 0,000 mm 0,0 UV-I 0 W/m 14,0 C 0,0 km/h (0 Bft)
20.08.2016 22:25 14,8 C 14,8 C 95 % 1015,4 hPa 0,0 mm 0,0 km/h (0 Bft) W-SW 254 0 min 0,000 mm 0,0 UV-I 0 W/m 14,0 C 0,0 km/h (0 Bft)
20.08.2016 22:26 14,8 C 14,8 C 95 % 1015,3 hPa 0,0 mm 0,0 km/h (0 Bft) W-SW 254 0 min 0,000 mm 0,0 UV-I 0 W/m 14,0 C 0,0 km/h (0 Bft)
20.08.2016 22:27 14,8 C 14,8 C 95 % 1015,3 hPa 0,0 mm 0,0 km/h (0 Bft) W-SW 254 0 min 0,000 mm 0,0 UV-I 0 W/m 14,0 C 0,0 km/h (0 Bft)
20.08.2016 22:28 14,8 C 14,8 C 95 % 1015,3 hPa 0,0 mm 0,0 km/h (0 Bft) W-SW 254 0 min 0,000 mm 0,0 UV-I 0 W/m 14,0 C 0,0 km/h (0 Bft)
20.08.2016 22:29 14,8 C 14,8 C 95 % 1015,3 hPa 0,0 mm 0,0 km/h (0 Bft) W-SW 254 0 min 0,000 mm 0,0 UV-I 0 W/m 14,0 C 0,0 km/h (0 Bft)
20.08.2016 22:30 14,8 C 14,8 C 95 % 1015,3 hPa 0,0 mm 0,0 km/h (0 Bft) W-SW 254 0 min 0,000 mm 0,0 UV-I 0 W/m 14,0 C 0,0 km/h (0 Bft)
20.08.2016 22:31 14,8 C 14,8 C 95 % 1015,3 hPa 0,0 mm 0,0 km/h (0 Bft) W-SW 254 0 min 0,000 mm 0,0 UV-I 0 W/m 14,0 C 0,0 km/h (0 Bft)
20.08.2016 22:32 14,9 C 14,9 C 95 % 1015,3 hPa 0,0 mm 0,0 km/h (0 Bft) W-SW 254 0 min 0,000 mm 0,0 UV-I 0 W/m 14,1 C 0,0 km/h (0 Bft)
20.08.2016 22:33 14,8 C 14,9 C 95 % 1015,3 hPa 0,0 mm 0,0 km/h (0 Bft) W-SW 254 0 min 0,000 mm 0,0 UV-I 0 W/m 14,0 C 0,0 km/h (0 Bft)
20.08.2016 22:34 14,9 C 14,9 C 95 % 1015,3 hPa 0,0 mm 0,0 km/h (0 Bft) W-SW 254 0 min 0,000 mm 0,0 UV-I 0 W/m 14,1 C 0,0 km/h (0 Bft)
20.08.2016 22:35 14,9 C 14,9 C 95 % 1015,3 hPa 0,0 mm 0,0 km/h (0 Bft) W-SW 254 0 min 0,000 mm 0,0 UV-I 0 W/m 14,1 C 0,0 km/h (0 Bft)
20.08.2016 22:36 14,9 C 14,9 C 95 % 1015,3 hPa 0,0 mm 0,0 km/h (0 Bft) W-SW 254 0 min 0,000 mm 0,0 UV-I 0 W/m 14,1 C 0,0 km/h (0 Bft)
20.08.2016 22:37 14,9 C 14,9 C 95 % 1015,3 hPa 0,0 mm 0,0 km/h (0 Bft) W-SW 254 0 min 0,000 mm 0,0 UV-I 0 W/m 14,1 C 0,0 km/h (0 Bft)
20.08.2016 22:38 14,9 C 14,9 C 95 % 1015,3 hPa 0,0 mm 0,0 km/h (0 Bft) W-SW 254 0 min 0,000 mm 0,0 UV-I 0 W/m 14,1 C 0,0 km/h (0 Bft)
20.08.2016 22:39 14,9 C 14,9 C 95 % 1015,4 hPa 0,0 mm 0,0 km/h (0 Bft) W-SW 254 0 min 0,000 mm 0,0 UV-I 0 W/m 14,1 C 0,0 km/h (0 Bft)
20.08.2016 22:40 14,9 C 14,9 C 95 % 1015,4 hPa 0,0 mm 0,8 km/h (0 Bft) W-SW 244 0 min 0,000 mm 0,0 UV-I 0 W/m 14,1 C 1,6 km/h (1 Bft)
20.08.2016 22:41 14,9 C 14,9 C 95 % 1015,3 hPa 0,0 mm 2,4 km/h (1 Bft) W 267 0 min 0,000 mm 0,0 UV-I 0 W/m 14,1 C 4,8 km/h (1 Bft)
20.08.2016 22:42 15,0 C 15,0 C 95 % 1015,4 hPa 0,0 mm 2,5 km/h (1 Bft) W 267 0 min 0,000 mm 0,0 UV-I 0 W/m 14,2 C 3,2 km/h (1 Bft)
20.08.2016 22:43 15,0 C 15,0 C 95 % 1015,4 hPa 0,0 mm 2,2 km/h (1 Bft) W 263 0 min 0,000 mm 0,0 UV-I 0 W/m 14,2 C 3,2 km/h (1 Bft)
20.08.2016 22:44 15,1 C 15,1 C 95 % 1015,3 hPa 0,0 mm 2,0 km/h (1 Bft) W-SW 257 0 min 0,000 mm 0,0 UV-I 0 W/m 14,3 C 3,2 km/h (1 Bft)
20.08.2016 22:45 15,1 C 15,1 C 95 % 1015,3 hPa 0,0 mm 0,9 km/h (0 Bft) W-SW 257 0 min 0,000 mm 0,0 UV-I 0 W/m 14,3 C 1,6 km/h (1 Bft)
20.08.2016 22:46 15,1 C 15,1 C 95 % 1015,4 hPa 0,0 mm 0,0 km/h (0 Bft) W-SW 257 0 min 0,000 mm 0,0 UV-I 0 W/m 14,3 C 0,0 km/h (0 Bft)
20.08.2016 22:47 15,1 C 15,1 C 95 % 1015,3 hPa 0,0 mm 1,5 km/h (1 Bft) W-SW 257 0 min 0,000 mm 0,0 UV-I 0 W/m 14,3 C 3,2 km/h (1 Bft)
20.08.2016 22:48 15,1 C 15,1 C 95 % 1015,3 hPa 0,0 mm 1,4 km/h (1 Bft) W-SW 257 0 min 0,000 mm 0,0 UV-I 0 W/m 14,3 C 1,6 km/h (1 Bft)
20.08.2016 22:49 15,1 C 15,1 C 95 % 1015,3 hPa 0,0 mm 1,0 km/h (0 Bft) W-SW 257 0 min 0,000 mm 0,0 UV-I 0 W/m 14,3 C 3,2 km/h (1 Bft)
20.08.2016 22:50 15,0 C 15,1 C 95 % 1015,3 hPa 0,0 mm 0,1 km/h (0 Bft) W-SW 257 0 min 0,000 mm 0,0 UV-I 0 W/m 14,2 C 1,6 km/h (1 Bft)
20.08.2016 22:51 15,0 C 15,1 C 95 % 1015,3 hPa 0,0 mm 0,0 km/h (0 Bft) W-SW 257 0 min 0,000 mm 0,0 UV-I 0 W/m 14,2 C 0,0 km/h (0 Bft)
20.08.2016 22:52 15,0 C 15,0 C 95 % 1015,3 hPa 0,0 mm 0,0 km/h (0 Bft) W-SW 257 0 min 0,000 mm 0,0 UV-I 0 W/m 14,2 C 0,0 km/h (0 Bft)
20.08.2016 22:53 15,0 C 15,0 C 95 % 1015,3 hPa 0,0 mm 0,0 km/h (0 Bft) W-SW 257 0 min 0,000 mm 0,0 UV-I 0 W/m 14,2 C 0,0 km/h (0 Bft)
20.08.2016 22:54 15,0 C 15,0 C 95 % 1015,3 hPa 0,0 mm 0,0 km/h (0 Bft) W-SW 257 0 min 0,000 mm 0,0 UV-I 0 W/m 14,2 C 0,0 km/h (0 Bft)
20.08.2016 22:55 15,0 C 15,0 C 95 % 1015,3 hPa 0,0 mm 0,0 km/h (0 Bft) W-SW 257 0 min 0,000 mm 0,0 UV-I 0 W/m 14,2 C 0,0 km/h (0 Bft)
20.08.2016 22:56 15,0 C 15,0 C 95 % 1015,3 hPa 0,0 mm 0,0 km/h (0 Bft) W-SW 257 0 min 0,000 mm 0,0 UV-I 0 W/m 14,2 C 0,0 km/h (0 Bft)
20.08.2016 22:57 15,0 C 15,0 C 95 % 1015,3 hPa 0,0 mm 0,0 km/h (0 Bft) W-SW 257 0 min 0,000 mm 0,0 UV-I 0 W/m 14,2 C 0,0 km/h (0 Bft)
20.08.2016 22:58 15,0 C 15,0 C 95 % 1015,2 hPa 0,0 mm 0,0 km/h (0 Bft) W-SW 257 0 min 0,000 mm 0,0 UV-I 0 W/m 14,2 C 0,0 km/h (0 Bft)
20.08.2016 22:59 15,0 C 15,0 C 95 % 1015,3 hPa 0,0 mm 0,0 km/h (0 Bft) W-SW 257 0 min 0,000 mm 0,0 UV-I 0 W/m 14,2 C 0,0 km/h (0 Bft)
20.08.2016 23:00 15,0 C 15,0 C 95 % 1015,3 hPa 0,0 mm 0,0 km/h (0 Bft) W-SW 257 0 min 0,000 mm 0,0 UV-I 0 W/m 14,2 C 0,0 km/h (0 Bft)
20.08.2016 23:01 14,9 C 15,0 C 95 % 1015,3 hPa 0,0 mm 0,0 km/h (0 Bft) W-SW 257 0 min 0,000 mm 0,0 UV-I 0 W/m 14,1 C 0,0 km/h (0 Bft)
20.08.2016 23:02 15,0 C 15,0 C 95 % 1015,4 hPa 0,0 mm 0,1 km/h (0 Bft) W-SW 257 0 min 0,000 mm 0,0 UV-I 0 W/m 14,2 C 1,6 km/h (1 Bft)
20.08.2016 23:03 15,0 C 15,0 C 95 % 1015,4 hPa 0,0 mm 0,1 km/h (0 Bft) W-SW 257 0 min 0,000 mm 0,0 UV-I 0 W/m 14,2 C 1,6 km/h (1 Bft)
20.08.2016 23:04 15,1 C 15,1 C 95 % 1015,4 hPa 0,0 mm 0,2 km/h (0 Bft) W-SW 257 0 min 0,000 mm 0,0 UV-I 0 W/m 14,3 C 1,6 km/h (1 Bft)
20.08.2016 23:05 15,1 C 15,1 C 95 % 1015,3 hPa 0,0 mm 0,1 km/h (0 Bft) W-SW 257 0 min 0,000 mm 0,0 UV-I 0 W/m 14,3 C 1,6 km/h (1 Bft)
20.08.2016 23:06 15,1 C 15,1 C 95 % 1015,4 hPa 0,0 mm 0,0 km/h (0 Bft) W-SW 257 0 min 0,000 mm 0,0 UV-I 0 W/m 14,3 C 0,0 km/h (0 Bft)
20.08.2016 23:07 15,1 C 15,1 C 95 % 1015,3 hPa 0,0 mm 0,0 km/h (0 Bft) W-SW 257 0 min 0,000 mm 0,0 UV-I 0 W/m 14,3 C 0,0 km/h (0 Bft)
20.08.2016 23:08 15,1 C 15,1 C 95 % 1015,3 hPa 0,0 mm 0,0 km/h (0 Bft) W-SW 257 0 min 0,000 mm 0,0 UV-I 0 W/m 14,3 C 0,0 km/h (0 Bft)
20.08.2016 23:09 15,1 C 15,1 C 95 % 1015,3 hPa 0,0 mm 0,0 km/h (0 Bft) W-SW 241 0 min 0,000 mm 0,0 UV-I 0 W/m 14,3 C 0,0 km/h (0 Bft)
20.08.2016 23:10 15,1 C 15,1 C 95 % 1015,3 hPa 0,0 mm 0,0 km/h (0 Bft) W-SW 241 0 min 0,000 mm 0,0 UV-I 0 W/m 14,3 C 0,0 km/h (0 Bft)
20.08.2016 23:11 15,1 C 15,1 C 95 % 1015,3 hPa 0,0 mm 0,0 km/h (0 Bft) W-SW 241 0 min 0,000 mm 0,0 UV-I 0 W/m 14,3 C 0,0 km/h (0 Bft)
20.08.2016 23:12 15,1 C 15,1 C 95 % 1015,3 hPa 0,0 mm 0,0 km/h (0 Bft) W-SW 241 0 min 0,000 mm 0,0 UV-I 0 W/m 14,3 C 0,0 km/h (0 Bft)
20.08.2016 23:13 15,1 C 15,1 C 95 % 1015,3 hPa 0,0 mm 0,0 km/h (0 Bft) W-SW 241 0 min 0,000 mm 0,0 UV-I 0 W/m 14,3 C 0,0 km/h (0 Bft)
20.08.2016 23:14 15,1 C 15,1 C 95 % 1015,3 hPa 0,0 mm 0,0 km/h (0 Bft) SW 219 0 min 0,000 mm 0,0 UV-I 0 W/m 14,3 C 0,0 km/h (0 Bft)
20.08.2016 23:15 15,2 C 15,2 C 95 % 1015,3 hPa 0,0 mm 0,0 km/h (0 Bft) SW 219 0 min 0,000 mm 0,0 UV-I 0 W/m 14,4 C 0,0 km/h (0 Bft)
20.08.2016 23:16 15,2 C 15,2 C 94 % 1015,3 hPa 0,0 mm 0,0 km/h (0 Bft) SW 216 0 min 0,000 mm 0,0 UV-I 0 W/m 14,2 C 0,0 km/h (0 Bft)
20.08.2016 23:17 15,2 C 15,2 C 94 % 1015,4 hPa 0,0 mm 1,9 km/h (1 Bft) S 180 0 min 0,000 mm 0,0 UV-I 0 W/m 14,2 C 4,8 km/h (1 Bft)
20.08.2016 23:18 15,3 C 15,3 C 94 % 1015,3 hPa 0,0 mm 2,7 km/h (1 Bft) S 181 0 min 0,000 mm 0,0 UV-I 0 W/m 14,3 C 3,2 km/h (1 Bft)
20.08.2016 23:19 15,3 C 15,3 C 94 % 1015,4 hPa 0,0 mm 1,3 km/h (1 Bft) S 181 0 min 0,000 mm 0,0 UV-I 0 W/m 14,3 C 3,2 km/h (1 Bft)
20.08.2016 23:20 15,3 C 15,3 C 94 % 1015,3 hPa 0,0 mm 0,7 km/h (0 Bft) S 181 0 min 0,000 mm 0,0 UV-I 0 W/m 14,3 C 1,6 km/h (1 Bft)
20.08.2016 23:21 15,3 C 15,3 C 94 % 1015,3 hPa 0,0 mm 1,3 km/h (1 Bft) S 181 0 min 0,000 mm 0,0 UV-I 0 W/m 14,3 C 1,6 km/h (1 Bft)
20.08.2016 23:22 15,2 C 15,3 C 94 % 1015,4 hPa 0,0 mm 1,7 km/h (1 Bft) S 181 0 min 0,000 mm 0,0 UV-I 0 W/m 14,2 C 3,2 km/h (1 Bft)
20.08.2016 23:23 15,2 C 15,2 C 94 % 1015,4 hPa 0,0 mm 2,1 km/h (1 Bft) S 181 0 min 0,000 mm 0,0 UV-I 0 W/m 14,2 C 3,2 km/h (1 Bft)
20.08.2016 23:24 15,2 C 15,2 C 94 % 1015,3 hPa 0,0 mm 0,5 km/h (0 Bft) S 181 0 min 0,000 mm 0,0 UV-I 0 W/m 14,2 C 1,6 km/h (1 Bft)
20.08.2016 23:25 15,2 C 15,2 C 94 % 1015,3 hPa 0,0 mm 0,0 km/h (0 Bft) S 181 0 min 0,000 mm 0,0 UV-I 0 W/m 14,2 C 0,0 km/h (0 Bft)
20.08.2016 23:26 15,2 C 15,2 C 94 % 1015,4 hPa 0,0 mm 0,0 km/h (0 Bft) S 181 0 min 0,000 mm 0,0 UV-I 0 W/m 14,2 C 0,0 km/h (0 Bft)
20.08.2016 23:27 15,3 C 15,3 C 94 % 1015,4 hPa 0,0 mm 1,6 km/h (1 Bft) S 181 0 min 0,000 mm 0,0 UV-I 0 W/m 14,3 C 3,2 km/h (1 Bft)
20.08.2016 23:28 15,3 C 15,3 C 94 % 1015,4 hPa 0,0 mm 2,1 km/h (1 Bft) S 181 0 min 0,000 mm 0,0 UV-I 0 W/m 14,3 C 4,8 km/h (1 Bft)
20.08.2016 23:29 15,2 C 15,3 C 94 % 1015,3 hPa 0,2 mm 1,3 km/h (1 Bft) S 181 0 min 0,000 mm 0,0 UV-I 0 W/m 14,2 C 3,2 km/h (1 Bft)
20.08.2016 23:30 15,3 C 15,3 C 94 % 1015,4 hPa 0,0 mm 1,9 km/h (1 Bft) S 180 0 min 0,000 mm 0,0 UV-I 0 W/m 14,3 C 3,2 km/h (1 Bft)
20.08.2016 23:31 15,3 C 15,3 C 94 % 1015,4 hPa 0,0 mm 2,6 km/h (1 Bft) S 178 0 min 0,000 mm 0,0 UV-I 0 W/m 14,3 C 3,2 km/h (1 Bft)
20.08.2016 23:32 15,3 C 15,3 C 94 % 1015,3 hPa 0,0 mm 1,9 km/h (1 Bft) S 179 0 min 0,000 mm 0,0 UV-I 0 W/m 14,3 C 3,2 km/h (1 Bft)
20.08.2016 23:33 15,2 C 15,3 C 94 % 1015,3 hPa 0,0 mm 0,6 km/h (0 Bft) S 178 0 min 0,000 mm 0,0 UV-I 0 W/m 14,2 C 1,6 km/h (1 Bft)
20.08.2016 23:34 15,2 C 15,2 C 94 % 1015,4 hPa 0,0 mm 2,0 km/h (1 Bft) S 178 0 min 0,000 mm 0,0 UV-I 0 W/m 14,2 C 3,2 km/h (1 Bft)
20.08.2016 23:35 15,2 C 15,2 C 94 % 1015,3 hPa 0,0 mm 1,3 km/h (1 Bft) S 178 0 min 0,000 mm 0,0 UV-I 0 W/m 14,2 C 3,2 km/h (1 Bft)
20.08.2016 23:36 15,2 C 15,2 C 94 % 1015,4 hPa 0,0 mm 2,1 km/h (1 Bft) S 179 0 min 0,000 mm 0,0 UV-I 0 W/m 14,2 C 4,8 km/h (1 Bft)
20.08.2016 23:37 15,2 C 15,2 C 94 % 1015,4 hPa 0,0 mm 2,7 km/h (1 Bft) S 179 0 min 0,000 mm 0,0 UV-I 0 W/m 14,2 C 3,2 km/h (1 Bft)
20.08.2016 23:38 15,2 C 15,2 C 94 % 1015,3 hPa 0,0 mm 1,8 km/h (1 Bft) S 179 0 min 0,000 mm 0,0 UV-I 0 W/m 14,2 C 3,2 km/h (1 Bft)
20.08.2016 23:39 15,2 C 15,2 C 94 % 1015,3 hPa 0,0 mm 2,0 km/h (1 Bft) S 178 0 min 0,000 mm 0,0 UV-I 0 W/m 14,2 C 3,2 km/h (1 Bft)
20.08.2016 23:40 15,1 C 15,2 C 94 % 1015,3 hPa 0,0 mm 2,5 km/h (1 Bft) S 178 0 min 0,000 mm 0,0 UV-I 0 W/m 14,1 C 3,2 km/h (1 Bft)
20.08.2016 23:41 15,1 C 15,1 C 94 % 1015,3 hPa 0,0 mm 1,3 km/h (1 Bft) S 178 0 min 0,000 mm 0,0 UV-I 0 W/m 14,1 C 3,2 km/h (1 Bft)
20.08.2016 23:42 15,1 C 15,1 C 94 % 1015,3 hPa 0,0 mm 2,4 km/h (1 Bft) S 178 0 min 0,000 mm 0,0 UV-I 0 W/m 14,1 C 3,2 km/h (1 Bft)
20.08.2016 23:43 15,1 C 15,1 C 94 % 1015,3 hPa 0,0 mm 1,9 km/h (1 Bft) S 178 0 min 0,000 mm 0,0 UV-I 0 W/m 14,1 C 3,2 km/h (1 Bft)
20.08.2016 23:44 15,1 C 15,1 C 94 % 1015,4 hPa 0,0 mm 1,7 km/h (1 Bft) S 178 0 min 0,000 mm 0,0 UV-I 0 W/m 14,1 C 3,2 km/h (1 Bft)
20.08.2016 23:45 15,1 C 15,1 C 94 % 1015,3 hPa 0,0 mm 0,8 km/h (0 Bft) S 178 0 min 0,000 mm 0,0 UV-I 0 W/m 14,1 C 1,6 km/h (1 Bft)
20.08.2016 23:46 15,1 C 15,1 C 94 % 1015,3 hPa 0,0 mm 0,9 km/h (0 Bft) S 178 0 min 0,000 mm 0,0 UV-I 0 W/m 14,1 C 1,6 km/h (1 Bft)
20.08.2016 23:47 15,1 C 15,1 C 94 % 1015,3 hPa 0,0 mm 0,6 km/h (0 Bft) S 178 0 min 0,000 mm 0,0 UV-I 0 W/m 14,1 C 3,2 km/h (1 Bft)
20.08.2016 23:48 15,0 C 15,1 C 94 % 1015,4 hPa 0,0 mm 0,7 km/h (0 Bft) S 178 0 min 0,000 mm 0,0 UV-I 0 W/m 14,0 C 1,6 km/h (1 Bft)
20.08.2016 23:49 15,1 C 15,1 C 94 % 1015,3 hPa 0,0 mm 0,5 km/h (0 Bft) S 178 0 min 0,000 mm 0,0 UV-I 0 W/m 14,1 C 3,2 km/h (1 Bft)
20.08.2016 23:50 15,1 C 15,1 C 94 % 1015,3 hPa 0,0 mm 1,3 km/h (1 Bft) S 179 0 min 0,000 mm 0,0 UV-I 0 W/m 14,1 C 1,6 km/h (1 Bft)
20.08.2016 23:51 15,1 C 15,1 C 94 % 1015,4 hPa 0,0 mm 3,7 km/h (1 Bft) S 185 0 min 0,000 mm 0,0 UV-I 0 W/m 14,1 C 6,4 km/h (2 Bft)
20.08.2016 23:52 15,2 C 15,2 C 94 % 1015,3 hPa 0,0 mm 3,3 km/h (1 Bft) S 186 0 min 0,000 mm 0,0 UV-I 0 W/m 14,2 C 4,8 km/h (1 Bft)
20.08.2016 23:53 15,2 C 15,2 C 94 % 1015,3 hPa 0,0 mm 2,9 km/h (1 Bft) S 175 0 min 0,000 mm 0,0 UV-I 0 W/m 14,2 C 4,8 km/h (1 Bft)
20.08.2016 23:54 15,2 C 15,2 C 94 % 1015,3 hPa 0,0 mm 1,5 km/h (1 Bft) S 175 0 min 0,000 mm 0,0 UV-I 0 W/m 14,2 C 3,2 km/h (1 Bft)
20.08.2016 23:55 15,1 C 15,2 C 94 % 1015,3 hPa 0,0 mm 2,1 km/h (1 Bft) S 175 0 min 0,000 mm 0,0 UV-I 0 W/m 14,1 C 3,2 km/h (1 Bft)
20.08.2016 23:56 15,1 C 15,2 C 94 % 1015,3 hPa 0,0 mm 2,3 km/h (1 Bft) S 175 0 min 0,000 mm 0,0 UV-I 0 W/m 14,1 C 4,8 km/h (1 Bft)
20.08.2016 23:57 15,1 C 15,1 C 94 % 1015,3 hPa 0,0 mm 0,3 km/h (0 Bft) S 175 0 min 0,000 mm 0,0 UV-I 0 W/m 14,1 C 1,6 km/h (1 Bft)
20.08.2016 23:58 15,1 C 15,1 C 94 % 1015,4 hPa 0,0 mm 0,6 km/h (0 Bft) S 175 0 min 0,000 mm 0,0 UV-I 0 W/m 14,1 C 1,6 km/h (1 Bft)
20.08.2016 23:59 15,1 C 15,1 C 94 % 1015,4 hPa 0,0 mm 1,3 km/h (1 Bft) S 182 0 min 0,000 mm 0,0 UV-I 0 W/m 14,1 C 1,6 km/h (1 Bft)
_ Min-Zeit 07:16 07:16 11:33 12:48 - 23:26 - - - - - - 07:16 23:26
Minimum _ 13,8 C 13,8 C 53 % 1012,4 hPa - 0,0 km/h (0 Bft) - - - - - - 12,2 C 0,0 km/h (0 Bft)
_ Max-Zeit 13:24 13:25 23:15 21:59 23:29 16:38 - - 13:23 12:01 12:33 12:33 12:25 16:49
Maximum _ 24,3 C 24,3 C 95 % 1015,5 hPa 0,2 mm 12,1 km/h
W-SW (2 Bft)
- - 1 min 0,457 mm 6,9 UV-I 902 W/m 18,1 C 17,7 km/h
W (3 Bft)
Durchschnitt _ 17,0 C 17,1 C 84 % 1013,6 hPa #2,8 mm 1,6 km/h (1 Bft) S - #3:23 h #2,057 mm 2,9 UV-I 134 W/m 14,1 C 2,8 km/h (1 Bft)